<?xml version="1.0" encoding="UTF-8" standalone="no" ?>
<gpx xmlns="http://www.topografix.com/GPX/1/1" xmlns:xsi="http://www.w3.org/2001/XMLSchema-instance" xsi:schemaLocation="http://www.topografix.com/GPX/1/1 http://www.topografix.com/GPX/1/1/gpx.xsd" version="1.1" creator="VisuGPX - https://www.visugpx.com">
  <metadata>
    <name>Les bois de Gigouzac à Mechmont</name>
    <desc><![CDATA[Circuit tranquille arpentant les bois et la campagne autour de Gigouzac jusqu'à Mechmont.]]></desc>
  </metadata>
  <trk>
    <name><![CDATA[Les bois de Gigouzac à Mechmont_1]]></name>
    <trkseg>
      <trkpt lat="44.58203" lon="1.43345">
        <ele>237.2</ele>
        <time>2021-11-21T12:48:42Z</time>
      </trkpt>
      <trkpt lat="44.58208" lon="1.43344">
        <ele>232.6</ele>
        <time>2021-11-21T12:50:31Z</time>
      </trkpt>
      <trkpt lat="44.58212" lon="1.43341">
        <ele>232</ele>
        <time>2021-11-21T12:50:38Z</time>
      </trkpt>
      <trkpt lat="44.58217" lon="1.43343">
        <ele>232</ele>
        <time>2021-11-21T12:50:44Z</time>
      </trkpt>
      <trkpt lat="44.58221" lon="1.43346">
        <ele>232</ele>
        <time>2021-11-21T12:50:49Z</time>
      </trkpt>
      <trkpt lat="44.58225" lon="1.4335">
        <ele>232.3</ele>
        <time>2021-11-21T12:50:55Z</time>
      </trkpt>
      <trkpt lat="44.58229" lon="1.4335">
        <ele>232.4</ele>
        <time>2021-11-21T12:51:01Z</time>
      </trkpt>
      <trkpt lat="44.58234" lon="1.43348">
        <ele>232</ele>
        <time>2021-11-21T12:51:09Z</time>
      </trkpt>
      <trkpt lat="44.58239" lon="1.4335">
        <ele>232</ele>
        <time>2021-11-21T12:51:18Z</time>
      </trkpt>
      <trkpt lat="44.58243" lon="1.43353">
        <ele>232.9</ele>
        <time>2021-11-21T12:51:23Z</time>
      </trkpt>
      <trkpt lat="44.58245" lon="1.43358">
        <ele>233.5</ele>
        <time>2021-11-21T12:51:29Z</time>
      </trkpt>
      <trkpt lat="44.58248" lon="1.43364">
        <ele>233.7</ele>
        <time>2021-11-21T12:51:35Z</time>
      </trkpt>
      <trkpt lat="44.5825" lon="1.43369">
        <ele>233.2</ele>
        <time>2021-11-21T12:51:41Z</time>
      </trkpt>
      <trkpt lat="44.58254" lon="1.43374">
        <ele>232.7</ele>
        <time>2021-11-21T12:51:48Z</time>
      </trkpt>
      <trkpt lat="44.58257" lon="1.43379">
        <ele>232.7</ele>
        <time>2021-11-21T12:51:54Z</time>
      </trkpt>
      <trkpt lat="44.5826" lon="1.43384">
        <ele>232.3</ele>
        <time>2021-11-21T12:52:01Z</time>
      </trkpt>
      <trkpt lat="44.58263" lon="1.43389">
        <ele>231.7</ele>
        <time>2021-11-21T12:52:07Z</time>
      </trkpt>
      <trkpt lat="44.58267" lon="1.43395">
        <ele>231.6</ele>
        <time>2021-11-21T12:52:12Z</time>
      </trkpt>
      <trkpt lat="44.58271" lon="1.434">
        <ele>231.7</ele>
        <time>2021-11-21T12:52:17Z</time>
      </trkpt>
      <trkpt lat="44.58274" lon="1.43405">
        <ele>232</ele>
        <time>2021-11-21T12:52:22Z</time>
      </trkpt>
      <trkpt lat="44.58278" lon="1.43409">
        <ele>232.1</ele>
        <time>2021-11-21T12:52:28Z</time>
      </trkpt>
      <trkpt lat="44.58281" lon="1.43415">
        <ele>232.5</ele>
        <time>2021-11-21T12:52:35Z</time>
      </trkpt>
      <trkpt lat="44.58285" lon="1.43419">
        <ele>232.5</ele>
        <time>2021-11-21T12:52:42Z</time>
      </trkpt>
      <trkpt lat="44.58289" lon="1.43417">
        <ele>231.9</ele>
        <time>2021-11-21T12:52:49Z</time>
      </trkpt>
      <trkpt lat="44.58293" lon="1.43414">
        <ele>231.3</ele>
        <time>2021-11-21T12:52:55Z</time>
      </trkpt>
      <trkpt lat="44.58297" lon="1.43408">
        <ele>231</ele>
        <time>2021-11-21T12:53:01Z</time>
      </trkpt>
      <trkpt lat="44.583" lon="1.43403">
        <ele>230.8</ele>
        <time>2021-11-21T12:53:07Z</time>
      </trkpt>
      <trkpt lat="44.58303" lon="1.43398">
        <ele>230.6</ele>
        <time>2021-11-21T12:53:13Z</time>
      </trkpt>
      <trkpt lat="44.58306" lon="1.43392">
        <ele>230.7</ele>
        <time>2021-11-21T12:53:19Z</time>
      </trkpt>
      <trkpt lat="44.58309" lon="1.43386">
        <ele>229.9</ele>
        <time>2021-11-21T12:53:24Z</time>
      </trkpt>
      <trkpt lat="44.58312" lon="1.43381">
        <ele>229.2</ele>
        <time>2021-11-21T12:53:29Z</time>
      </trkpt>
      <trkpt lat="44.58315" lon="1.43375">
        <ele>228.8</ele>
        <time>2021-11-21T12:53:34Z</time>
      </trkpt>
      <trkpt lat="44.58318" lon="1.4337">
        <ele>228</ele>
        <time>2021-11-21T12:53:39Z</time>
      </trkpt>
      <trkpt lat="44.58321" lon="1.43364">
        <ele>226.1</ele>
        <time>2021-11-21T12:53:45Z</time>
      </trkpt>
      <trkpt lat="44.58323" lon="1.43358">
        <ele>225.4</ele>
        <time>2021-11-21T12:53:49Z</time>
      </trkpt>
      <trkpt lat="44.58325" lon="1.43351">
        <ele>225.3</ele>
        <time>2021-11-21T12:53:54Z</time>
      </trkpt>
      <trkpt lat="44.58324" lon="1.43343">
        <ele>225.8</ele>
        <time>2021-11-21T12:53:59Z</time>
      </trkpt>
      <trkpt lat="44.58323" lon="1.43337">
        <ele>227.1</ele>
        <time>2021-11-21T12:54:03Z</time>
      </trkpt>
      <trkpt lat="44.58321" lon="1.4333">
        <ele>228.4</ele>
        <time>2021-11-21T12:54:08Z</time>
      </trkpt>
      <trkpt lat="44.58318" lon="1.43324">
        <ele>228.2</ele>
        <time>2021-11-21T12:54:13Z</time>
      </trkpt>
      <trkpt lat="44.58316" lon="1.43318">
        <ele>228</ele>
        <time>2021-11-21T12:54:17Z</time>
      </trkpt>
      <trkpt lat="44.58315" lon="1.43312">
        <ele>227.7</ele>
        <time>2021-11-21T12:54:21Z</time>
      </trkpt>
      <trkpt lat="44.58311" lon="1.43306">
        <ele>226.8</ele>
        <time>2021-11-21T12:54:26Z</time>
      </trkpt>
      <trkpt lat="44.58307" lon="1.43302">
        <ele>225.6</ele>
        <time>2021-11-21T12:54:31Z</time>
      </trkpt>
      <trkpt lat="44.58303" lon="1.43299">
        <ele>225.1</ele>
        <time>2021-11-21T12:54:36Z</time>
      </trkpt>
      <trkpt lat="44.58299" lon="1.43294">
        <ele>225.8</ele>
        <time>2021-11-21T12:54:41Z</time>
      </trkpt>
      <trkpt lat="44.58295" lon="1.43289">
        <ele>226.7</ele>
        <time>2021-11-21T12:54:46Z</time>
      </trkpt>
      <trkpt lat="44.58291" lon="1.43285">
        <ele>227</ele>
        <time>2021-11-21T12:54:52Z</time>
      </trkpt>
      <trkpt lat="44.58286" lon="1.43287">
        <ele>226.7</ele>
        <time>2021-11-21T12:54:57Z</time>
      </trkpt>
      <trkpt lat="44.58283" lon="1.43291">
        <ele>226.9</ele>
        <time>2021-11-21T12:55:02Z</time>
      </trkpt>
      <trkpt lat="44.58279" lon="1.43295">
        <ele>227.4</ele>
        <time>2021-11-21T12:55:07Z</time>
      </trkpt>
      <trkpt lat="44.58276" lon="1.433">
        <ele>228</ele>
        <time>2021-11-21T12:55:13Z</time>
      </trkpt>
      <trkpt lat="44.58273" lon="1.43305">
        <ele>228.4</ele>
        <time>2021-11-21T12:55:19Z</time>
      </trkpt>
      <trkpt lat="44.58271" lon="1.43311">
        <ele>228.6</ele>
        <time>2021-11-21T12:55:25Z</time>
      </trkpt>
      <trkpt lat="44.58266" lon="1.43311">
        <ele>230.4</ele>
        <time>2021-11-21T12:55:33Z</time>
      </trkpt>
      <trkpt lat="44.58262" lon="1.43315">
        <ele>229.9</ele>
        <time>2021-11-21T12:55:39Z</time>
      </trkpt>
      <trkpt lat="44.58258" lon="1.43319">
        <ele>229.1</ele>
        <time>2021-11-21T12:55:46Z</time>
      </trkpt>
      <trkpt lat="44.58253" lon="1.43319">
        <ele>228.1</ele>
        <time>2021-11-21T12:55:54Z</time>
      </trkpt>
      <trkpt lat="44.58248" lon="1.43319">
        <ele>227.7</ele>
        <time>2021-11-21T12:56:00Z</time>
      </trkpt>
      <trkpt lat="44.58244" lon="1.43318">
        <ele>228.4</ele>
        <time>2021-11-21T12:56:13Z</time>
      </trkpt>
      <trkpt lat="44.58239" lon="1.43315">
        <ele>228.6</ele>
        <time>2021-11-21T12:56:21Z</time>
      </trkpt>
      <trkpt lat="44.58235" lon="1.43319">
        <ele>228.7</ele>
        <time>2021-11-21T12:56:28Z</time>
      </trkpt>
      <trkpt lat="44.58236" lon="1.43325">
        <ele>227.8</ele>
        <time>2021-11-21T12:56:35Z</time>
      </trkpt>
      <trkpt lat="44.5824" lon="1.4333">
        <ele>227.1</ele>
        <time>2021-11-21T12:56:41Z</time>
      </trkpt>
      <trkpt lat="44.58242" lon="1.43335">
        <ele>226.1</ele>
        <time>2021-11-21T12:56:47Z</time>
      </trkpt>
      <trkpt lat="44.58241" lon="1.43342">
        <ele>226.2</ele>
        <time>2021-11-21T12:56:53Z</time>
      </trkpt>
      <trkpt lat="44.58236" lon="1.43343">
        <ele>226.6</ele>
        <time>2021-11-21T12:57:00Z</time>
      </trkpt>
      <trkpt lat="44.58231" lon="1.43341">
        <ele>227</ele>
        <time>2021-11-21T12:57:06Z</time>
      </trkpt>
      <trkpt lat="44.58227" lon="1.43338">
        <ele>226.9</ele>
        <time>2021-11-21T12:57:12Z</time>
      </trkpt>
      <trkpt lat="44.58223" lon="1.43334">
        <ele>226.5</ele>
        <time>2021-11-21T12:57:18Z</time>
      </trkpt>
      <trkpt lat="44.58218" lon="1.4333">
        <ele>225.8</ele>
        <time>2021-11-21T12:57:23Z</time>
      </trkpt>
      <trkpt lat="44.58215" lon="1.43326">
        <ele>225.5</ele>
        <time>2021-11-21T12:57:28Z</time>
      </trkpt>
      <trkpt lat="44.58212" lon="1.4332">
        <ele>225.3</ele>
        <time>2021-11-21T12:57:33Z</time>
      </trkpt>
      <trkpt lat="44.5821" lon="1.43314">
        <ele>224.6</ele>
        <time>2021-11-21T12:57:38Z</time>
      </trkpt>
      <trkpt lat="44.58208" lon="1.43308">
        <ele>223.9</ele>
        <time>2021-11-21T12:57:43Z</time>
      </trkpt>
      <trkpt lat="44.58206" lon="1.43301">
        <ele>223.2</ele>
        <time>2021-11-21T12:57:48Z</time>
      </trkpt>
      <trkpt lat="44.58203" lon="1.43295">
        <ele>223</ele>
        <time>2021-11-21T12:57:53Z</time>
      </trkpt>
      <trkpt lat="44.582" lon="1.4329">
        <ele>222.8</ele>
        <time>2021-11-21T12:57:57Z</time>
      </trkpt>
      <trkpt lat="44.58196" lon="1.43284">
        <ele>222.3</ele>
        <time>2021-11-21T12:58:02Z</time>
      </trkpt>
      <trkpt lat="44.58193" lon="1.43278">
        <ele>222.3</ele>
        <time>2021-11-21T12:58:07Z</time>
      </trkpt>
      <trkpt lat="44.58189" lon="1.43272">
        <ele>221.5</ele>
        <time>2021-11-21T12:58:12Z</time>
      </trkpt>
      <trkpt lat="44.58186" lon="1.43267">
        <ele>220.9</ele>
        <time>2021-11-21T12:58:16Z</time>
      </trkpt>
      <trkpt lat="44.58184" lon="1.43262">
        <ele>220.1</ele>
        <time>2021-11-21T12:58:20Z</time>
      </trkpt>
      <trkpt lat="44.5818" lon="1.43256">
        <ele>220.1</ele>
        <time>2021-11-21T12:58:25Z</time>
      </trkpt>
      <trkpt lat="44.58176" lon="1.43251">
        <ele>220.4</ele>
        <time>2021-11-21T12:58:29Z</time>
      </trkpt>
      <trkpt lat="44.58173" lon="1.43246">
        <ele>220.5</ele>
        <time>2021-11-21T12:58:33Z</time>
      </trkpt>
      <trkpt lat="44.58169" lon="1.43242">
        <ele>220.5</ele>
        <time>2021-11-21T12:58:37Z</time>
      </trkpt>
      <trkpt lat="44.58166" lon="1.43237">
        <ele>220.3</ele>
        <time>2021-11-21T12:58:41Z</time>
      </trkpt>
      <trkpt lat="44.58163" lon="1.43233">
        <ele>220.3</ele>
        <time>2021-11-21T12:58:45Z</time>
      </trkpt>
      <trkpt lat="44.58159" lon="1.43226">
        <ele>220.3</ele>
        <time>2021-11-21T12:58:50Z</time>
      </trkpt>
      <trkpt lat="44.58156" lon="1.43221">
        <ele>220.4</ele>
        <time>2021-11-21T12:58:55Z</time>
      </trkpt>
      <trkpt lat="44.58153" lon="1.43215">
        <ele>221</ele>
        <time>2021-11-21T12:59:00Z</time>
      </trkpt>
      <trkpt lat="44.5815" lon="1.4321">
        <ele>222.8</ele>
        <time>2021-11-21T12:59:05Z</time>
      </trkpt>
      <trkpt lat="44.58146" lon="1.43204">
        <ele>224.1</ele>
        <time>2021-11-21T12:59:10Z</time>
      </trkpt>
      <trkpt lat="44.58143" lon="1.43199">
        <ele>223.2</ele>
        <time>2021-11-21T12:59:14Z</time>
      </trkpt>
      <trkpt lat="44.58141" lon="1.43193">
        <ele>222</ele>
        <time>2021-11-21T12:59:18Z</time>
      </trkpt>
      <trkpt lat="44.58138" lon="1.43187">
        <ele>221.3</ele>
        <time>2021-11-21T12:59:22Z</time>
      </trkpt>
      <trkpt lat="44.58135" lon="1.4318">
        <ele>220.9</ele>
        <time>2021-11-21T12:59:26Z</time>
      </trkpt>
      <trkpt lat="44.58133" lon="1.43175">
        <ele>220.5</ele>
        <time>2021-11-21T12:59:30Z</time>
      </trkpt>
      <trkpt lat="44.5813" lon="1.43169">
        <ele>219.9</ele>
        <time>2021-11-21T12:59:34Z</time>
      </trkpt>
      <trkpt lat="44.58127" lon="1.43164">
        <ele>219.3</ele>
        <time>2021-11-21T12:59:38Z</time>
      </trkpt>
      <trkpt lat="44.58124" lon="1.43157">
        <ele>218.3</ele>
        <time>2021-11-21T12:59:43Z</time>
      </trkpt>
      <trkpt lat="44.58121" lon="1.43151">
        <ele>218</ele>
        <time>2021-11-21T12:59:48Z</time>
      </trkpt>
      <trkpt lat="44.58117" lon="1.43146">
        <ele>218.1</ele>
        <time>2021-11-21T12:59:52Z</time>
      </trkpt>
      <trkpt lat="44.58114" lon="1.43141">
        <ele>218</ele>
        <time>2021-11-21T12:59:56Z</time>
      </trkpt>
      <trkpt lat="44.58111" lon="1.43136">
        <ele>218.2</ele>
        <time>2021-11-21T13:00:00Z</time>
      </trkpt>
      <trkpt lat="44.58108" lon="1.43129">
        <ele>218.1</ele>
        <time>2021-11-21T13:00:05Z</time>
      </trkpt>
      <trkpt lat="44.58106" lon="1.43124">
        <ele>218.7</ele>
        <time>2021-11-21T13:00:09Z</time>
      </trkpt>
      <trkpt lat="44.58103" lon="1.43118">
        <ele>219</ele>
        <time>2021-11-21T13:00:13Z</time>
      </trkpt>
      <trkpt lat="44.58101" lon="1.43112">
        <ele>219.3</ele>
        <time>2021-11-21T13:00:17Z</time>
      </trkpt>
      <trkpt lat="44.58099" lon="1.43105">
        <ele>219.2</ele>
        <time>2021-11-21T13:00:22Z</time>
      </trkpt>
      <trkpt lat="44.58096" lon="1.43098">
        <ele>219.5</ele>
        <time>2021-11-21T13:00:27Z</time>
      </trkpt>
      <trkpt lat="44.58094" lon="1.43091">
        <ele>219.7</ele>
        <time>2021-11-21T13:00:32Z</time>
      </trkpt>
      <trkpt lat="44.58092" lon="1.43085">
        <ele>219.7</ele>
        <time>2021-11-21T13:00:37Z</time>
      </trkpt>
      <trkpt lat="44.58089" lon="1.43078">
        <ele>219.3</ele>
        <time>2021-11-21T13:00:42Z</time>
      </trkpt>
      <trkpt lat="44.58086" lon="1.43073">
        <ele>218.6</ele>
        <time>2021-11-21T13:00:47Z</time>
      </trkpt>
      <trkpt lat="44.58084" lon="1.43068">
        <ele>218.6</ele>
        <time>2021-11-21T13:00:51Z</time>
      </trkpt>
      <trkpt lat="44.58081" lon="1.43062">
        <ele>218.4</ele>
        <time>2021-11-21T13:00:55Z</time>
      </trkpt>
      <trkpt lat="44.58078" lon="1.43056">
        <ele>218.4</ele>
        <time>2021-11-21T13:01:00Z</time>
      </trkpt>
      <trkpt lat="44.58074" lon="1.43051">
        <ele>218.5</ele>
        <time>2021-11-21T13:01:04Z</time>
      </trkpt>
      <trkpt lat="44.58072" lon="1.43045">
        <ele>218.8</ele>
        <time>2021-11-21T13:01:08Z</time>
      </trkpt>
      <trkpt lat="44.58069" lon="1.4304">
        <ele>218.8</ele>
        <time>2021-11-21T13:01:12Z</time>
      </trkpt>
      <trkpt lat="44.58066" lon="1.43034">
        <ele>218.7</ele>
        <time>2021-11-21T13:01:16Z</time>
      </trkpt>
      <trkpt lat="44.58062" lon="1.43028">
        <ele>219.1</ele>
        <time>2021-11-21T13:01:20Z</time>
      </trkpt>
      <trkpt lat="44.58058" lon="1.43023">
        <ele>219.7</ele>
        <time>2021-11-21T13:01:24Z</time>
      </trkpt>
      <trkpt lat="44.58054" lon="1.43019">
        <ele>220.3</ele>
        <time>2021-11-21T13:01:28Z</time>
      </trkpt>
      <trkpt lat="44.5805" lon="1.43014">
        <ele>220.3</ele>
        <time>2021-11-21T13:01:33Z</time>
      </trkpt>
      <trkpt lat="44.58046" lon="1.43009">
        <ele>219.9</ele>
        <time>2021-11-21T13:01:38Z</time>
      </trkpt>
      <trkpt lat="44.58042" lon="1.43005">
        <ele>220</ele>
        <time>2021-11-21T13:01:43Z</time>
      </trkpt>
      <trkpt lat="44.58038" lon="1.43001">
        <ele>220.1</ele>
        <time>2021-11-21T13:01:48Z</time>
      </trkpt>
      <trkpt lat="44.58033" lon="1.42997">
        <ele>220.1</ele>
        <time>2021-11-21T13:01:53Z</time>
      </trkpt>
      <trkpt lat="44.58029" lon="1.42993">
        <ele>219.3</ele>
        <time>2021-11-21T13:01:58Z</time>
      </trkpt>
      <trkpt lat="44.58025" lon="1.42989">
        <ele>218.6</ele>
        <time>2021-11-21T13:02:02Z</time>
      </trkpt>
      <trkpt lat="44.58021" lon="1.42985">
        <ele>217.2</ele>
        <time>2021-11-21T13:02:07Z</time>
      </trkpt>
      <trkpt lat="44.58016" lon="1.4298">
        <ele>216.4</ele>
        <time>2021-11-21T13:02:12Z</time>
      </trkpt>
      <trkpt lat="44.58012" lon="1.42976">
        <ele>215.9</ele>
        <time>2021-11-21T13:02:16Z</time>
      </trkpt>
      <trkpt lat="44.58008" lon="1.42973">
        <ele>215.1</ele>
        <time>2021-11-21T13:02:20Z</time>
      </trkpt>
      <trkpt lat="44.58005" lon="1.42969">
        <ele>214.7</ele>
        <time>2021-11-21T13:02:24Z</time>
      </trkpt>
      <trkpt lat="44.58" lon="1.42964">
        <ele>214</ele>
        <time>2021-11-21T13:02:29Z</time>
      </trkpt>
      <trkpt lat="44.57997" lon="1.42961">
        <ele>213.6</ele>
        <time>2021-11-21T13:02:33Z</time>
      </trkpt>
      <trkpt lat="44.57993" lon="1.42957">
        <ele>213.1</ele>
        <time>2021-11-21T13:02:37Z</time>
      </trkpt>
      <trkpt lat="44.57989" lon="1.42953">
        <ele>212.9</ele>
        <time>2021-11-21T13:02:41Z</time>
      </trkpt>
      <trkpt lat="44.57985" lon="1.42948">
        <ele>212.9</ele>
        <time>2021-11-21T13:02:46Z</time>
      </trkpt>
      <trkpt lat="44.57981" lon="1.42944">
        <ele>212.5</ele>
        <time>2021-11-21T13:02:50Z</time>
      </trkpt>
      <trkpt lat="44.57978" lon="1.42941">
        <ele>211.8</ele>
        <time>2021-11-21T13:02:54Z</time>
      </trkpt>
      <trkpt lat="44.57973" lon="1.42936">
        <ele>210.9</ele>
        <time>2021-11-21T13:02:59Z</time>
      </trkpt>
      <trkpt lat="44.57969" lon="1.4293">
        <ele>209.4</ele>
        <time>2021-11-21T13:03:04Z</time>
      </trkpt>
      <trkpt lat="44.57965" lon="1.42926">
        <ele>208.2</ele>
        <time>2021-11-21T13:03:09Z</time>
      </trkpt>
      <trkpt lat="44.57961" lon="1.42922">
        <ele>207.4</ele>
        <time>2021-11-21T13:03:13Z</time>
      </trkpt>
      <trkpt lat="44.57957" lon="1.42917">
        <ele>206.2</ele>
        <time>2021-11-21T13:03:18Z</time>
      </trkpt>
      <trkpt lat="44.57953" lon="1.42912">
        <ele>204.8</ele>
        <time>2021-11-21T13:03:23Z</time>
      </trkpt>
      <trkpt lat="44.57949" lon="1.42907">
        <ele>203.5</ele>
        <time>2021-11-21T13:03:28Z</time>
      </trkpt>
      <trkpt lat="44.57945" lon="1.42902">
        <ele>201.8</ele>
        <time>2021-11-21T13:03:33Z</time>
      </trkpt>
      <trkpt lat="44.57941" lon="1.42898">
        <ele>200.2</ele>
        <time>2021-11-21T13:03:38Z</time>
      </trkpt>
      <trkpt lat="44.57937" lon="1.42894">
        <ele>199.1</ele>
        <time>2021-11-21T13:03:42Z</time>
      </trkpt>
      <trkpt lat="44.57932" lon="1.4289">
        <ele>198.2</ele>
        <time>2021-11-21T13:03:47Z</time>
      </trkpt>
      <trkpt lat="44.57927" lon="1.42886">
        <ele>198.2</ele>
        <time>2021-11-21T13:03:52Z</time>
      </trkpt>
      <trkpt lat="44.57923" lon="1.42882">
        <ele>198.3</ele>
        <time>2021-11-21T13:03:56Z</time>
      </trkpt>
      <trkpt lat="44.57919" lon="1.42879">
        <ele>198.2</ele>
        <time>2021-11-21T13:04:00Z</time>
      </trkpt>
      <trkpt lat="44.57916" lon="1.42875">
        <ele>197.6</ele>
        <time>2021-11-21T13:04:04Z</time>
      </trkpt>
      <trkpt lat="44.57911" lon="1.42871">
        <ele>197.1</ele>
        <time>2021-11-21T13:04:09Z</time>
      </trkpt>
      <trkpt lat="44.57907" lon="1.42866">
        <ele>196.4</ele>
        <time>2021-11-21T13:04:14Z</time>
      </trkpt>
      <trkpt lat="44.57903" lon="1.42862">
        <ele>196.1</ele>
        <time>2021-11-21T13:04:18Z</time>
      </trkpt>
      <trkpt lat="44.57899" lon="1.42859">
        <ele>195.8</ele>
        <time>2021-11-21T13:04:22Z</time>
      </trkpt>
      <trkpt lat="44.57895" lon="1.42855">
        <ele>195.5</ele>
        <time>2021-11-21T13:04:26Z</time>
      </trkpt>
      <trkpt lat="44.57891" lon="1.42851">
        <ele>195.1</ele>
        <time>2021-11-21T13:04:31Z</time>
      </trkpt>
      <trkpt lat="44.57886" lon="1.42849">
        <ele>195.4</ele>
        <time>2021-11-21T13:04:35Z</time>
      </trkpt>
      <trkpt lat="44.57882" lon="1.42845">
        <ele>195.5</ele>
        <time>2021-11-21T13:04:40Z</time>
      </trkpt>
      <trkpt lat="44.57877" lon="1.42842">
        <ele>196.9</ele>
        <time>2021-11-21T13:04:44Z</time>
      </trkpt>
      <trkpt lat="44.57873" lon="1.42839">
        <ele>198.3</ele>
        <time>2021-11-21T13:04:48Z</time>
      </trkpt>
      <trkpt lat="44.5787" lon="1.42834">
        <ele>199.4</ele>
        <time>2021-11-21T13:04:53Z</time>
      </trkpt>
      <trkpt lat="44.57866" lon="1.42829">
        <ele>199.7</ele>
        <time>2021-11-21T13:04:58Z</time>
      </trkpt>
      <trkpt lat="44.57862" lon="1.42824">
        <ele>200.7</ele>
        <time>2021-11-21T13:05:03Z</time>
      </trkpt>
      <trkpt lat="44.57858" lon="1.4282">
        <ele>201.3</ele>
        <time>2021-11-21T13:05:08Z</time>
      </trkpt>
      <trkpt lat="44.57854" lon="1.42816">
        <ele>201.7</ele>
        <time>2021-11-21T13:05:13Z</time>
      </trkpt>
      <trkpt lat="44.57849" lon="1.42812">
        <ele>202.8</ele>
        <time>2021-11-21T13:05:18Z</time>
      </trkpt>
      <trkpt lat="44.57845" lon="1.42809">
        <ele>204.1</ele>
        <time>2021-11-21T13:05:23Z</time>
      </trkpt>
      <trkpt lat="44.5784" lon="1.42806">
        <ele>204.5</ele>
        <time>2021-11-21T13:05:27Z</time>
      </trkpt>
      <trkpt lat="44.57836" lon="1.42803">
        <ele>204</ele>
        <time>2021-11-21T13:05:31Z</time>
      </trkpt>
      <trkpt lat="44.57832" lon="1.428">
        <ele>204.1</ele>
        <time>2021-11-21T13:05:36Z</time>
      </trkpt>
      <trkpt lat="44.57827" lon="1.42797">
        <ele>205.1</ele>
        <time>2021-11-21T13:05:40Z</time>
      </trkpt>
      <trkpt lat="44.57823" lon="1.42796">
        <ele>206.1</ele>
        <time>2021-11-21T13:05:44Z</time>
      </trkpt>
      <trkpt lat="44.57817" lon="1.42793">
        <ele>206.8</ele>
        <time>2021-11-21T13:05:49Z</time>
      </trkpt>
      <trkpt lat="44.57813" lon="1.4279">
        <ele>208</ele>
        <time>2021-11-21T13:05:53Z</time>
      </trkpt>
      <trkpt lat="44.57808" lon="1.42786">
        <ele>209.9</ele>
        <time>2021-11-21T13:05:58Z</time>
      </trkpt>
      <trkpt lat="44.57805" lon="1.42781">
        <ele>211.3</ele>
        <time>2021-11-21T13:06:03Z</time>
      </trkpt>
      <trkpt lat="44.57801" lon="1.42776">
        <ele>211.9</ele>
        <time>2021-11-21T13:06:08Z</time>
      </trkpt>
      <trkpt lat="44.57798" lon="1.4277">
        <ele>211.9</ele>
        <time>2021-11-21T13:06:13Z</time>
      </trkpt>
      <trkpt lat="44.57794" lon="1.42765">
        <ele>211.9</ele>
        <time>2021-11-21T13:06:18Z</time>
      </trkpt>
      <trkpt lat="44.57791" lon="1.42761">
        <ele>211.6</ele>
        <time>2021-11-21T13:06:22Z</time>
      </trkpt>
      <trkpt lat="44.57787" lon="1.42756">
        <ele>211.3</ele>
        <time>2021-11-21T13:06:26Z</time>
      </trkpt>
      <trkpt lat="44.57783" lon="1.42751">
        <ele>210.6</ele>
        <time>2021-11-21T13:06:30Z</time>
      </trkpt>
      <trkpt lat="44.5778" lon="1.42747">
        <ele>210.4</ele>
        <time>2021-11-21T13:06:34Z</time>
      </trkpt>
      <trkpt lat="44.57776" lon="1.42743">
        <ele>210.4</ele>
        <time>2021-11-21T13:06:38Z</time>
      </trkpt>
      <trkpt lat="44.57772" lon="1.42739">
        <ele>210.2</ele>
        <time>2021-11-21T13:06:42Z</time>
      </trkpt>
      <trkpt lat="44.57768" lon="1.42735">
        <ele>210.2</ele>
        <time>2021-11-21T13:06:46Z</time>
      </trkpt>
      <trkpt lat="44.57764" lon="1.4273">
        <ele>210.4</ele>
        <time>2021-11-21T13:06:51Z</time>
      </trkpt>
      <trkpt lat="44.57761" lon="1.42725">
        <ele>210.4</ele>
        <time>2021-11-21T13:06:56Z</time>
      </trkpt>
      <trkpt lat="44.57758" lon="1.42718">
        <ele>210.2</ele>
        <time>2021-11-21T13:07:01Z</time>
      </trkpt>
      <trkpt lat="44.57758" lon="1.42712">
        <ele>211</ele>
        <time>2021-11-21T13:07:05Z</time>
      </trkpt>
      <trkpt lat="44.57757" lon="1.42705">
        <ele>211.8</ele>
        <time>2021-11-21T13:07:09Z</time>
      </trkpt>
      <trkpt lat="44.57756" lon="1.42699">
        <ele>212.8</ele>
        <time>2021-11-21T13:07:13Z</time>
      </trkpt>
      <trkpt lat="44.57754" lon="1.42692">
        <ele>214</ele>
        <time>2021-11-21T13:07:17Z</time>
      </trkpt>
      <trkpt lat="44.57753" lon="1.42686">
        <ele>215.2</ele>
        <time>2021-11-21T13:07:21Z</time>
      </trkpt>
      <trkpt lat="44.57751" lon="1.42679">
        <ele>216.2</ele>
        <time>2021-11-21T13:07:25Z</time>
      </trkpt>
      <trkpt lat="44.57749" lon="1.42673">
        <ele>217.3</ele>
        <time>2021-11-21T13:07:29Z</time>
      </trkpt>
      <trkpt lat="44.57747" lon="1.42667">
        <ele>217.8</ele>
        <time>2021-11-21T13:07:33Z</time>
      </trkpt>
      <trkpt lat="44.57745" lon="1.4266">
        <ele>218.2</ele>
        <time>2021-11-21T13:07:38Z</time>
      </trkpt>
      <trkpt lat="44.57742" lon="1.42654">
        <ele>218.2</ele>
        <time>2021-11-21T13:07:43Z</time>
      </trkpt>
      <trkpt lat="44.57739" lon="1.42648">
        <ele>217.9</ele>
        <time>2021-11-21T13:07:48Z</time>
      </trkpt>
      <trkpt lat="44.57736" lon="1.42642">
        <ele>217.2</ele>
        <time>2021-11-21T13:07:53Z</time>
      </trkpt>
      <trkpt lat="44.57733" lon="1.42637">
        <ele>216.8</ele>
        <time>2021-11-21T13:07:58Z</time>
      </trkpt>
      <trkpt lat="44.5773" lon="1.4263">
        <ele>216.2</ele>
        <time>2021-11-21T13:08:03Z</time>
      </trkpt>
      <trkpt lat="44.57728" lon="1.42624">
        <ele>215.5</ele>
        <time>2021-11-21T13:08:08Z</time>
      </trkpt>
      <trkpt lat="44.57725" lon="1.42617">
        <ele>215</ele>
        <time>2021-11-21T13:08:13Z</time>
      </trkpt>
      <trkpt lat="44.57722" lon="1.42612">
        <ele>214.2</ele>
        <time>2021-11-21T13:08:18Z</time>
      </trkpt>
      <trkpt lat="44.57719" lon="1.42606">
        <ele>213.8</ele>
        <time>2021-11-21T13:08:23Z</time>
      </trkpt>
      <trkpt lat="44.57715" lon="1.426">
        <ele>213.6</ele>
        <time>2021-11-21T13:08:28Z</time>
      </trkpt>
      <trkpt lat="44.57712" lon="1.42594">
        <ele>213.6</ele>
        <time>2021-11-21T13:08:33Z</time>
      </trkpt>
      <trkpt lat="44.57709" lon="1.42588">
        <ele>213.8</ele>
        <time>2021-11-21T13:08:38Z</time>
      </trkpt>
      <trkpt lat="44.57706" lon="1.42584">
        <ele>213.7</ele>
        <time>2021-11-21T13:08:42Z</time>
      </trkpt>
      <trkpt lat="44.57702" lon="1.42578">
        <ele>214</ele>
        <time>2021-11-21T13:08:47Z</time>
      </trkpt>
      <trkpt lat="44.57698" lon="1.42573">
        <ele>214.6</ele>
        <time>2021-11-21T13:08:52Z</time>
      </trkpt>
      <trkpt lat="44.57695" lon="1.42568">
        <ele>214.7</ele>
        <time>2021-11-21T13:08:57Z</time>
      </trkpt>
      <trkpt lat="44.57691" lon="1.42563">
        <ele>214.8</ele>
        <time>2021-11-21T13:09:02Z</time>
      </trkpt>
      <trkpt lat="44.57688" lon="1.42557">
        <ele>214.9</ele>
        <time>2021-11-21T13:09:07Z</time>
      </trkpt>
      <trkpt lat="44.57685" lon="1.42552">
        <ele>215.3</ele>
        <time>2021-11-21T13:09:11Z</time>
      </trkpt>
      <trkpt lat="44.57682" lon="1.42546">
        <ele>215.7</ele>
        <time>2021-11-21T13:09:16Z</time>
      </trkpt>
      <trkpt lat="44.57679" lon="1.42539">
        <ele>215.8</ele>
        <time>2021-11-21T13:09:21Z</time>
      </trkpt>
      <trkpt lat="44.57676" lon="1.42533">
        <ele>216.1</ele>
        <time>2021-11-21T13:09:26Z</time>
      </trkpt>
      <trkpt lat="44.57673" lon="1.42527">
        <ele>216.4</ele>
        <time>2021-11-21T13:09:31Z</time>
      </trkpt>
      <trkpt lat="44.57671" lon="1.42521">
        <ele>216.5</ele>
        <time>2021-11-21T13:09:36Z</time>
      </trkpt>
      <trkpt lat="44.57669" lon="1.42515">
        <ele>216.9</ele>
        <time>2021-11-21T13:09:40Z</time>
      </trkpt>
      <trkpt lat="44.57667" lon="1.42509">
        <ele>217.2</ele>
        <time>2021-11-21T13:09:44Z</time>
      </trkpt>
      <trkpt lat="44.57665" lon="1.42503">
        <ele>217.2</ele>
        <time>2021-11-21T13:09:48Z</time>
      </trkpt>
      <trkpt lat="44.57662" lon="1.42496">
        <ele>217.5</ele>
        <time>2021-11-21T13:09:53Z</time>
      </trkpt>
      <trkpt lat="44.5766" lon="1.42491">
        <ele>217.9</ele>
        <time>2021-11-21T13:09:57Z</time>
      </trkpt>
      <trkpt lat="44.57658" lon="1.42485">
        <ele>218.1</ele>
        <time>2021-11-21T13:10:01Z</time>
      </trkpt>
      <trkpt lat="44.57656" lon="1.42479">
        <ele>218.4</ele>
        <time>2021-11-21T13:10:05Z</time>
      </trkpt>
      <trkpt lat="44.57654" lon="1.42473">
        <ele>217.8</ele>
        <time>2021-11-21T13:10:10Z</time>
      </trkpt>
      <trkpt lat="44.57652" lon="1.42468">
        <ele>216.7</ele>
        <time>2021-11-21T13:10:15Z</time>
      </trkpt>
      <trkpt lat="44.57647" lon="1.42463">
        <ele>215.3</ele>
        <time>2021-11-21T13:10:20Z</time>
      </trkpt>
      <trkpt lat="44.57644" lon="1.4246">
        <ele>214.3</ele>
        <time>2021-11-21T13:10:24Z</time>
      </trkpt>
      <trkpt lat="44.5764" lon="1.42456">
        <ele>213.1</ele>
        <time>2021-11-21T13:10:28Z</time>
      </trkpt>
      <trkpt lat="44.57636" lon="1.42453">
        <ele>211.8</ele>
        <time>2021-11-21T13:10:32Z</time>
      </trkpt>
      <trkpt lat="44.57632" lon="1.42448">
        <ele>210.4</ele>
        <time>2021-11-21T13:10:37Z</time>
      </trkpt>
      <trkpt lat="44.57628" lon="1.42444">
        <ele>210</ele>
        <time>2021-11-21T13:10:42Z</time>
      </trkpt>
      <trkpt lat="44.57624" lon="1.42441">
        <ele>210.4</ele>
        <time>2021-11-21T13:10:46Z</time>
      </trkpt>
      <trkpt lat="44.5762" lon="1.42436">
        <ele>211.7</ele>
        <time>2021-11-21T13:10:51Z</time>
      </trkpt>
      <trkpt lat="44.57617" lon="1.42431">
        <ele>212.5</ele>
        <time>2021-11-21T13:10:56Z</time>
      </trkpt>
      <trkpt lat="44.57614" lon="1.42426">
        <ele>213.1</ele>
        <time>2021-11-21T13:11:01Z</time>
      </trkpt>
      <trkpt lat="44.5761" lon="1.42421">
        <ele>213.6</ele>
        <time>2021-11-21T13:11:06Z</time>
      </trkpt>
      <trkpt lat="44.57607" lon="1.42416">
        <ele>214.1</ele>
        <time>2021-11-21T13:11:11Z</time>
      </trkpt>
      <trkpt lat="44.57604" lon="1.4241">
        <ele>215.2</ele>
        <time>2021-11-21T13:11:16Z</time>
      </trkpt>
      <trkpt lat="44.576" lon="1.42409">
        <ele>216.2</ele>
        <time>2021-11-21T13:11:21Z</time>
      </trkpt>
      <trkpt lat="44.57597" lon="1.42403">
        <ele>216.6</ele>
        <time>2021-11-21T13:11:26Z</time>
      </trkpt>
      <trkpt lat="44.57594" lon="1.42396">
        <ele>216.9</ele>
        <time>2021-11-21T13:11:31Z</time>
      </trkpt>
      <trkpt lat="44.5759" lon="1.42391">
        <ele>217.3</ele>
        <time>2021-11-21T13:11:36Z</time>
      </trkpt>
      <trkpt lat="44.57587" lon="1.42386">
        <ele>217.5</ele>
        <time>2021-11-21T13:11:41Z</time>
      </trkpt>
      <trkpt lat="44.57584" lon="1.42381">
        <ele>217.6</ele>
        <time>2021-11-21T13:11:46Z</time>
      </trkpt>
      <trkpt lat="44.5758" lon="1.42376">
        <ele>217.5</ele>
        <time>2021-11-21T13:11:51Z</time>
      </trkpt>
      <trkpt lat="44.57577" lon="1.42371">
        <ele>217.1</ele>
        <time>2021-11-21T13:11:56Z</time>
      </trkpt>
      <trkpt lat="44.57573" lon="1.42366">
        <ele>217</ele>
        <time>2021-11-21T13:12:01Z</time>
      </trkpt>
      <trkpt lat="44.5757" lon="1.42361">
        <ele>216.8</ele>
        <time>2021-11-21T13:12:06Z</time>
      </trkpt>
      <trkpt lat="44.57567" lon="1.42356">
        <ele>216.3</ele>
        <time>2021-11-21T13:12:11Z</time>
      </trkpt>
      <trkpt lat="44.57563" lon="1.4235">
        <ele>216</ele>
        <time>2021-11-21T13:12:16Z</time>
      </trkpt>
      <trkpt lat="44.5756" lon="1.42344">
        <ele>215.7</ele>
        <time>2021-11-21T13:12:21Z</time>
      </trkpt>
      <trkpt lat="44.57557" lon="1.42338">
        <ele>216.1</ele>
        <time>2021-11-21T13:12:26Z</time>
      </trkpt>
      <trkpt lat="44.57554" lon="1.42333">
        <ele>216.4</ele>
        <time>2021-11-21T13:12:31Z</time>
      </trkpt>
      <trkpt lat="44.57551" lon="1.42328">
        <ele>217</ele>
        <time>2021-11-21T13:12:36Z</time>
      </trkpt>
      <trkpt lat="44.57547" lon="1.42322">
        <ele>217.2</ele>
        <time>2021-11-21T13:12:41Z</time>
      </trkpt>
      <trkpt lat="44.57544" lon="1.42316">
        <ele>217.6</ele>
        <time>2021-11-21T13:12:46Z</time>
      </trkpt>
      <trkpt lat="44.57541" lon="1.42311">
        <ele>217.5</ele>
        <time>2021-11-21T13:12:51Z</time>
      </trkpt>
      <trkpt lat="44.57538" lon="1.42305">
        <ele>217.1</ele>
        <time>2021-11-21T13:12:56Z</time>
      </trkpt>
      <trkpt lat="44.57534" lon="1.423">
        <ele>216.9</ele>
        <time>2021-11-21T13:13:01Z</time>
      </trkpt>
      <trkpt lat="44.57531" lon="1.42295">
        <ele>216.9</ele>
        <time>2021-11-21T13:13:05Z</time>
      </trkpt>
      <trkpt lat="44.57527" lon="1.4229">
        <ele>216.7</ele>
        <time>2021-11-21T13:13:10Z</time>
      </trkpt>
      <trkpt lat="44.57523" lon="1.42284">
        <ele>216.7</ele>
        <time>2021-11-21T13:13:15Z</time>
      </trkpt>
      <trkpt lat="44.5752" lon="1.42278">
        <ele>216.8</ele>
        <time>2021-11-21T13:13:20Z</time>
      </trkpt>
      <trkpt lat="44.57517" lon="1.42272">
        <ele>216.6</ele>
        <time>2021-11-21T13:13:25Z</time>
      </trkpt>
      <trkpt lat="44.57514" lon="1.42266">
        <ele>216.4</ele>
        <time>2021-11-21T13:13:30Z</time>
      </trkpt>
      <trkpt lat="44.57512" lon="1.42261">
        <ele>219.1</ele>
        <time>2021-11-21T13:13:33Z</time>
      </trkpt>
      <trkpt lat="44.57509" lon="1.42255">
        <ele>220.8</ele>
        <time>2021-11-21T13:13:36Z</time>
      </trkpt>
      <trkpt lat="44.57506" lon="1.4225">
        <ele>222</ele>
        <time>2021-11-21T13:13:41Z</time>
      </trkpt>
      <trkpt lat="44.57503" lon="1.42244">
        <ele>221.6</ele>
        <time>2021-11-21T13:13:46Z</time>
      </trkpt>
      <trkpt lat="44.57501" lon="1.42238">
        <ele>220.8</ele>
        <time>2021-11-21T13:13:51Z</time>
      </trkpt>
      <trkpt lat="44.57498" lon="1.42232">
        <ele>220.2</ele>
        <time>2021-11-21T13:13:56Z</time>
      </trkpt>
      <trkpt lat="44.57495" lon="1.42226">
        <ele>220.1</ele>
        <time>2021-11-21T13:14:01Z</time>
      </trkpt>
      <trkpt lat="44.57492" lon="1.4222">
        <ele>220.1</ele>
        <time>2021-11-21T13:14:06Z</time>
      </trkpt>
      <trkpt lat="44.57489" lon="1.42214">
        <ele>220.1</ele>
        <time>2021-11-21T13:14:10Z</time>
      </trkpt>
      <trkpt lat="44.57486" lon="1.42209">
        <ele>220.1</ele>
        <time>2021-11-21T13:14:14Z</time>
      </trkpt>
      <trkpt lat="44.57483" lon="1.42203">
        <ele>219.8</ele>
        <time>2021-11-21T13:14:19Z</time>
      </trkpt>
      <trkpt lat="44.5748" lon="1.42198">
        <ele>219.3</ele>
        <time>2021-11-21T13:14:23Z</time>
      </trkpt>
      <trkpt lat="44.57478" lon="1.42192">
        <ele>218.6</ele>
        <time>2021-11-21T13:14:27Z</time>
      </trkpt>
      <trkpt lat="44.57475" lon="1.42186">
        <ele>218.2</ele>
        <time>2021-11-21T13:14:31Z</time>
      </trkpt>
      <trkpt lat="44.57473" lon="1.4218">
        <ele>218.3</ele>
        <time>2021-11-21T13:14:35Z</time>
      </trkpt>
      <trkpt lat="44.5747" lon="1.42175">
        <ele>218</ele>
        <time>2021-11-21T13:14:39Z</time>
      </trkpt>
      <trkpt lat="44.57467" lon="1.42169">
        <ele>217.8</ele>
        <time>2021-11-21T13:14:44Z</time>
      </trkpt>
      <trkpt lat="44.57465" lon="1.42163">
        <ele>217.8</ele>
        <time>2021-11-21T13:14:48Z</time>
      </trkpt>
      <trkpt lat="44.57462" lon="1.42157">
        <ele>218</ele>
        <time>2021-11-21T13:14:52Z</time>
      </trkpt>
      <trkpt lat="44.57459" lon="1.42151">
        <ele>217.8</ele>
        <time>2021-11-21T13:14:57Z</time>
      </trkpt>
      <trkpt lat="44.57456" lon="1.42145">
        <ele>217.6</ele>
        <time>2021-11-21T13:15:01Z</time>
      </trkpt>
      <trkpt lat="44.57453" lon="1.4214">
        <ele>217.2</ele>
        <time>2021-11-21T13:15:05Z</time>
      </trkpt>
      <trkpt lat="44.5745" lon="1.42135">
        <ele>216.9</ele>
        <time>2021-11-21T13:15:09Z</time>
      </trkpt>
      <trkpt lat="44.57448" lon="1.42129">
        <ele>216.4</ele>
        <time>2021-11-21T13:15:13Z</time>
      </trkpt>
      <trkpt lat="44.57444" lon="1.42124">
        <ele>216</ele>
        <time>2021-11-21T13:15:18Z</time>
      </trkpt>
      <trkpt lat="44.57441" lon="1.42119">
        <ele>215.9</ele>
        <time>2021-11-21T13:15:22Z</time>
      </trkpt>
      <trkpt lat="44.57438" lon="1.42114">
        <ele>215.6</ele>
        <time>2021-11-21T13:15:26Z</time>
      </trkpt>
      <trkpt lat="44.57434" lon="1.42108">
        <ele>215.1</ele>
        <time>2021-11-21T13:15:30Z</time>
      </trkpt>
      <trkpt lat="44.57431" lon="1.42103">
        <ele>214.5</ele>
        <time>2021-11-21T13:15:34Z</time>
      </trkpt>
      <trkpt lat="44.57428" lon="1.42098">
        <ele>213.7</ele>
        <time>2021-11-21T13:15:38Z</time>
      </trkpt>
      <trkpt lat="44.57425" lon="1.42092">
        <ele>213</ele>
        <time>2021-11-21T13:15:42Z</time>
      </trkpt>
      <trkpt lat="44.57422" lon="1.42087">
        <ele>212.5</ele>
        <time>2021-11-21T13:15:46Z</time>
      </trkpt>
      <trkpt lat="44.57419" lon="1.42081">
        <ele>212.1</ele>
        <time>2021-11-21T13:15:51Z</time>
      </trkpt>
      <trkpt lat="44.57416" lon="1.42075">
        <ele>211.6</ele>
        <time>2021-11-21T13:15:56Z</time>
      </trkpt>
      <trkpt lat="44.57413" lon="1.42069">
        <ele>211.9</ele>
        <time>2021-11-21T13:16:01Z</time>
      </trkpt>
      <trkpt lat="44.57409" lon="1.42065">
        <ele>212.7</ele>
        <time>2021-11-21T13:16:05Z</time>
      </trkpt>
      <trkpt lat="44.57406" lon="1.4206">
        <ele>213</ele>
        <time>2021-11-21T13:16:09Z</time>
      </trkpt>
      <trkpt lat="44.57403" lon="1.42054">
        <ele>212.7</ele>
        <time>2021-11-21T13:16:14Z</time>
      </trkpt>
      <trkpt lat="44.57398" lon="1.42049">
        <ele>212.3</ele>
        <time>2021-11-21T13:16:19Z</time>
      </trkpt>
      <trkpt lat="44.57394" lon="1.42045">
        <ele>211.8</ele>
        <time>2021-11-21T13:16:24Z</time>
      </trkpt>
      <trkpt lat="44.5739" lon="1.42041">
        <ele>211.3</ele>
        <time>2021-11-21T13:16:28Z</time>
      </trkpt>
      <trkpt lat="44.57386" lon="1.42038">
        <ele>210.8</ele>
        <time>2021-11-21T13:16:32Z</time>
      </trkpt>
      <trkpt lat="44.57381" lon="1.42033">
        <ele>210.2</ele>
        <time>2021-11-21T13:16:37Z</time>
      </trkpt>
      <trkpt lat="44.57377" lon="1.42029">
        <ele>209.9</ele>
        <time>2021-11-21T13:16:42Z</time>
      </trkpt>
      <trkpt lat="44.57373" lon="1.42025">
        <ele>209.4</ele>
        <time>2021-11-21T13:16:47Z</time>
      </trkpt>
      <trkpt lat="44.57368" lon="1.42021">
        <ele>208.7</ele>
        <time>2021-11-21T13:16:52Z</time>
      </trkpt>
      <trkpt lat="44.57364" lon="1.42018">
        <ele>208.3</ele>
        <time>2021-11-21T13:16:56Z</time>
      </trkpt>
      <trkpt lat="44.5736" lon="1.42015">
        <ele>207.7</ele>
        <time>2021-11-21T13:17:00Z</time>
      </trkpt>
      <trkpt lat="44.57355" lon="1.42012">
        <ele>207.5</ele>
        <time>2021-11-21T13:17:04Z</time>
      </trkpt>
      <trkpt lat="44.57351" lon="1.4201">
        <ele>208.2</ele>
        <time>2021-11-21T13:17:08Z</time>
      </trkpt>
      <trkpt lat="44.57347" lon="1.42007">
        <ele>208.5</ele>
        <time>2021-11-21T13:17:12Z</time>
      </trkpt>
      <trkpt lat="44.57342" lon="1.42004">
        <ele>208.7</ele>
        <time>2021-11-21T13:17:17Z</time>
      </trkpt>
      <trkpt lat="44.57336" lon="1.42002">
        <ele>208.9</ele>
        <time>2021-11-21T13:17:22Z</time>
      </trkpt>
      <trkpt lat="44.57332" lon="1.41999">
        <ele>209.3</ele>
        <time>2021-11-21T13:17:26Z</time>
      </trkpt>
      <trkpt lat="44.57328" lon="1.41997">
        <ele>209.1</ele>
        <time>2021-11-21T13:17:30Z</time>
      </trkpt>
      <trkpt lat="44.57323" lon="1.41994">
        <ele>209</ele>
        <time>2021-11-21T13:17:35Z</time>
      </trkpt>
      <trkpt lat="44.57319" lon="1.41991">
        <ele>209.1</ele>
        <time>2021-11-21T13:17:39Z</time>
      </trkpt>
      <trkpt lat="44.57313" lon="1.41989">
        <ele>209.6</ele>
        <time>2021-11-21T13:17:44Z</time>
      </trkpt>
      <trkpt lat="44.57309" lon="1.41986">
        <ele>209.6</ele>
        <time>2021-11-21T13:17:48Z</time>
      </trkpt>
      <trkpt lat="44.57305" lon="1.41983">
        <ele>209.5</ele>
        <time>2021-11-21T13:17:52Z</time>
      </trkpt>
      <trkpt lat="44.57301" lon="1.4198">
        <ele>209.5</ele>
        <time>2021-11-21T13:17:57Z</time>
      </trkpt>
      <trkpt lat="44.57296" lon="1.41976">
        <ele>209.8</ele>
        <time>2021-11-21T13:18:02Z</time>
      </trkpt>
      <trkpt lat="44.57291" lon="1.41973">
        <ele>209.9</ele>
        <time>2021-11-21T13:18:07Z</time>
      </trkpt>
      <trkpt lat="44.57286" lon="1.4197">
        <ele>209.9</ele>
        <time>2021-11-21T13:18:12Z</time>
      </trkpt>
      <trkpt lat="44.57281" lon="1.41966">
        <ele>209.9</ele>
        <time>2021-11-21T13:18:17Z</time>
      </trkpt>
      <trkpt lat="44.57276" lon="1.41964">
        <ele>209.8</ele>
        <time>2021-11-21T13:18:22Z</time>
      </trkpt>
      <trkpt lat="44.57271" lon="1.41961">
        <ele>209.8</ele>
        <time>2021-11-21T13:18:27Z</time>
      </trkpt>
      <trkpt lat="44.57266" lon="1.41959">
        <ele>210.5</ele>
        <time>2021-11-21T13:18:32Z</time>
      </trkpt>
      <trkpt lat="44.57262" lon="1.41957">
        <ele>210.5</ele>
        <time>2021-11-21T13:18:36Z</time>
      </trkpt>
      <trkpt lat="44.57258" lon="1.41954">
        <ele>210</ele>
        <time>2021-11-21T13:18:40Z</time>
      </trkpt>
      <trkpt lat="44.57253" lon="1.41951">
        <ele>209.3</ele>
        <time>2021-11-21T13:18:45Z</time>
      </trkpt>
      <trkpt lat="44.57248" lon="1.41948">
        <ele>208.4</ele>
        <time>2021-11-21T13:18:50Z</time>
      </trkpt>
      <trkpt lat="44.57242" lon="1.41945">
        <ele>208</ele>
        <time>2021-11-21T13:18:55Z</time>
      </trkpt>
      <trkpt lat="44.57238" lon="1.41943">
        <ele>207.6</ele>
        <time>2021-11-21T13:19:00Z</time>
      </trkpt>
      <trkpt lat="44.57233" lon="1.4194">
        <ele>207.8</ele>
        <time>2021-11-21T13:19:05Z</time>
      </trkpt>
      <trkpt lat="44.57228" lon="1.41936">
        <ele>208</ele>
        <time>2021-11-21T13:19:10Z</time>
      </trkpt>
      <trkpt lat="44.57223" lon="1.41934">
        <ele>208.2</ele>
        <time>2021-11-21T13:19:15Z</time>
      </trkpt>
      <trkpt lat="44.57218" lon="1.41932">
        <ele>208.5</ele>
        <time>2021-11-21T13:19:20Z</time>
      </trkpt>
      <trkpt lat="44.57214" lon="1.41929">
        <ele>208</ele>
        <time>2021-11-21T13:19:25Z</time>
      </trkpt>
      <trkpt lat="44.57209" lon="1.41927">
        <ele>208.1</ele>
        <time>2021-11-21T13:19:31Z</time>
      </trkpt>
      <trkpt lat="44.57204" lon="1.41925">
        <ele>207.7</ele>
        <time>2021-11-21T13:19:36Z</time>
      </trkpt>
      <trkpt lat="44.572" lon="1.41922">
        <ele>207.6</ele>
        <time>2021-11-21T13:19:41Z</time>
      </trkpt>
      <trkpt lat="44.57195" lon="1.4192">
        <ele>207.4</ele>
        <time>2021-11-21T13:19:46Z</time>
      </trkpt>
      <trkpt lat="44.57189" lon="1.41918">
        <ele>207.1</ele>
        <time>2021-11-21T13:19:51Z</time>
      </trkpt>
      <trkpt lat="44.57184" lon="1.41916">
        <ele>207</ele>
        <time>2021-11-21T13:19:56Z</time>
      </trkpt>
      <trkpt lat="44.5718" lon="1.41914">
        <ele>207.8</ele>
        <time>2021-11-21T13:20:02Z</time>
      </trkpt>
      <trkpt lat="44.57182" lon="1.41909">
        <ele>213.2</ele>
        <time>2021-11-21T13:20:17Z</time>
      </trkpt>
      <trkpt lat="44.57177" lon="1.4191">
        <ele>213.7</ele>
        <time>2021-11-21T13:21:12Z</time>
      </trkpt>
      <trkpt lat="44.5718" lon="1.41904">
        <ele>208.3</ele>
        <time>2021-11-21T13:21:16Z</time>
      </trkpt>
      <trkpt lat="44.57174" lon="1.41906">
        <ele>213.2</ele>
        <time>2021-11-21T13:21:18Z</time>
      </trkpt>
      <trkpt lat="44.57168" lon="1.41906">
        <ele>214.6</ele>
        <time>2021-11-21T13:21:21Z</time>
      </trkpt>
      <trkpt lat="44.57163" lon="1.41905">
        <ele>214.4</ele>
        <time>2021-11-21T13:21:25Z</time>
      </trkpt>
      <trkpt lat="44.57158" lon="1.41903">
        <ele>213</ele>
        <time>2021-11-21T13:21:30Z</time>
      </trkpt>
      <trkpt lat="44.57153" lon="1.41902">
        <ele>212.4</ele>
        <time>2021-11-21T13:21:35Z</time>
      </trkpt>
      <trkpt lat="44.57148" lon="1.41899">
        <ele>211.6</ele>
        <time>2021-11-21T13:21:40Z</time>
      </trkpt>
      <trkpt lat="44.57143" lon="1.41898">
        <ele>210.5</ele>
        <time>2021-11-21T13:21:45Z</time>
      </trkpt>
      <trkpt lat="44.57138" lon="1.41897">
        <ele>209.8</ele>
        <time>2021-11-21T13:21:50Z</time>
      </trkpt>
      <trkpt lat="44.57134" lon="1.41896">
        <ele>210</ele>
        <time>2021-11-21T13:21:55Z</time>
      </trkpt>
      <trkpt lat="44.57129" lon="1.41893">
        <ele>209.8</ele>
        <time>2021-11-21T13:22:00Z</time>
      </trkpt>
      <trkpt lat="44.57124" lon="1.41892">
        <ele>209.2</ele>
        <time>2021-11-21T13:22:05Z</time>
      </trkpt>
      <trkpt lat="44.57119" lon="1.4189">
        <ele>208.7</ele>
        <time>2021-11-21T13:22:10Z</time>
      </trkpt>
      <trkpt lat="44.57114" lon="1.4189">
        <ele>207.2</ele>
        <time>2021-11-21T13:22:15Z</time>
      </trkpt>
      <trkpt lat="44.57109" lon="1.4189">
        <ele>207.2</ele>
        <time>2021-11-21T13:22:19Z</time>
      </trkpt>
      <trkpt lat="44.57104" lon="1.41889">
        <ele>207.3</ele>
        <time>2021-11-21T13:22:24Z</time>
      </trkpt>
      <trkpt lat="44.57098" lon="1.41888">
        <ele>208.1</ele>
        <time>2021-11-21T13:22:29Z</time>
      </trkpt>
      <trkpt lat="44.57093" lon="1.41888">
        <ele>209.2</ele>
        <time>2021-11-21T13:22:34Z</time>
      </trkpt>
      <trkpt lat="44.57088" lon="1.41886">
        <ele>209.1</ele>
        <time>2021-11-21T13:22:39Z</time>
      </trkpt>
      <trkpt lat="44.57083" lon="1.41885">
        <ele>208.3</ele>
        <time>2021-11-21T13:22:44Z</time>
      </trkpt>
      <trkpt lat="44.57077" lon="1.41885">
        <ele>206.2</ele>
        <time>2021-11-21T13:22:49Z</time>
      </trkpt>
      <trkpt lat="44.57073" lon="1.41885">
        <ele>205.1</ele>
        <time>2021-11-21T13:22:53Z</time>
      </trkpt>
      <trkpt lat="44.57067" lon="1.41886">
        <ele>204</ele>
        <time>2021-11-21T13:22:58Z</time>
      </trkpt>
      <trkpt lat="44.57062" lon="1.41886">
        <ele>202.4</ele>
        <time>2021-11-21T13:23:03Z</time>
      </trkpt>
      <trkpt lat="44.57056" lon="1.41887">
        <ele>201.7</ele>
        <time>2021-11-21T13:23:08Z</time>
      </trkpt>
      <trkpt lat="44.57052" lon="1.41889">
        <ele>202.4</ele>
        <time>2021-11-21T13:23:12Z</time>
      </trkpt>
      <trkpt lat="44.57046" lon="1.4189">
        <ele>201.7</ele>
        <time>2021-11-21T13:23:17Z</time>
      </trkpt>
      <trkpt lat="44.57041" lon="1.41893">
        <ele>199.4</ele>
        <time>2021-11-21T13:23:22Z</time>
      </trkpt>
      <trkpt lat="44.57036" lon="1.41894">
        <ele>197.4</ele>
        <time>2021-11-21T13:23:27Z</time>
      </trkpt>
      <trkpt lat="44.57031" lon="1.41895">
        <ele>196.6</ele>
        <time>2021-11-21T13:23:32Z</time>
      </trkpt>
      <trkpt lat="44.57026" lon="1.41897">
        <ele>195.5</ele>
        <time>2021-11-21T13:23:37Z</time>
      </trkpt>
      <trkpt lat="44.5702" lon="1.41898">
        <ele>194.6</ele>
        <time>2021-11-21T13:23:42Z</time>
      </trkpt>
      <trkpt lat="44.57016" lon="1.41898">
        <ele>194.2</ele>
        <time>2021-11-21T13:23:46Z</time>
      </trkpt>
      <trkpt lat="44.5701" lon="1.41897">
        <ele>193.7</ele>
        <time>2021-11-21T13:23:51Z</time>
      </trkpt>
      <trkpt lat="44.57006" lon="1.41896">
        <ele>193.2</ele>
        <time>2021-11-21T13:23:55Z</time>
      </trkpt>
      <trkpt lat="44.57001" lon="1.41892">
        <ele>192.5</ele>
        <time>2021-11-21T13:24:00Z</time>
      </trkpt>
      <trkpt lat="44.56997" lon="1.41891">
        <ele>192.5</ele>
        <time>2021-11-21T13:24:04Z</time>
      </trkpt>
      <trkpt lat="44.56991" lon="1.41888">
        <ele>192.4</ele>
        <time>2021-11-21T13:24:09Z</time>
      </trkpt>
      <trkpt lat="44.56986" lon="1.41887">
        <ele>193.3</ele>
        <time>2021-11-21T13:24:14Z</time>
      </trkpt>
      <trkpt lat="44.56982" lon="1.4189">
        <ele>195.1</ele>
        <time>2021-11-21T13:24:19Z</time>
      </trkpt>
      <trkpt lat="44.56978" lon="1.41895">
        <ele>198.4</ele>
        <time>2021-11-21T13:24:24Z</time>
      </trkpt>
      <trkpt lat="44.56974" lon="1.419">
        <ele>201.4</ele>
        <time>2021-11-21T13:24:29Z</time>
      </trkpt>
      <trkpt lat="44.5697" lon="1.41905">
        <ele>204.3</ele>
        <time>2021-11-21T13:24:33Z</time>
      </trkpt>
      <trkpt lat="44.56967" lon="1.4191">
        <ele>206.8</ele>
        <time>2021-11-21T13:24:38Z</time>
      </trkpt>
      <trkpt lat="44.56963" lon="1.41916">
        <ele>208.1</ele>
        <time>2021-11-21T13:24:43Z</time>
      </trkpt>
      <trkpt lat="44.56959" lon="1.4192">
        <ele>208.6</ele>
        <time>2021-11-21T13:24:47Z</time>
      </trkpt>
      <trkpt lat="44.56955" lon="1.41924">
        <ele>208.9</ele>
        <time>2021-11-21T13:24:52Z</time>
      </trkpt>
      <trkpt lat="44.56951" lon="1.41928">
        <ele>209.6</ele>
        <time>2021-11-21T13:24:57Z</time>
      </trkpt>
      <trkpt lat="44.56947" lon="1.41933">
        <ele>210.2</ele>
        <time>2021-11-21T13:25:02Z</time>
      </trkpt>
      <trkpt lat="44.56943" lon="1.41938">
        <ele>211</ele>
        <time>2021-11-21T13:25:07Z</time>
      </trkpt>
      <trkpt lat="44.56939" lon="1.41943">
        <ele>211.5</ele>
        <time>2021-11-21T13:25:12Z</time>
      </trkpt>
      <trkpt lat="44.56935" lon="1.41949">
        <ele>212.2</ele>
        <time>2021-11-21T13:25:16Z</time>
      </trkpt>
      <trkpt lat="44.56931" lon="1.41953">
        <ele>212.7</ele>
        <time>2021-11-21T13:25:20Z</time>
      </trkpt>
      <trkpt lat="44.56927" lon="1.41957">
        <ele>212.5</ele>
        <time>2021-11-21T13:25:24Z</time>
      </trkpt>
      <trkpt lat="44.56923" lon="1.41961">
        <ele>212.4</ele>
        <time>2021-11-21T13:25:28Z</time>
      </trkpt>
      <trkpt lat="44.56919" lon="1.41966">
        <ele>212.1</ele>
        <time>2021-11-21T13:25:32Z</time>
      </trkpt>
      <trkpt lat="44.56914" lon="1.41971">
        <ele>212</ele>
        <time>2021-11-21T13:25:37Z</time>
      </trkpt>
      <trkpt lat="44.5691" lon="1.41975">
        <ele>212.9</ele>
        <time>2021-11-21T13:25:42Z</time>
      </trkpt>
      <trkpt lat="44.56906" lon="1.41979">
        <ele>213.3</ele>
        <time>2021-11-21T13:25:47Z</time>
      </trkpt>
      <trkpt lat="44.56901" lon="1.41983">
        <ele>212.9</ele>
        <time>2021-11-21T13:25:52Z</time>
      </trkpt>
      <trkpt lat="44.56897" lon="1.41988">
        <ele>212.5</ele>
        <time>2021-11-21T13:25:56Z</time>
      </trkpt>
      <trkpt lat="44.56894" lon="1.41994">
        <ele>213</ele>
        <time>2021-11-21T13:26:01Z</time>
      </trkpt>
      <trkpt lat="44.56893" lon="1.42">
        <ele>213.3</ele>
        <time>2021-11-21T13:26:06Z</time>
      </trkpt>
      <trkpt lat="44.56893" lon="1.42007">
        <ele>213.8</ele>
        <time>2021-11-21T13:26:11Z</time>
      </trkpt>
      <trkpt lat="44.56892" lon="1.42015">
        <ele>214</ele>
        <time>2021-11-21T13:26:16Z</time>
      </trkpt>
      <trkpt lat="44.56891" lon="1.42022">
        <ele>214.9</ele>
        <time>2021-11-21T13:26:21Z</time>
      </trkpt>
      <trkpt lat="44.5689" lon="1.42028">
        <ele>215.7</ele>
        <time>2021-11-21T13:26:26Z</time>
      </trkpt>
      <trkpt lat="44.56889" lon="1.42035">
        <ele>215.4</ele>
        <time>2021-11-21T13:26:31Z</time>
      </trkpt>
      <trkpt lat="44.56887" lon="1.42042">
        <ele>215.1</ele>
        <time>2021-11-21T13:26:36Z</time>
      </trkpt>
      <trkpt lat="44.56885" lon="1.42048">
        <ele>215.1</ele>
        <time>2021-11-21T13:26:40Z</time>
      </trkpt>
      <trkpt lat="44.56883" lon="1.42054">
        <ele>215.3</ele>
        <time>2021-11-21T13:26:45Z</time>
      </trkpt>
      <trkpt lat="44.56881" lon="1.42061">
        <ele>215.6</ele>
        <time>2021-11-21T13:26:50Z</time>
      </trkpt>
      <trkpt lat="44.56879" lon="1.42067">
        <ele>216.2</ele>
        <time>2021-11-21T13:26:55Z</time>
      </trkpt>
      <trkpt lat="44.56875" lon="1.42073">
        <ele>216.6</ele>
        <time>2021-11-21T13:27:00Z</time>
      </trkpt>
      <trkpt lat="44.56872" lon="1.42079">
        <ele>216.5</ele>
        <time>2021-11-21T13:27:05Z</time>
      </trkpt>
      <trkpt lat="44.56868" lon="1.42084">
        <ele>216</ele>
        <time>2021-11-21T13:27:10Z</time>
      </trkpt>
      <trkpt lat="44.56865" lon="1.42089">
        <ele>215.1</ele>
        <time>2021-11-21T13:27:14Z</time>
      </trkpt>
      <trkpt lat="44.56861" lon="1.42094">
        <ele>214.8</ele>
        <time>2021-11-21T13:27:18Z</time>
      </trkpt>
      <trkpt lat="44.56858" lon="1.421">
        <ele>215.1</ele>
        <time>2021-11-21T13:27:22Z</time>
      </trkpt>
      <trkpt lat="44.56855" lon="1.42106">
        <ele>215.4</ele>
        <time>2021-11-21T13:27:27Z</time>
      </trkpt>
      <trkpt lat="44.56853" lon="1.42111">
        <ele>216</ele>
        <time>2021-11-21T13:27:31Z</time>
      </trkpt>
      <trkpt lat="44.5685" lon="1.42118">
        <ele>216.8</ele>
        <time>2021-11-21T13:27:36Z</time>
      </trkpt>
      <trkpt lat="44.56847" lon="1.42123">
        <ele>217.5</ele>
        <time>2021-11-21T13:27:40Z</time>
      </trkpt>
      <trkpt lat="44.56844" lon="1.42128">
        <ele>218</ele>
        <time>2021-11-21T13:27:44Z</time>
      </trkpt>
      <trkpt lat="44.5684" lon="1.42134">
        <ele>219.2</ele>
        <time>2021-11-21T13:27:49Z</time>
      </trkpt>
      <trkpt lat="44.56837" lon="1.4214">
        <ele>220</ele>
        <time>2021-11-21T13:27:53Z</time>
      </trkpt>
      <trkpt lat="44.56834" lon="1.42144">
        <ele>221</ele>
        <time>2021-11-21T13:27:57Z</time>
      </trkpt>
      <trkpt lat="44.5683" lon="1.42149">
        <ele>221.1</ele>
        <time>2021-11-21T13:28:01Z</time>
      </trkpt>
      <trkpt lat="44.56826" lon="1.42153">
        <ele>221.3</ele>
        <time>2021-11-21T13:28:05Z</time>
      </trkpt>
      <trkpt lat="44.56822" lon="1.42157">
        <ele>221.2</ele>
        <time>2021-11-21T13:28:10Z</time>
      </trkpt>
      <trkpt lat="44.56819" lon="1.42162">
        <ele>221.2</ele>
        <time>2021-11-21T13:28:15Z</time>
      </trkpt>
      <trkpt lat="44.56816" lon="1.42168">
        <ele>221.2</ele>
        <time>2021-11-21T13:28:20Z</time>
      </trkpt>
      <trkpt lat="44.56812" lon="1.42173">
        <ele>221</ele>
        <time>2021-11-21T13:28:25Z</time>
      </trkpt>
      <trkpt lat="44.56808" lon="1.42177">
        <ele>221.7</ele>
        <time>2021-11-21T13:28:29Z</time>
      </trkpt>
      <trkpt lat="44.56804" lon="1.42182">
        <ele>221.3</ele>
        <time>2021-11-21T13:28:34Z</time>
      </trkpt>
      <trkpt lat="44.568" lon="1.42186">
        <ele>220.8</ele>
        <time>2021-11-21T13:28:39Z</time>
      </trkpt>
      <trkpt lat="44.56796" lon="1.42191">
        <ele>220.1</ele>
        <time>2021-11-21T13:28:44Z</time>
      </trkpt>
      <trkpt lat="44.56793" lon="1.42196">
        <ele>219.4</ele>
        <time>2021-11-21T13:28:48Z</time>
      </trkpt>
      <trkpt lat="44.5679" lon="1.42201">
        <ele>218.7</ele>
        <time>2021-11-21T13:28:52Z</time>
      </trkpt>
      <trkpt lat="44.56786" lon="1.42207">
        <ele>218.6</ele>
        <time>2021-11-21T13:28:56Z</time>
      </trkpt>
      <trkpt lat="44.56783" lon="1.42213">
        <ele>218.8</ele>
        <time>2021-11-21T13:29:00Z</time>
      </trkpt>
      <trkpt lat="44.5678" lon="1.42217">
        <ele>219.2</ele>
        <time>2021-11-21T13:29:05Z</time>
      </trkpt>
      <trkpt lat="44.56775" lon="1.42221">
        <ele>219.6</ele>
        <time>2021-11-21T13:29:11Z</time>
      </trkpt>
      <trkpt lat="44.5677" lon="1.42223">
        <ele>220.4</ele>
        <time>2021-11-21T13:29:16Z</time>
      </trkpt>
      <trkpt lat="44.56768" lon="1.42229">
        <ele>222.7</ele>
        <time>2021-11-21T13:29:22Z</time>
      </trkpt>
      <trkpt lat="44.56769" lon="1.42236">
        <ele>230.9</ele>
        <time>2021-11-21T13:34:53Z</time>
      </trkpt>
      <trkpt lat="44.56773" lon="1.4224">
        <ele>231</ele>
        <time>2021-11-21T13:34:58Z</time>
      </trkpt>
      <trkpt lat="44.56778" lon="1.42243">
        <ele>232.3</ele>
        <time>2021-11-21T13:35:03Z</time>
      </trkpt>
      <trkpt lat="44.56783" lon="1.42246">
        <ele>233.1</ele>
        <time>2021-11-21T13:35:08Z</time>
      </trkpt>
      <trkpt lat="44.56787" lon="1.42248">
        <ele>233.4</ele>
        <time>2021-11-21T13:35:13Z</time>
      </trkpt>
      <trkpt lat="44.56792" lon="1.42248">
        <ele>233.8</ele>
        <time>2021-11-21T13:35:18Z</time>
      </trkpt>
      <trkpt lat="44.56797" lon="1.42249">
        <ele>233.5</ele>
        <time>2021-11-21T13:35:24Z</time>
      </trkpt>
      <trkpt lat="44.56802" lon="1.4225">
        <ele>233.4</ele>
        <time>2021-11-21T13:35:29Z</time>
      </trkpt>
      <trkpt lat="44.56806" lon="1.42252">
        <ele>232.6</ele>
        <time>2021-11-21T13:35:35Z</time>
      </trkpt>
      <trkpt lat="44.56811" lon="1.42254">
        <ele>232.2</ele>
        <time>2021-11-21T13:35:40Z</time>
      </trkpt>
      <trkpt lat="44.56816" lon="1.42256">
        <ele>231.7</ele>
        <time>2021-11-21T13:35:44Z</time>
      </trkpt>
      <trkpt lat="44.56821" lon="1.42258">
        <ele>231.4</ele>
        <time>2021-11-21T13:35:49Z</time>
      </trkpt>
      <trkpt lat="44.56826" lon="1.42262">
        <ele>230.3</ele>
        <time>2021-11-21T13:35:54Z</time>
      </trkpt>
      <trkpt lat="44.56829" lon="1.42267">
        <ele>229.6</ele>
        <time>2021-11-21T13:35:58Z</time>
      </trkpt>
      <trkpt lat="44.56832" lon="1.42273">
        <ele>228.7</ele>
        <time>2021-11-21T13:36:03Z</time>
      </trkpt>
      <trkpt lat="44.56834" lon="1.42278">
        <ele>227.7</ele>
        <time>2021-11-21T13:36:08Z</time>
      </trkpt>
      <trkpt lat="44.56835" lon="1.42285">
        <ele>226.1</ele>
        <time>2021-11-21T13:36:14Z</time>
      </trkpt>
      <trkpt lat="44.56836" lon="1.42292">
        <ele>225.1</ele>
        <time>2021-11-21T13:36:20Z</time>
      </trkpt>
      <trkpt lat="44.56837" lon="1.42299">
        <ele>224.1</ele>
        <time>2021-11-21T13:36:26Z</time>
      </trkpt>
      <trkpt lat="44.56838" lon="1.42306">
        <ele>223.6</ele>
        <time>2021-11-21T13:36:31Z</time>
      </trkpt>
      <trkpt lat="44.56839" lon="1.42314">
        <ele>223.6</ele>
        <time>2021-11-21T13:36:36Z</time>
      </trkpt>
      <trkpt lat="44.5684" lon="1.42321">
        <ele>223.9</ele>
        <time>2021-11-21T13:36:41Z</time>
      </trkpt>
      <trkpt lat="44.56841" lon="1.42327">
        <ele>224.4</ele>
        <time>2021-11-21T13:36:45Z</time>
      </trkpt>
      <trkpt lat="44.56842" lon="1.42334">
        <ele>225</ele>
        <time>2021-11-21T13:36:49Z</time>
      </trkpt>
      <trkpt lat="44.56844" lon="1.4234">
        <ele>225.8</ele>
        <time>2021-11-21T13:36:53Z</time>
      </trkpt>
      <trkpt lat="44.56845" lon="1.42346">
        <ele>228.1</ele>
        <time>2021-11-21T13:36:57Z</time>
      </trkpt>
      <trkpt lat="44.56847" lon="1.42353">
        <ele>229.8</ele>
        <time>2021-11-21T13:37:01Z</time>
      </trkpt>
      <trkpt lat="44.56849" lon="1.42359">
        <ele>231.1</ele>
        <time>2021-11-21T13:37:05Z</time>
      </trkpt>
      <trkpt lat="44.56852" lon="1.42365">
        <ele>233.5</ele>
        <time>2021-11-21T13:37:09Z</time>
      </trkpt>
      <trkpt lat="44.56855" lon="1.42372">
        <ele>235.9</ele>
        <time>2021-11-21T13:37:13Z</time>
      </trkpt>
      <trkpt lat="44.56857" lon="1.42378">
        <ele>237</ele>
        <time>2021-11-21T13:37:17Z</time>
      </trkpt>
      <trkpt lat="44.5686" lon="1.42385">
        <ele>237</ele>
        <time>2021-11-21T13:37:22Z</time>
      </trkpt>
      <trkpt lat="44.56861" lon="1.42392">
        <ele>236.8</ele>
        <time>2021-11-21T13:37:27Z</time>
      </trkpt>
      <trkpt lat="44.56861" lon="1.42399">
        <ele>234</ele>
        <time>2021-11-21T13:37:32Z</time>
      </trkpt>
      <trkpt lat="44.56864" lon="1.42406">
        <ele>232.6</ele>
        <time>2021-11-21T13:37:37Z</time>
      </trkpt>
      <trkpt lat="44.56866" lon="1.42412">
        <ele>231.1</ele>
        <time>2021-11-21T13:37:42Z</time>
      </trkpt>
      <trkpt lat="44.56867" lon="1.42419">
        <ele>230</ele>
        <time>2021-11-21T13:37:47Z</time>
      </trkpt>
      <trkpt lat="44.56869" lon="1.42425">
        <ele>229.4</ele>
        <time>2021-11-21T13:37:51Z</time>
      </trkpt>
      <trkpt lat="44.5687" lon="1.42432">
        <ele>228.8</ele>
        <time>2021-11-21T13:37:56Z</time>
      </trkpt>
      <trkpt lat="44.56873" lon="1.42438">
        <ele>229.3</ele>
        <time>2021-11-21T13:38:01Z</time>
      </trkpt>
      <trkpt lat="44.56873" lon="1.42444">
        <ele>231</ele>
        <time>2021-11-21T13:38:06Z</time>
      </trkpt>
      <trkpt lat="44.56875" lon="1.42451">
        <ele>231.5</ele>
        <time>2021-11-21T13:38:29Z</time>
      </trkpt>
      <trkpt lat="44.56877" lon="1.42457">
        <ele>229</ele>
        <time>2021-11-21T13:38:36Z</time>
      </trkpt>
      <trkpt lat="44.5688" lon="1.42463">
        <ele>228.9</ele>
        <time>2021-11-21T13:38:41Z</time>
      </trkpt>
      <trkpt lat="44.56883" lon="1.42468">
        <ele>230.3</ele>
        <time>2021-11-21T13:38:45Z</time>
      </trkpt>
      <trkpt lat="44.56885" lon="1.42474">
        <ele>232.3</ele>
        <time>2021-11-21T13:38:50Z</time>
      </trkpt>
      <trkpt lat="44.56887" lon="1.42481">
        <ele>233.2</ele>
        <time>2021-11-21T13:38:56Z</time>
      </trkpt>
      <trkpt lat="44.5689" lon="1.42488">
        <ele>232</ele>
        <time>2021-11-21T13:39:02Z</time>
      </trkpt>
      <trkpt lat="44.56892" lon="1.42495">
        <ele>230.6</ele>
        <time>2021-11-21T13:39:08Z</time>
      </trkpt>
      <trkpt lat="44.56893" lon="1.42501">
        <ele>229.1</ele>
        <time>2021-11-21T13:39:14Z</time>
      </trkpt>
      <trkpt lat="44.56894" lon="1.42508">
        <ele>227.8</ele>
        <time>2021-11-21T13:39:20Z</time>
      </trkpt>
      <trkpt lat="44.56896" lon="1.42515">
        <ele>227.8</ele>
        <time>2021-11-21T13:39:26Z</time>
      </trkpt>
      <trkpt lat="44.56896" lon="1.42521">
        <ele>228.2</ele>
        <time>2021-11-21T13:39:31Z</time>
      </trkpt>
      <trkpt lat="44.56898" lon="1.42528">
        <ele>229.9</ele>
        <time>2021-11-21T13:39:36Z</time>
      </trkpt>
      <trkpt lat="44.56899" lon="1.42534">
        <ele>230.3</ele>
        <time>2021-11-21T13:39:41Z</time>
      </trkpt>
      <trkpt lat="44.569" lon="1.4254">
        <ele>230.7</ele>
        <time>2021-11-21T13:39:46Z</time>
      </trkpt>
      <trkpt lat="44.56902" lon="1.42547">
        <ele>230.9</ele>
        <time>2021-11-21T13:39:51Z</time>
      </trkpt>
      <trkpt lat="44.56902" lon="1.42553">
        <ele>230.4</ele>
        <time>2021-11-21T13:39:56Z</time>
      </trkpt>
      <trkpt lat="44.56903" lon="1.42561">
        <ele>230</ele>
        <time>2021-11-21T13:40:02Z</time>
      </trkpt>
      <trkpt lat="44.56903" lon="1.42568">
        <ele>230.1</ele>
        <time>2021-11-21T13:40:08Z</time>
      </trkpt>
      <trkpt lat="44.56903" lon="1.42575">
        <ele>229.7</ele>
        <time>2021-11-21T13:40:14Z</time>
      </trkpt>
      <trkpt lat="44.56903" lon="1.42582">
        <ele>230.3</ele>
        <time>2021-11-21T13:40:19Z</time>
      </trkpt>
      <trkpt lat="44.56903" lon="1.42588">
        <ele>229.9</ele>
        <time>2021-11-21T13:40:24Z</time>
      </trkpt>
      <trkpt lat="44.56903" lon="1.42596">
        <ele>230</ele>
        <time>2021-11-21T13:40:30Z</time>
      </trkpt>
      <trkpt lat="44.56903" lon="1.42603">
        <ele>229.7</ele>
        <time>2021-11-21T13:40:35Z</time>
      </trkpt>
      <trkpt lat="44.56903" lon="1.42609">
        <ele>229.4</ele>
        <time>2021-11-21T13:40:40Z</time>
      </trkpt>
      <trkpt lat="44.56904" lon="1.42617">
        <ele>230</ele>
        <time>2021-11-21T13:40:45Z</time>
      </trkpt>
      <trkpt lat="44.56905" lon="1.42624">
        <ele>230.5</ele>
        <time>2021-11-21T13:40:50Z</time>
      </trkpt>
      <trkpt lat="44.56905" lon="1.42631">
        <ele>230.8</ele>
        <time>2021-11-21T13:40:55Z</time>
      </trkpt>
      <trkpt lat="44.56906" lon="1.42639">
        <ele>231.7</ele>
        <time>2021-11-21T13:40:59Z</time>
      </trkpt>
      <trkpt lat="44.56907" lon="1.42646">
        <ele>232.3</ele>
        <time>2021-11-21T13:41:03Z</time>
      </trkpt>
      <trkpt lat="44.56908" lon="1.42652">
        <ele>233.1</ele>
        <time>2021-11-21T13:41:07Z</time>
      </trkpt>
      <trkpt lat="44.56909" lon="1.42659">
        <ele>232.5</ele>
        <time>2021-11-21T13:41:12Z</time>
      </trkpt>
      <trkpt lat="44.56909" lon="1.42666">
        <ele>232.1</ele>
        <time>2021-11-21T13:41:17Z</time>
      </trkpt>
      <trkpt lat="44.56909" lon="1.42673">
        <ele>231.5</ele>
        <time>2021-11-21T13:41:22Z</time>
      </trkpt>
      <trkpt lat="44.56909" lon="1.4268">
        <ele>229.6</ele>
        <time>2021-11-21T13:41:27Z</time>
      </trkpt>
      <trkpt lat="44.56911" lon="1.42687">
        <ele>228.7</ele>
        <time>2021-11-21T13:41:32Z</time>
      </trkpt>
      <trkpt lat="44.56911" lon="1.42695">
        <ele>228.6</ele>
        <time>2021-11-21T13:41:37Z</time>
      </trkpt>
      <trkpt lat="44.56911" lon="1.42703">
        <ele>229.5</ele>
        <time>2021-11-21T13:41:41Z</time>
      </trkpt>
      <trkpt lat="44.56911" lon="1.42709">
        <ele>230.3</ele>
        <time>2021-11-21T13:41:46Z</time>
      </trkpt>
      <trkpt lat="44.5691" lon="1.42715">
        <ele>231.1</ele>
        <time>2021-11-21T13:41:51Z</time>
      </trkpt>
      <trkpt lat="44.56909" lon="1.42722">
        <ele>231.6</ele>
        <time>2021-11-21T13:41:56Z</time>
      </trkpt>
      <trkpt lat="44.56908" lon="1.42729">
        <ele>232.4</ele>
        <time>2021-11-21T13:42:00Z</time>
      </trkpt>
      <trkpt lat="44.56906" lon="1.42735">
        <ele>232.6</ele>
        <time>2021-11-21T13:42:04Z</time>
      </trkpt>
      <trkpt lat="44.56905" lon="1.42742">
        <ele>234.1</ele>
        <time>2021-11-21T13:42:08Z</time>
      </trkpt>
      <trkpt lat="44.56904" lon="1.42749">
        <ele>235.1</ele>
        <time>2021-11-21T13:42:12Z</time>
      </trkpt>
      <trkpt lat="44.56903" lon="1.42756">
        <ele>237.5</ele>
        <time>2021-11-21T13:42:17Z</time>
      </trkpt>
      <trkpt lat="44.56902" lon="1.42762">
        <ele>238.6</ele>
        <time>2021-11-21T13:42:22Z</time>
      </trkpt>
      <trkpt lat="44.569" lon="1.42769">
        <ele>240.3</ele>
        <time>2021-11-21T13:42:27Z</time>
      </trkpt>
      <trkpt lat="44.56899" lon="1.42775">
        <ele>240.7</ele>
        <time>2021-11-21T13:42:32Z</time>
      </trkpt>
      <trkpt lat="44.56898" lon="1.42782">
        <ele>241.4</ele>
        <time>2021-11-21T13:42:36Z</time>
      </trkpt>
      <trkpt lat="44.56898" lon="1.42789">
        <ele>242.6</ele>
        <time>2021-11-21T13:42:40Z</time>
      </trkpt>
      <trkpt lat="44.56898" lon="1.42797">
        <ele>243.6</ele>
        <time>2021-11-21T13:42:45Z</time>
      </trkpt>
      <trkpt lat="44.56897" lon="1.42803">
        <ele>242.8</ele>
        <time>2021-11-21T13:42:50Z</time>
      </trkpt>
      <trkpt lat="44.56895" lon="1.42809">
        <ele>241.3</ele>
        <time>2021-11-21T13:42:55Z</time>
      </trkpt>
      <trkpt lat="44.56894" lon="1.42816">
        <ele>241.2</ele>
        <time>2021-11-21T13:43:00Z</time>
      </trkpt>
      <trkpt lat="44.56893" lon="1.42823">
        <ele>241.5</ele>
        <time>2021-11-21T13:43:05Z</time>
      </trkpt>
      <trkpt lat="44.56891" lon="1.42829">
        <ele>243.1</ele>
        <time>2021-11-21T13:43:10Z</time>
      </trkpt>
      <trkpt lat="44.56889" lon="1.42835">
        <ele>244.3</ele>
        <time>2021-11-21T13:43:15Z</time>
      </trkpt>
      <trkpt lat="44.56886" lon="1.42841">
        <ele>244.4</ele>
        <time>2021-11-21T13:43:20Z</time>
      </trkpt>
      <trkpt lat="44.56883" lon="1.42847">
        <ele>244.2</ele>
        <time>2021-11-21T13:43:25Z</time>
      </trkpt>
      <trkpt lat="44.5688" lon="1.42852">
        <ele>244.4</ele>
        <time>2021-11-21T13:43:30Z</time>
      </trkpt>
      <trkpt lat="44.56876" lon="1.42857">
        <ele>243.8</ele>
        <time>2021-11-21T13:43:35Z</time>
      </trkpt>
      <trkpt lat="44.56874" lon="1.42863">
        <ele>244.7</ele>
        <time>2021-11-21T13:43:40Z</time>
      </trkpt>
      <trkpt lat="44.5687" lon="1.42868">
        <ele>244.8</ele>
        <time>2021-11-21T13:43:45Z</time>
      </trkpt>
      <trkpt lat="44.56867" lon="1.42873">
        <ele>245</ele>
        <time>2021-11-21T13:43:49Z</time>
      </trkpt>
      <trkpt lat="44.56863" lon="1.42878">
        <ele>244.9</ele>
        <time>2021-11-21T13:43:54Z</time>
      </trkpt>
      <trkpt lat="44.56858" lon="1.42882">
        <ele>245.3</ele>
        <time>2021-11-21T13:43:59Z</time>
      </trkpt>
      <trkpt lat="44.56854" lon="1.42887">
        <ele>246.4</ele>
        <time>2021-11-21T13:44:04Z</time>
      </trkpt>
      <trkpt lat="44.5685" lon="1.4289">
        <ele>247.1</ele>
        <time>2021-11-21T13:44:08Z</time>
      </trkpt>
      <trkpt lat="44.56845" lon="1.42893">
        <ele>246.9</ele>
        <time>2021-11-21T13:44:13Z</time>
      </trkpt>
      <trkpt lat="44.56841" lon="1.42897">
        <ele>246.4</ele>
        <time>2021-11-21T13:44:18Z</time>
      </trkpt>
      <trkpt lat="44.56837" lon="1.42903">
        <ele>246.3</ele>
        <time>2021-11-21T13:44:23Z</time>
      </trkpt>
      <trkpt lat="44.56833" lon="1.42907">
        <ele>246.2</ele>
        <time>2021-11-21T13:44:28Z</time>
      </trkpt>
      <trkpt lat="44.5683" lon="1.42912">
        <ele>246.4</ele>
        <time>2021-11-21T13:44:32Z</time>
      </trkpt>
      <trkpt lat="44.56826" lon="1.42916">
        <ele>246.4</ele>
        <time>2021-11-21T13:44:37Z</time>
      </trkpt>
      <trkpt lat="44.56822" lon="1.4292">
        <ele>246</ele>
        <time>2021-11-21T13:44:41Z</time>
      </trkpt>
      <trkpt lat="44.56818" lon="1.42924">
        <ele>245.9</ele>
        <time>2021-11-21T13:44:46Z</time>
      </trkpt>
      <trkpt lat="44.56814" lon="1.42928">
        <ele>245.7</ele>
        <time>2021-11-21T13:44:52Z</time>
      </trkpt>
      <trkpt lat="44.5681" lon="1.42933">
        <ele>246.1</ele>
        <time>2021-11-21T13:44:57Z</time>
      </trkpt>
      <trkpt lat="44.56806" lon="1.42938">
        <ele>246.6</ele>
        <time>2021-11-21T13:45:02Z</time>
      </trkpt>
      <trkpt lat="44.56802" lon="1.42943">
        <ele>247.3</ele>
        <time>2021-11-21T13:45:07Z</time>
      </trkpt>
      <trkpt lat="44.56802" lon="1.4295">
        <ele>250.9</ele>
        <time>2021-11-21T13:47:04Z</time>
      </trkpt>
      <trkpt lat="44.56799" lon="1.42956">
        <ele>250.4</ele>
        <time>2021-11-21T13:50:33Z</time>
      </trkpt>
      <trkpt lat="44.56797" lon="1.42962">
        <ele>249.2</ele>
        <time>2021-11-21T13:50:39Z</time>
      </trkpt>
      <trkpt lat="44.56799" lon="1.4297">
        <ele>252.5</ele>
        <time>2021-11-21T13:50:41Z</time>
      </trkpt>
      <trkpt lat="44.56799" lon="1.42978">
        <ele>255.3</ele>
        <time>2021-11-21T13:50:44Z</time>
      </trkpt>
      <trkpt lat="44.56799" lon="1.42985">
        <ele>258.7</ele>
        <time>2021-11-21T13:50:50Z</time>
      </trkpt>
      <trkpt lat="44.56799" lon="1.42992">
        <ele>259.5</ele>
        <time>2021-11-21T13:50:56Z</time>
      </trkpt>
      <trkpt lat="44.56799" lon="1.42999">
        <ele>259.4</ele>
        <time>2021-11-21T13:51:01Z</time>
      </trkpt>
      <trkpt lat="44.56798" lon="1.43006">
        <ele>259.5</ele>
        <time>2021-11-21T13:51:06Z</time>
      </trkpt>
      <trkpt lat="44.56798" lon="1.43012">
        <ele>260.5</ele>
        <time>2021-11-21T13:51:11Z</time>
      </trkpt>
      <trkpt lat="44.56799" lon="1.43019">
        <ele>262.1</ele>
        <time>2021-11-21T13:51:17Z</time>
      </trkpt>
      <trkpt lat="44.568" lon="1.43026">
        <ele>262.8</ele>
        <time>2021-11-21T13:51:21Z</time>
      </trkpt>
      <trkpt lat="44.56801" lon="1.43033">
        <ele>263.3</ele>
        <time>2021-11-21T13:51:25Z</time>
      </trkpt>
      <trkpt lat="44.56802" lon="1.43039">
        <ele>263.3</ele>
        <time>2021-11-21T13:51:29Z</time>
      </trkpt>
      <trkpt lat="44.56804" lon="1.43046">
        <ele>263.5</ele>
        <time>2021-11-21T13:51:34Z</time>
      </trkpt>
      <trkpt lat="44.56807" lon="1.43051">
        <ele>263.2</ele>
        <time>2021-11-21T13:51:39Z</time>
      </trkpt>
      <trkpt lat="44.5681" lon="1.43057">
        <ele>262.6</ele>
        <time>2021-11-21T13:51:45Z</time>
      </trkpt>
      <trkpt lat="44.56813" lon="1.43062">
        <ele>262.6</ele>
        <time>2021-11-21T13:51:51Z</time>
      </trkpt>
      <trkpt lat="44.56816" lon="1.43068">
        <ele>262.2</ele>
        <time>2021-11-21T13:51:57Z</time>
      </trkpt>
      <trkpt lat="44.56819" lon="1.43074">
        <ele>261.9</ele>
        <time>2021-11-21T13:52:03Z</time>
      </trkpt>
      <trkpt lat="44.56822" lon="1.43081">
        <ele>262</ele>
        <time>2021-11-21T13:52:09Z</time>
      </trkpt>
      <trkpt lat="44.56824" lon="1.43087">
        <ele>261.6</ele>
        <time>2021-11-21T13:52:15Z</time>
      </trkpt>
      <trkpt lat="44.56826" lon="1.43093">
        <ele>260.8</ele>
        <time>2021-11-21T13:52:20Z</time>
      </trkpt>
      <trkpt lat="44.56828" lon="1.43099">
        <ele>261.3</ele>
        <time>2021-11-21T13:52:25Z</time>
      </trkpt>
      <trkpt lat="44.56829" lon="1.43105">
        <ele>261.4</ele>
        <time>2021-11-21T13:52:30Z</time>
      </trkpt>
      <trkpt lat="44.56831" lon="1.43111">
        <ele>263.1</ele>
        <time>2021-11-21T13:52:35Z</time>
      </trkpt>
      <trkpt lat="44.56835" lon="1.43115">
        <ele>266</ele>
        <time>2021-11-21T13:52:40Z</time>
      </trkpt>
      <trkpt lat="44.56839" lon="1.4311">
        <ele>270.4</ele>
        <time>2021-11-21T13:52:47Z</time>
      </trkpt>
      <trkpt lat="44.56839" lon="1.43103">
        <ele>272.8</ele>
        <time>2021-11-21T13:52:53Z</time>
      </trkpt>
      <trkpt lat="44.5684" lon="1.43096">
        <ele>274</ele>
        <time>2021-11-21T13:52:59Z</time>
      </trkpt>
      <trkpt lat="44.5684" lon="1.43089">
        <ele>274.8</ele>
        <time>2021-11-21T13:53:05Z</time>
      </trkpt>
      <trkpt lat="44.56841" lon="1.43083">
        <ele>275</ele>
        <time>2021-11-21T13:53:11Z</time>
      </trkpt>
      <trkpt lat="44.56842" lon="1.43076">
        <ele>275.7</ele>
        <time>2021-11-21T13:53:16Z</time>
      </trkpt>
      <trkpt lat="44.56844" lon="1.4307">
        <ele>276.7</ele>
        <time>2021-11-21T13:53:22Z</time>
      </trkpt>
      <trkpt lat="44.56849" lon="1.43069">
        <ele>278.1</ele>
        <time>2021-11-21T13:53:29Z</time>
      </trkpt>
      <trkpt lat="44.56852" lon="1.43075">
        <ele>278.7</ele>
        <time>2021-11-21T13:53:35Z</time>
      </trkpt>
      <trkpt lat="44.56855" lon="1.4308">
        <ele>278.7</ele>
        <time>2021-11-21T13:53:41Z</time>
      </trkpt>
      <trkpt lat="44.56858" lon="1.43086">
        <ele>278.6</ele>
        <time>2021-11-21T13:53:47Z</time>
      </trkpt>
      <trkpt lat="44.56861" lon="1.43091">
        <ele>279.1</ele>
        <time>2021-11-21T13:53:53Z</time>
      </trkpt>
      <trkpt lat="44.56864" lon="1.43097">
        <ele>279.8</ele>
        <time>2021-11-21T13:54:00Z</time>
      </trkpt>
      <trkpt lat="44.56866" lon="1.43103">
        <ele>280.8</ele>
        <time>2021-11-21T13:54:05Z</time>
      </trkpt>
      <trkpt lat="44.56869" lon="1.43108">
        <ele>281.2</ele>
        <time>2021-11-21T13:54:11Z</time>
      </trkpt>
      <trkpt lat="44.56872" lon="1.43114">
        <ele>281.6</ele>
        <time>2021-11-21T13:54:17Z</time>
      </trkpt>
      <trkpt lat="44.56875" lon="1.43119">
        <ele>281.4</ele>
        <time>2021-11-21T13:54:22Z</time>
      </trkpt>
      <trkpt lat="44.56878" lon="1.43123">
        <ele>281.6</ele>
        <time>2021-11-21T13:54:27Z</time>
      </trkpt>
      <trkpt lat="44.56882" lon="1.43129">
        <ele>282.2</ele>
        <time>2021-11-21T13:54:32Z</time>
      </trkpt>
      <trkpt lat="44.56885" lon="1.43134">
        <ele>283.3</ele>
        <time>2021-11-21T13:54:37Z</time>
      </trkpt>
      <trkpt lat="44.56888" lon="1.43139">
        <ele>284.7</ele>
        <time>2021-11-21T13:54:42Z</time>
      </trkpt>
      <trkpt lat="44.56891" lon="1.43145">
        <ele>285.5</ele>
        <time>2021-11-21T13:54:47Z</time>
      </trkpt>
      <trkpt lat="44.56894" lon="1.4315">
        <ele>286</ele>
        <time>2021-11-21T13:54:52Z</time>
      </trkpt>
      <trkpt lat="44.56897" lon="1.43155">
        <ele>286.4</ele>
        <time>2021-11-21T13:54:58Z</time>
      </trkpt>
      <trkpt lat="44.56901" lon="1.43159">
        <ele>287.4</ele>
        <time>2021-11-21T13:55:03Z</time>
      </trkpt>
      <trkpt lat="44.56904" lon="1.43164">
        <ele>288.9</ele>
        <time>2021-11-21T13:55:08Z</time>
      </trkpt>
      <trkpt lat="44.56908" lon="1.43168">
        <ele>290.3</ele>
        <time>2021-11-21T13:55:13Z</time>
      </trkpt>
      <trkpt lat="44.56911" lon="1.43173">
        <ele>291.5</ele>
        <time>2021-11-21T13:55:18Z</time>
      </trkpt>
      <trkpt lat="44.56914" lon="1.43178">
        <ele>291.8</ele>
        <time>2021-11-21T13:55:23Z</time>
      </trkpt>
      <trkpt lat="44.56917" lon="1.43183">
        <ele>293.1</ele>
        <time>2021-11-21T13:55:28Z</time>
      </trkpt>
      <trkpt lat="44.5692" lon="1.43189">
        <ele>294</ele>
        <time>2021-11-21T13:55:33Z</time>
      </trkpt>
      <trkpt lat="44.56923" lon="1.43194">
        <ele>294.6</ele>
        <time>2021-11-21T13:55:38Z</time>
      </trkpt>
      <trkpt lat="44.56926" lon="1.43199">
        <ele>295.4</ele>
        <time>2021-11-21T13:55:43Z</time>
      </trkpt>
      <trkpt lat="44.56929" lon="1.43204">
        <ele>295.9</ele>
        <time>2021-11-21T13:55:48Z</time>
      </trkpt>
      <trkpt lat="44.56932" lon="1.4321">
        <ele>297.2</ele>
        <time>2021-11-21T13:55:54Z</time>
      </trkpt>
      <trkpt lat="44.56936" lon="1.43214">
        <ele>298</ele>
        <time>2021-11-21T13:56:00Z</time>
      </trkpt>
      <trkpt lat="44.5694" lon="1.43218">
        <ele>299.1</ele>
        <time>2021-11-21T13:56:05Z</time>
      </trkpt>
      <trkpt lat="44.56945" lon="1.4322">
        <ele>300.3</ele>
        <time>2021-11-21T13:56:11Z</time>
      </trkpt>
      <trkpt lat="44.5695" lon="1.43224">
        <ele>300.8</ele>
        <time>2021-11-21T13:56:17Z</time>
      </trkpt>
      <trkpt lat="44.56954" lon="1.43226">
        <ele>302</ele>
        <time>2021-11-21T13:56:22Z</time>
      </trkpt>
      <trkpt lat="44.56959" lon="1.43227">
        <ele>302.5</ele>
        <time>2021-11-21T13:56:26Z</time>
      </trkpt>
      <trkpt lat="44.56963" lon="1.43231">
        <ele>302.7</ele>
        <time>2021-11-21T13:56:31Z</time>
      </trkpt>
      <trkpt lat="44.56967" lon="1.43235">
        <ele>302.5</ele>
        <time>2021-11-21T13:56:36Z</time>
      </trkpt>
      <trkpt lat="44.5697" lon="1.43239">
        <ele>302</ele>
        <time>2021-11-21T13:56:41Z</time>
      </trkpt>
      <trkpt lat="44.56974" lon="1.43243">
        <ele>302.2</ele>
        <time>2021-11-21T13:56:46Z</time>
      </trkpt>
      <trkpt lat="44.56978" lon="1.43247">
        <ele>303.3</ele>
        <time>2021-11-21T13:56:51Z</time>
      </trkpt>
      <trkpt lat="44.56982" lon="1.43251">
        <ele>304.9</ele>
        <time>2021-11-21T13:56:57Z</time>
      </trkpt>
      <trkpt lat="44.56986" lon="1.43254">
        <ele>306.2</ele>
        <time>2021-11-21T13:57:02Z</time>
      </trkpt>
      <trkpt lat="44.5699" lon="1.43258">
        <ele>307.1</ele>
        <time>2021-11-21T13:57:07Z</time>
      </trkpt>
      <trkpt lat="44.56994" lon="1.43261">
        <ele>308.2</ele>
        <time>2021-11-21T13:57:12Z</time>
      </trkpt>
      <trkpt lat="44.56999" lon="1.43265">
        <ele>309.7</ele>
        <time>2021-11-21T13:57:17Z</time>
      </trkpt>
      <trkpt lat="44.57003" lon="1.43269">
        <ele>311.1</ele>
        <time>2021-11-21T13:57:22Z</time>
      </trkpt>
      <trkpt lat="44.57007" lon="1.43273">
        <ele>312.1</ele>
        <time>2021-11-21T13:57:27Z</time>
      </trkpt>
      <trkpt lat="44.57011" lon="1.43277">
        <ele>312.8</ele>
        <time>2021-11-21T13:57:32Z</time>
      </trkpt>
      <trkpt lat="44.57015" lon="1.43281">
        <ele>313.5</ele>
        <time>2021-11-21T13:57:37Z</time>
      </trkpt>
      <trkpt lat="44.57019" lon="1.43285">
        <ele>313.4</ele>
        <time>2021-11-21T13:57:42Z</time>
      </trkpt>
      <trkpt lat="44.57023" lon="1.43289">
        <ele>313.3</ele>
        <time>2021-11-21T13:57:47Z</time>
      </trkpt>
      <trkpt lat="44.57028" lon="1.43293">
        <ele>314.1</ele>
        <time>2021-11-21T13:57:52Z</time>
      </trkpt>
      <trkpt lat="44.57032" lon="1.43297">
        <ele>314.8</ele>
        <time>2021-11-21T13:57:57Z</time>
      </trkpt>
      <trkpt lat="44.57036" lon="1.433">
        <ele>316.1</ele>
        <time>2021-11-21T13:58:02Z</time>
      </trkpt>
      <trkpt lat="44.5704" lon="1.43304">
        <ele>316.7</ele>
        <time>2021-11-21T13:58:07Z</time>
      </trkpt>
      <trkpt lat="44.57043" lon="1.43308">
        <ele>322.6</ele>
        <time>2021-11-21T14:03:11Z</time>
      </trkpt>
      <trkpt lat="44.5704" lon="1.43315">
        <ele>322.7</ele>
        <time>2021-11-21T14:03:18Z</time>
      </trkpt>
      <trkpt lat="44.57036" lon="1.4332">
        <ele>322.9</ele>
        <time>2021-11-21T14:03:23Z</time>
      </trkpt>
      <trkpt lat="44.57032" lon="1.43325">
        <ele>323.1</ele>
        <time>2021-11-21T14:03:28Z</time>
      </trkpt>
      <trkpt lat="44.57029" lon="1.43329">
        <ele>323.3</ele>
        <time>2021-11-21T14:03:32Z</time>
      </trkpt>
      <trkpt lat="44.57025" lon="1.43334">
        <ele>323.5</ele>
        <time>2021-11-21T14:03:36Z</time>
      </trkpt>
      <trkpt lat="44.57022" lon="1.43339">
        <ele>323.5</ele>
        <time>2021-11-21T14:03:40Z</time>
      </trkpt>
      <trkpt lat="44.57019" lon="1.43343">
        <ele>323.5</ele>
        <time>2021-11-21T14:03:44Z</time>
      </trkpt>
      <trkpt lat="44.57015" lon="1.43348">
        <ele>323.3</ele>
        <time>2021-11-21T14:03:49Z</time>
      </trkpt>
      <trkpt lat="44.57011" lon="1.43353">
        <ele>323.2</ele>
        <time>2021-11-21T14:03:54Z</time>
      </trkpt>
      <trkpt lat="44.57008" lon="1.43357">
        <ele>323.2</ele>
        <time>2021-11-21T14:03:58Z</time>
      </trkpt>
      <trkpt lat="44.57004" lon="1.43361">
        <ele>323.2</ele>
        <time>2021-11-21T14:04:03Z</time>
      </trkpt>
      <trkpt lat="44.56999" lon="1.43366">
        <ele>323</ele>
        <time>2021-11-21T14:04:08Z</time>
      </trkpt>
      <trkpt lat="44.56995" lon="1.4337">
        <ele>322.6</ele>
        <time>2021-11-21T14:04:13Z</time>
      </trkpt>
      <trkpt lat="44.56991" lon="1.43375">
        <ele>322.8</ele>
        <time>2021-11-21T14:04:18Z</time>
      </trkpt>
      <trkpt lat="44.56987" lon="1.43379">
        <ele>323</ele>
        <time>2021-11-21T14:04:22Z</time>
      </trkpt>
      <trkpt lat="44.56984" lon="1.43384">
        <ele>323.1</ele>
        <time>2021-11-21T14:04:26Z</time>
      </trkpt>
      <trkpt lat="44.5698" lon="1.43388">
        <ele>322.8</ele>
        <time>2021-11-21T14:04:30Z</time>
      </trkpt>
      <trkpt lat="44.56976" lon="1.43393">
        <ele>322.7</ele>
        <time>2021-11-21T14:04:34Z</time>
      </trkpt>
      <trkpt lat="44.56972" lon="1.43398">
        <ele>322.1</ele>
        <time>2021-11-21T14:04:39Z</time>
      </trkpt>
      <trkpt lat="44.56969" lon="1.43402">
        <ele>321.7</ele>
        <time>2021-11-21T14:04:43Z</time>
      </trkpt>
      <trkpt lat="44.56965" lon="1.43406">
        <ele>321.6</ele>
        <time>2021-11-21T14:04:47Z</time>
      </trkpt>
      <trkpt lat="44.56961" lon="1.4341">
        <ele>321.4</ele>
        <time>2021-11-21T14:04:51Z</time>
      </trkpt>
      <trkpt lat="44.56957" lon="1.43414">
        <ele>321.5</ele>
        <time>2021-11-21T14:04:55Z</time>
      </trkpt>
      <trkpt lat="44.56953" lon="1.43419">
        <ele>321.4</ele>
        <time>2021-11-21T14:04:59Z</time>
      </trkpt>
      <trkpt lat="44.5695" lon="1.43422">
        <ele>321.3</ele>
        <time>2021-11-21T14:05:03Z</time>
      </trkpt>
      <trkpt lat="44.56945" lon="1.43426">
        <ele>321.4</ele>
        <time>2021-11-21T14:05:07Z</time>
      </trkpt>
      <trkpt lat="44.56941" lon="1.43429">
        <ele>321.4</ele>
        <time>2021-11-21T14:05:11Z</time>
      </trkpt>
      <trkpt lat="44.56935" lon="1.43431">
        <ele>321.7</ele>
        <time>2021-11-21T14:05:16Z</time>
      </trkpt>
      <trkpt lat="44.5693" lon="1.43432">
        <ele>321.8</ele>
        <time>2021-11-21T14:05:21Z</time>
      </trkpt>
      <trkpt lat="44.56925" lon="1.43434">
        <ele>321.8</ele>
        <time>2021-11-21T14:05:26Z</time>
      </trkpt>
      <trkpt lat="44.5692" lon="1.43434">
        <ele>322.1</ele>
        <time>2021-11-21T14:05:30Z</time>
      </trkpt>
      <trkpt lat="44.56915" lon="1.43435">
        <ele>322.3</ele>
        <time>2021-11-21T14:05:35Z</time>
      </trkpt>
      <trkpt lat="44.5691" lon="1.43435">
        <ele>322.6</ele>
        <time>2021-11-21T14:05:39Z</time>
      </trkpt>
      <trkpt lat="44.56906" lon="1.43435">
        <ele>322.9</ele>
        <time>2021-11-21T14:05:43Z</time>
      </trkpt>
      <trkpt lat="44.569" lon="1.43435">
        <ele>323.5</ele>
        <time>2021-11-21T14:05:48Z</time>
      </trkpt>
      <trkpt lat="44.56896" lon="1.43435">
        <ele>324</ele>
        <time>2021-11-21T14:05:52Z</time>
      </trkpt>
      <trkpt lat="44.56891" lon="1.43435">
        <ele>324.5</ele>
        <time>2021-11-21T14:05:56Z</time>
      </trkpt>
      <trkpt lat="44.56885" lon="1.43436">
        <ele>324.8</ele>
        <time>2021-11-21T14:06:01Z</time>
      </trkpt>
      <trkpt lat="44.5688" lon="1.43437">
        <ele>324.8</ele>
        <time>2021-11-21T14:06:06Z</time>
      </trkpt>
      <trkpt lat="44.56875" lon="1.43439">
        <ele>324.9</ele>
        <time>2021-11-21T14:06:11Z</time>
      </trkpt>
      <trkpt lat="44.5687" lon="1.4344">
        <ele>325.1</ele>
        <time>2021-11-21T14:06:15Z</time>
      </trkpt>
      <trkpt lat="44.56866" lon="1.43443">
        <ele>325.4</ele>
        <time>2021-11-21T14:06:19Z</time>
      </trkpt>
      <trkpt lat="44.56862" lon="1.43446">
        <ele>325.5</ele>
        <time>2021-11-21T14:06:23Z</time>
      </trkpt>
      <trkpt lat="44.56858" lon="1.43448">
        <ele>325.5</ele>
        <time>2021-11-21T14:06:27Z</time>
      </trkpt>
      <trkpt lat="44.56853" lon="1.43451">
        <ele>325.3</ele>
        <time>2021-11-21T14:06:32Z</time>
      </trkpt>
      <trkpt lat="44.56848" lon="1.43455">
        <ele>324.9</ele>
        <time>2021-11-21T14:06:37Z</time>
      </trkpt>
      <trkpt lat="44.56844" lon="1.43458">
        <ele>324.9</ele>
        <time>2021-11-21T14:06:41Z</time>
      </trkpt>
      <trkpt lat="44.5684" lon="1.43462">
        <ele>324.8</ele>
        <time>2021-11-21T14:06:45Z</time>
      </trkpt>
      <trkpt lat="44.56836" lon="1.43465">
        <ele>324.2</ele>
        <time>2021-11-21T14:06:49Z</time>
      </trkpt>
      <trkpt lat="44.56831" lon="1.43468">
        <ele>323.7</ele>
        <time>2021-11-21T14:06:54Z</time>
      </trkpt>
      <trkpt lat="44.56826" lon="1.43472">
        <ele>323.5</ele>
        <time>2021-11-21T14:06:59Z</time>
      </trkpt>
      <trkpt lat="44.56821" lon="1.43477">
        <ele>323.5</ele>
        <time>2021-11-21T14:07:04Z</time>
      </trkpt>
      <trkpt lat="44.56817" lon="1.43481">
        <ele>323.7</ele>
        <time>2021-11-21T14:07:09Z</time>
      </trkpt>
      <trkpt lat="44.56813" lon="1.43485">
        <ele>324</ele>
        <time>2021-11-21T14:07:13Z</time>
      </trkpt>
      <trkpt lat="44.56809" lon="1.43489">
        <ele>324.1</ele>
        <time>2021-11-21T14:07:17Z</time>
      </trkpt>
      <trkpt lat="44.56804" lon="1.43493">
        <ele>325</ele>
        <time>2021-11-21T14:07:22Z</time>
      </trkpt>
      <trkpt lat="44.568" lon="1.43498">
        <ele>325.4</ele>
        <time>2021-11-21T14:07:27Z</time>
      </trkpt>
      <trkpt lat="44.56796" lon="1.43503">
        <ele>325.7</ele>
        <time>2021-11-21T14:07:32Z</time>
      </trkpt>
      <trkpt lat="44.56793" lon="1.43507">
        <ele>326</ele>
        <time>2021-11-21T14:07:36Z</time>
      </trkpt>
      <trkpt lat="44.5679" lon="1.43513">
        <ele>325.2</ele>
        <time>2021-11-21T14:07:41Z</time>
      </trkpt>
      <trkpt lat="44.56792" lon="1.43519">
        <ele>324.4</ele>
        <time>2021-11-21T14:07:48Z</time>
      </trkpt>
      <trkpt lat="44.5679" lon="1.43525">
        <ele>324.2</ele>
        <time>2021-11-21T14:07:53Z</time>
      </trkpt>
      <trkpt lat="44.56788" lon="1.43531">
        <ele>324.2</ele>
        <time>2021-11-21T14:07:58Z</time>
      </trkpt>
      <trkpt lat="44.56787" lon="1.43538">
        <ele>324.4</ele>
        <time>2021-11-21T14:08:03Z</time>
      </trkpt>
      <trkpt lat="44.56786" lon="1.43545">
        <ele>324.4</ele>
        <time>2021-11-21T14:08:08Z</time>
      </trkpt>
      <trkpt lat="44.56785" lon="1.43552">
        <ele>324.5</ele>
        <time>2021-11-21T14:08:13Z</time>
      </trkpt>
      <trkpt lat="44.56786" lon="1.43559">
        <ele>324.9</ele>
        <time>2021-11-21T14:08:18Z</time>
      </trkpt>
      <trkpt lat="44.56786" lon="1.43565">
        <ele>325.1</ele>
        <time>2021-11-21T14:08:25Z</time>
      </trkpt>
      <trkpt lat="44.56788" lon="1.43573">
        <ele>325.2</ele>
        <time>2021-11-21T14:08:37Z</time>
      </trkpt>
      <trkpt lat="44.56789" lon="1.43579">
        <ele>325.5</ele>
        <time>2021-11-21T14:08:42Z</time>
      </trkpt>
      <trkpt lat="44.5679" lon="1.43585">
        <ele>326.4</ele>
        <time>2021-11-21T14:08:47Z</time>
      </trkpt>
      <trkpt lat="44.56791" lon="1.43592">
        <ele>327.1</ele>
        <time>2021-11-21T14:08:52Z</time>
      </trkpt>
      <trkpt lat="44.56792" lon="1.43599">
        <ele>328.6</ele>
        <time>2021-11-21T14:08:57Z</time>
      </trkpt>
      <trkpt lat="44.56793" lon="1.43606">
        <ele>329.3</ele>
        <time>2021-11-21T14:09:02Z</time>
      </trkpt>
      <trkpt lat="44.56794" lon="1.43613">
        <ele>329.7</ele>
        <time>2021-11-21T14:09:07Z</time>
      </trkpt>
      <trkpt lat="44.56796" lon="1.4362">
        <ele>329.8</ele>
        <time>2021-11-21T14:09:12Z</time>
      </trkpt>
      <trkpt lat="44.56797" lon="1.43627">
        <ele>329.7</ele>
        <time>2021-11-21T14:09:17Z</time>
      </trkpt>
      <trkpt lat="44.56799" lon="1.43634">
        <ele>329.9</ele>
        <time>2021-11-21T14:09:22Z</time>
      </trkpt>
      <trkpt lat="44.568" lon="1.43641">
        <ele>329.6</ele>
        <time>2021-11-21T14:09:27Z</time>
      </trkpt>
      <trkpt lat="44.56802" lon="1.43648">
        <ele>330.1</ele>
        <time>2021-11-21T14:09:31Z</time>
      </trkpt>
      <trkpt lat="44.56804" lon="1.43653">
        <ele>330.8</ele>
        <time>2021-11-21T14:09:35Z</time>
      </trkpt>
      <trkpt lat="44.56805" lon="1.4366">
        <ele>331.3</ele>
        <time>2021-11-21T14:09:40Z</time>
      </trkpt>
      <trkpt lat="44.56807" lon="1.43666">
        <ele>332</ele>
        <time>2021-11-21T14:09:45Z</time>
      </trkpt>
      <trkpt lat="44.56809" lon="1.43673">
        <ele>332.6</ele>
        <time>2021-11-21T14:09:50Z</time>
      </trkpt>
      <trkpt lat="44.56811" lon="1.4368">
        <ele>332.5</ele>
        <time>2021-11-21T14:09:55Z</time>
      </trkpt>
      <trkpt lat="44.56812" lon="1.43687">
        <ele>333.3</ele>
        <time>2021-11-21T14:10:00Z</time>
      </trkpt>
      <trkpt lat="44.56812" lon="1.43694">
        <ele>333.8</ele>
        <time>2021-11-21T14:10:05Z</time>
      </trkpt>
      <trkpt lat="44.56812" lon="1.43701">
        <ele>334.2</ele>
        <time>2021-11-21T14:10:10Z</time>
      </trkpt>
      <trkpt lat="44.56811" lon="1.43708">
        <ele>334.7</ele>
        <time>2021-11-21T14:10:15Z</time>
      </trkpt>
      <trkpt lat="44.5681" lon="1.43715">
        <ele>334.6</ele>
        <time>2021-11-21T14:10:20Z</time>
      </trkpt>
      <trkpt lat="44.56808" lon="1.43722">
        <ele>334.7</ele>
        <time>2021-11-21T14:10:25Z</time>
      </trkpt>
      <trkpt lat="44.56806" lon="1.43728">
        <ele>334.7</ele>
        <time>2021-11-21T14:10:30Z</time>
      </trkpt>
      <trkpt lat="44.56804" lon="1.43735">
        <ele>334.7</ele>
        <time>2021-11-21T14:10:35Z</time>
      </trkpt>
      <trkpt lat="44.56802" lon="1.43741">
        <ele>334.2</ele>
        <time>2021-11-21T14:10:40Z</time>
      </trkpt>
      <trkpt lat="44.56801" lon="1.43748">
        <ele>334.1</ele>
        <time>2021-11-21T14:10:45Z</time>
      </trkpt>
      <trkpt lat="44.56801" lon="1.43755">
        <ele>333.7</ele>
        <time>2021-11-21T14:10:50Z</time>
      </trkpt>
      <trkpt lat="44.568" lon="1.43762">
        <ele>333.6</ele>
        <time>2021-11-21T14:10:55Z</time>
      </trkpt>
      <trkpt lat="44.56797" lon="1.43769">
        <ele>333.4</ele>
        <time>2021-11-21T14:11:00Z</time>
      </trkpt>
      <trkpt lat="44.56795" lon="1.43774">
        <ele>333.5</ele>
        <time>2021-11-21T14:11:05Z</time>
      </trkpt>
      <trkpt lat="44.56792" lon="1.4378">
        <ele>334.1</ele>
        <time>2021-11-21T14:11:10Z</time>
      </trkpt>
      <trkpt lat="44.56789" lon="1.43785">
        <ele>334.5</ele>
        <time>2021-11-21T14:11:15Z</time>
      </trkpt>
      <trkpt lat="44.56785" lon="1.43791">
        <ele>335</ele>
        <time>2021-11-21T14:11:20Z</time>
      </trkpt>
      <trkpt lat="44.56782" lon="1.43796">
        <ele>335.4</ele>
        <time>2021-11-21T14:11:24Z</time>
      </trkpt>
      <trkpt lat="44.56778" lon="1.438">
        <ele>335.6</ele>
        <time>2021-11-21T14:11:29Z</time>
      </trkpt>
      <trkpt lat="44.56775" lon="1.43806">
        <ele>335.1</ele>
        <time>2021-11-21T14:11:34Z</time>
      </trkpt>
      <trkpt lat="44.56778" lon="1.43811">
        <ele>334.8</ele>
        <time>2021-11-21T14:11:40Z</time>
      </trkpt>
      <trkpt lat="44.56782" lon="1.43815">
        <ele>332.5</ele>
        <time>2021-11-21T14:11:47Z</time>
      </trkpt>
      <trkpt lat="44.56787" lon="1.43815">
        <ele>333.2</ele>
        <time>2021-11-21T14:13:11Z</time>
      </trkpt>
      <trkpt lat="44.56792" lon="1.43817">
        <ele>334.2</ele>
        <time>2021-11-21T14:13:17Z</time>
      </trkpt>
      <trkpt lat="44.56797" lon="1.4382">
        <ele>334.9</ele>
        <time>2021-11-21T14:13:22Z</time>
      </trkpt>
      <trkpt lat="44.56801" lon="1.43823">
        <ele>335.4</ele>
        <time>2021-11-21T14:13:27Z</time>
      </trkpt>
      <trkpt lat="44.56806" lon="1.43825">
        <ele>336</ele>
        <time>2021-11-21T14:13:32Z</time>
      </trkpt>
      <trkpt lat="44.5681" lon="1.43828">
        <ele>335.9</ele>
        <time>2021-11-21T14:13:37Z</time>
      </trkpt>
      <trkpt lat="44.56815" lon="1.43831">
        <ele>335.7</ele>
        <time>2021-11-21T14:13:42Z</time>
      </trkpt>
      <trkpt lat="44.5682" lon="1.43833">
        <ele>335.5</ele>
        <time>2021-11-21T14:13:47Z</time>
      </trkpt>
      <trkpt lat="44.56825" lon="1.43836">
        <ele>335.2</ele>
        <time>2021-11-21T14:13:52Z</time>
      </trkpt>
      <trkpt lat="44.5683" lon="1.43838">
        <ele>335.1</ele>
        <time>2021-11-21T14:13:57Z</time>
      </trkpt>
      <trkpt lat="44.56835" lon="1.43841">
        <ele>335</ele>
        <time>2021-11-21T14:14:02Z</time>
      </trkpt>
      <trkpt lat="44.56839" lon="1.43844">
        <ele>334.9</ele>
        <time>2021-11-21T14:14:07Z</time>
      </trkpt>
      <trkpt lat="44.56844" lon="1.43846">
        <ele>334.9</ele>
        <time>2021-11-21T14:14:12Z</time>
      </trkpt>
      <trkpt lat="44.56849" lon="1.43849">
        <ele>335.2</ele>
        <time>2021-11-21T14:14:17Z</time>
      </trkpt>
      <trkpt lat="44.56853" lon="1.43852">
        <ele>335.4</ele>
        <time>2021-11-21T14:14:22Z</time>
      </trkpt>
      <trkpt lat="44.56858" lon="1.43855">
        <ele>335.9</ele>
        <time>2021-11-21T14:14:27Z</time>
      </trkpt>
      <trkpt lat="44.56863" lon="1.43859">
        <ele>336.2</ele>
        <time>2021-11-21T14:14:32Z</time>
      </trkpt>
      <trkpt lat="44.56867" lon="1.43862">
        <ele>336.3</ele>
        <time>2021-11-21T14:14:36Z</time>
      </trkpt>
      <trkpt lat="44.56871" lon="1.43865">
        <ele>336.2</ele>
        <time>2021-11-21T14:14:40Z</time>
      </trkpt>
      <trkpt lat="44.56875" lon="1.43869">
        <ele>336.4</ele>
        <time>2021-11-21T14:14:45Z</time>
      </trkpt>
      <trkpt lat="44.5688" lon="1.43873">
        <ele>336.4</ele>
        <time>2021-11-21T14:14:50Z</time>
      </trkpt>
      <trkpt lat="44.56884" lon="1.43877">
        <ele>336.3</ele>
        <time>2021-11-21T14:14:55Z</time>
      </trkpt>
      <trkpt lat="44.56888" lon="1.4388">
        <ele>336.5</ele>
        <time>2021-11-21T14:15:00Z</time>
      </trkpt>
      <trkpt lat="44.56892" lon="1.43884">
        <ele>336.6</ele>
        <time>2021-11-21T14:15:05Z</time>
      </trkpt>
      <trkpt lat="44.56897" lon="1.43887">
        <ele>336.9</ele>
        <time>2021-11-21T14:15:10Z</time>
      </trkpt>
      <trkpt lat="44.56902" lon="1.43889">
        <ele>336.6</ele>
        <time>2021-11-21T14:15:15Z</time>
      </trkpt>
      <trkpt lat="44.56908" lon="1.43889">
        <ele>336.1</ele>
        <time>2021-11-21T14:15:20Z</time>
      </trkpt>
      <trkpt lat="44.56913" lon="1.43891">
        <ele>335.7</ele>
        <time>2021-11-21T14:15:25Z</time>
      </trkpt>
      <trkpt lat="44.56918" lon="1.43892">
        <ele>335.3</ele>
        <time>2021-11-21T14:15:30Z</time>
      </trkpt>
      <trkpt lat="44.56923" lon="1.43894">
        <ele>335.8</ele>
        <time>2021-11-21T14:15:35Z</time>
      </trkpt>
      <trkpt lat="44.56928" lon="1.43895">
        <ele>336.2</ele>
        <time>2021-11-21T14:15:39Z</time>
      </trkpt>
      <trkpt lat="44.56933" lon="1.43896">
        <ele>336</ele>
        <time>2021-11-21T14:15:44Z</time>
      </trkpt>
      <trkpt lat="44.56938" lon="1.43896">
        <ele>336.1</ele>
        <time>2021-11-21T14:15:48Z</time>
      </trkpt>
      <trkpt lat="44.56942" lon="1.43898">
        <ele>336.1</ele>
        <time>2021-11-21T14:15:52Z</time>
      </trkpt>
      <trkpt lat="44.56948" lon="1.43899">
        <ele>336.3</ele>
        <time>2021-11-21T14:15:57Z</time>
      </trkpt>
      <trkpt lat="44.56953" lon="1.43899">
        <ele>336</ele>
        <time>2021-11-21T14:16:02Z</time>
      </trkpt>
      <trkpt lat="44.56958" lon="1.43899">
        <ele>335.2</ele>
        <time>2021-11-21T14:16:07Z</time>
      </trkpt>
      <trkpt lat="44.56964" lon="1.43899">
        <ele>334.6</ele>
        <time>2021-11-21T14:16:12Z</time>
      </trkpt>
      <trkpt lat="44.56969" lon="1.43899">
        <ele>334.2</ele>
        <time>2021-11-21T14:16:17Z</time>
      </trkpt>
      <trkpt lat="44.56975" lon="1.43899">
        <ele>333.8</ele>
        <time>2021-11-21T14:16:22Z</time>
      </trkpt>
      <trkpt lat="44.56979" lon="1.43897">
        <ele>334</ele>
        <time>2021-11-21T14:16:26Z</time>
      </trkpt>
      <trkpt lat="44.56985" lon="1.43897">
        <ele>333.8</ele>
        <time>2021-11-21T14:16:31Z</time>
      </trkpt>
      <trkpt lat="44.5699" lon="1.43898">
        <ele>333.3</ele>
        <time>2021-11-21T14:16:36Z</time>
      </trkpt>
      <trkpt lat="44.56995" lon="1.43898">
        <ele>332.1</ele>
        <time>2021-11-21T14:16:41Z</time>
      </trkpt>
      <trkpt lat="44.57" lon="1.43898">
        <ele>331.3</ele>
        <time>2021-11-21T14:16:46Z</time>
      </trkpt>
      <trkpt lat="44.57005" lon="1.43898">
        <ele>330.5</ele>
        <time>2021-11-21T14:16:51Z</time>
      </trkpt>
      <trkpt lat="44.5701" lon="1.43899">
        <ele>329.9</ele>
        <time>2021-11-21T14:16:56Z</time>
      </trkpt>
      <trkpt lat="44.57015" lon="1.43899">
        <ele>329.7</ele>
        <time>2021-11-21T14:17:01Z</time>
      </trkpt>
      <trkpt lat="44.5702" lon="1.439">
        <ele>329.5</ele>
        <time>2021-11-21T14:17:06Z</time>
      </trkpt>
      <trkpt lat="44.57024" lon="1.43901">
        <ele>329.2</ele>
        <time>2021-11-21T14:17:11Z</time>
      </trkpt>
      <trkpt lat="44.57029" lon="1.43903">
        <ele>328.6</ele>
        <time>2021-11-21T14:17:16Z</time>
      </trkpt>
      <trkpt lat="44.57034" lon="1.43906">
        <ele>327.9</ele>
        <time>2021-11-21T14:17:21Z</time>
      </trkpt>
      <trkpt lat="44.57039" lon="1.43909">
        <ele>327.1</ele>
        <time>2021-11-21T14:17:26Z</time>
      </trkpt>
      <trkpt lat="44.57043" lon="1.43912">
        <ele>326.6</ele>
        <time>2021-11-21T14:17:31Z</time>
      </trkpt>
      <trkpt lat="44.57047" lon="1.43916">
        <ele>326.2</ele>
        <time>2021-11-21T14:17:36Z</time>
      </trkpt>
      <trkpt lat="44.57052" lon="1.43919">
        <ele>326.1</ele>
        <time>2021-11-21T14:17:41Z</time>
      </trkpt>
      <trkpt lat="44.57056" lon="1.43924">
        <ele>326.1</ele>
        <time>2021-11-21T14:17:46Z</time>
      </trkpt>
      <trkpt lat="44.57059" lon="1.4393">
        <ele>325.5</ele>
        <time>2021-11-21T14:17:51Z</time>
      </trkpt>
      <trkpt lat="44.57062" lon="1.43936">
        <ele>324.7</ele>
        <time>2021-11-21T14:17:56Z</time>
      </trkpt>
      <trkpt lat="44.57064" lon="1.43942">
        <ele>323.1</ele>
        <time>2021-11-21T14:18:01Z</time>
      </trkpt>
      <trkpt lat="44.57066" lon="1.43949">
        <ele>321.7</ele>
        <time>2021-11-21T14:18:06Z</time>
      </trkpt>
      <trkpt lat="44.57069" lon="1.43955">
        <ele>320.2</ele>
        <time>2021-11-21T14:18:11Z</time>
      </trkpt>
      <trkpt lat="44.57071" lon="1.43962">
        <ele>319.3</ele>
        <time>2021-11-21T14:18:16Z</time>
      </trkpt>
      <trkpt lat="44.57074" lon="1.43967">
        <ele>318.8</ele>
        <time>2021-11-21T14:18:21Z</time>
      </trkpt>
      <trkpt lat="44.57078" lon="1.43972">
        <ele>318.3</ele>
        <time>2021-11-21T14:18:26Z</time>
      </trkpt>
      <trkpt lat="44.57082" lon="1.43977">
        <ele>318.1</ele>
        <time>2021-11-21T14:18:31Z</time>
      </trkpt>
      <trkpt lat="44.57086" lon="1.43981">
        <ele>317.9</ele>
        <time>2021-11-21T14:18:36Z</time>
      </trkpt>
      <trkpt lat="44.5709" lon="1.43984">
        <ele>317.5</ele>
        <time>2021-11-21T14:18:41Z</time>
      </trkpt>
      <trkpt lat="44.57095" lon="1.43988">
        <ele>316.9</ele>
        <time>2021-11-21T14:18:46Z</time>
      </trkpt>
      <trkpt lat="44.57099" lon="1.43991">
        <ele>316.1</ele>
        <time>2021-11-21T14:18:51Z</time>
      </trkpt>
      <trkpt lat="44.57103" lon="1.43995">
        <ele>315.7</ele>
        <time>2021-11-21T14:18:56Z</time>
      </trkpt>
      <trkpt lat="44.57107" lon="1.43998">
        <ele>315.7</ele>
        <time>2021-11-21T14:19:01Z</time>
      </trkpt>
      <trkpt lat="44.5711" lon="1.44003">
        <ele>315.8</ele>
        <time>2021-11-21T14:19:06Z</time>
      </trkpt>
      <trkpt lat="44.57113" lon="1.44009">
        <ele>315.7</ele>
        <time>2021-11-21T14:19:11Z</time>
      </trkpt>
      <trkpt lat="44.57116" lon="1.44015">
        <ele>315.3</ele>
        <time>2021-11-21T14:19:16Z</time>
      </trkpt>
      <trkpt lat="44.57118" lon="1.44022">
        <ele>314.5</ele>
        <time>2021-11-21T14:19:21Z</time>
      </trkpt>
      <trkpt lat="44.57121" lon="1.44028">
        <ele>313.6</ele>
        <time>2021-11-21T14:19:26Z</time>
      </trkpt>
      <trkpt lat="44.57124" lon="1.44035">
        <ele>312.7</ele>
        <time>2021-11-21T14:19:31Z</time>
      </trkpt>
      <trkpt lat="44.57127" lon="1.4404">
        <ele>312.2</ele>
        <time>2021-11-21T14:19:36Z</time>
      </trkpt>
      <trkpt lat="44.57129" lon="1.44047">
        <ele>311.9</ele>
        <time>2021-11-21T14:19:41Z</time>
      </trkpt>
      <trkpt lat="44.57133" lon="1.44052">
        <ele>311.7</ele>
        <time>2021-11-21T14:19:47Z</time>
      </trkpt>
      <trkpt lat="44.57135" lon="1.44057">
        <ele>311.6</ele>
        <time>2021-11-21T14:19:52Z</time>
      </trkpt>
      <trkpt lat="44.57138" lon="1.44063">
        <ele>311.4</ele>
        <time>2021-11-21T14:19:57Z</time>
      </trkpt>
      <trkpt lat="44.5714" lon="1.44068">
        <ele>311.1</ele>
        <time>2021-11-21T14:20:02Z</time>
      </trkpt>
      <trkpt lat="44.57143" lon="1.44075">
        <ele>310.6</ele>
        <time>2021-11-21T14:20:07Z</time>
      </trkpt>
      <trkpt lat="44.57145" lon="1.44081">
        <ele>310.6</ele>
        <time>2021-11-21T14:20:12Z</time>
      </trkpt>
      <trkpt lat="44.57147" lon="1.44088">
        <ele>310.5</ele>
        <time>2021-11-21T14:20:17Z</time>
      </trkpt>
      <trkpt lat="44.5715" lon="1.44095">
        <ele>310.3</ele>
        <time>2021-11-21T14:20:22Z</time>
      </trkpt>
      <trkpt lat="44.57151" lon="1.44102">
        <ele>309.4</ele>
        <time>2021-11-21T14:20:27Z</time>
      </trkpt>
      <trkpt lat="44.57153" lon="1.44108">
        <ele>308.3</ele>
        <time>2021-11-21T14:20:32Z</time>
      </trkpt>
      <trkpt lat="44.57155" lon="1.44114">
        <ele>307.4</ele>
        <time>2021-11-21T14:20:37Z</time>
      </trkpt>
      <trkpt lat="44.57157" lon="1.44121">
        <ele>306.3</ele>
        <time>2021-11-21T14:20:42Z</time>
      </trkpt>
      <trkpt lat="44.57159" lon="1.44127">
        <ele>305.5</ele>
        <time>2021-11-21T14:20:47Z</time>
      </trkpt>
      <trkpt lat="44.57161" lon="1.44133">
        <ele>305.5</ele>
        <time>2021-11-21T14:20:52Z</time>
      </trkpt>
      <trkpt lat="44.57159" lon="1.4414">
        <ele>305.5</ele>
        <time>2021-11-21T14:21:28Z</time>
      </trkpt>
      <trkpt lat="44.57154" lon="1.44143">
        <ele>308.7</ele>
        <time>2021-11-21T14:24:17Z</time>
      </trkpt>
      <trkpt lat="44.5715" lon="1.44147">
        <ele>308.9</ele>
        <time>2021-11-21T14:24:23Z</time>
      </trkpt>
      <trkpt lat="44.57145" lon="1.44151">
        <ele>309.5</ele>
        <time>2021-11-21T14:24:29Z</time>
      </trkpt>
      <trkpt lat="44.57142" lon="1.44156">
        <ele>309.9</ele>
        <time>2021-11-21T14:24:34Z</time>
      </trkpt>
      <trkpt lat="44.57138" lon="1.4416">
        <ele>310</ele>
        <time>2021-11-21T14:24:39Z</time>
      </trkpt>
      <trkpt lat="44.57134" lon="1.44165">
        <ele>310.3</ele>
        <time>2021-11-21T14:24:44Z</time>
      </trkpt>
      <trkpt lat="44.57131" lon="1.44168">
        <ele>310.7</ele>
        <time>2021-11-21T14:24:49Z</time>
      </trkpt>
      <trkpt lat="44.57127" lon="1.44171">
        <ele>311</ele>
        <time>2021-11-21T14:24:54Z</time>
      </trkpt>
      <trkpt lat="44.57122" lon="1.44175">
        <ele>311.3</ele>
        <time>2021-11-21T14:24:59Z</time>
      </trkpt>
      <trkpt lat="44.57118" lon="1.44177">
        <ele>314.5</ele>
        <time>2021-11-21T14:25:08Z</time>
      </trkpt>
      <trkpt lat="44.57116" lon="1.44182">
        <ele>315.9</ele>
        <time>2021-11-21T14:25:21Z</time>
      </trkpt>
      <trkpt lat="44.57112" lon="1.44187">
        <ele>317.5</ele>
        <time>2021-11-21T14:25:28Z</time>
      </trkpt>
      <trkpt lat="44.57111" lon="1.44194">
        <ele>318.7</ele>
        <time>2021-11-21T14:25:36Z</time>
      </trkpt>
      <trkpt lat="44.57107" lon="1.44197">
        <ele>318.8</ele>
        <time>2021-11-21T14:25:41Z</time>
      </trkpt>
      <trkpt lat="44.57102" lon="1.44201">
        <ele>318.8</ele>
        <time>2021-11-21T14:25:46Z</time>
      </trkpt>
      <trkpt lat="44.57098" lon="1.44203">
        <ele>319.2</ele>
        <time>2021-11-21T14:25:51Z</time>
      </trkpt>
      <trkpt lat="44.57094" lon="1.44205">
        <ele>319.9</ele>
        <time>2021-11-21T14:25:56Z</time>
      </trkpt>
      <trkpt lat="44.57089" lon="1.44208">
        <ele>320.8</ele>
        <time>2021-11-21T14:26:02Z</time>
      </trkpt>
      <trkpt lat="44.57084" lon="1.44211">
        <ele>321.4</ele>
        <time>2021-11-21T14:26:08Z</time>
      </trkpt>
      <trkpt lat="44.57079" lon="1.44214">
        <ele>322.2</ele>
        <time>2021-11-21T14:26:14Z</time>
      </trkpt>
      <trkpt lat="44.57075" lon="1.44217">
        <ele>322</ele>
        <time>2021-11-21T14:26:19Z</time>
      </trkpt>
      <trkpt lat="44.5707" lon="1.4422">
        <ele>322.4</ele>
        <time>2021-11-21T14:26:24Z</time>
      </trkpt>
      <trkpt lat="44.57066" lon="1.44223">
        <ele>322.8</ele>
        <time>2021-11-21T14:26:29Z</time>
      </trkpt>
      <trkpt lat="44.57061" lon="1.44225">
        <ele>323.3</ele>
        <time>2021-11-21T14:26:34Z</time>
      </trkpt>
      <trkpt lat="44.57056" lon="1.44226">
        <ele>324</ele>
        <time>2021-11-21T14:26:40Z</time>
      </trkpt>
      <trkpt lat="44.57051" lon="1.44229">
        <ele>324.8</ele>
        <time>2021-11-21T14:26:46Z</time>
      </trkpt>
      <trkpt lat="44.57047" lon="1.44232">
        <ele>324.5</ele>
        <time>2021-11-21T14:26:51Z</time>
      </trkpt>
      <trkpt lat="44.57043" lon="1.44235">
        <ele>324.1</ele>
        <time>2021-11-21T14:26:56Z</time>
      </trkpt>
      <trkpt lat="44.57039" lon="1.44237">
        <ele>324</ele>
        <time>2021-11-21T14:27:01Z</time>
      </trkpt>
      <trkpt lat="44.57034" lon="1.44238">
        <ele>324.3</ele>
        <time>2021-11-21T14:27:06Z</time>
      </trkpt>
      <trkpt lat="44.57029" lon="1.4424">
        <ele>325.2</ele>
        <time>2021-11-21T14:27:11Z</time>
      </trkpt>
      <trkpt lat="44.57024" lon="1.44241">
        <ele>326</ele>
        <time>2021-11-21T14:27:16Z</time>
      </trkpt>
      <trkpt lat="44.57019" lon="1.44242">
        <ele>326.5</ele>
        <time>2021-11-21T14:27:21Z</time>
      </trkpt>
      <trkpt lat="44.57014" lon="1.44244">
        <ele>326.3</ele>
        <time>2021-11-21T14:27:26Z</time>
      </trkpt>
      <trkpt lat="44.57009" lon="1.44247">
        <ele>325.8</ele>
        <time>2021-11-21T14:27:32Z</time>
      </trkpt>
      <trkpt lat="44.57004" lon="1.44248">
        <ele>325.4</ele>
        <time>2021-11-21T14:27:36Z</time>
      </trkpt>
      <trkpt lat="44.56999" lon="1.4425">
        <ele>325.4</ele>
        <time>2021-11-21T14:27:41Z</time>
      </trkpt>
      <trkpt lat="44.56994" lon="1.44251">
        <ele>325.2</ele>
        <time>2021-11-21T14:27:46Z</time>
      </trkpt>
      <trkpt lat="44.56989" lon="1.44252">
        <ele>325.4</ele>
        <time>2021-11-21T14:27:51Z</time>
      </trkpt>
      <trkpt lat="44.56984" lon="1.44254">
        <ele>325.7</ele>
        <time>2021-11-21T14:27:56Z</time>
      </trkpt>
      <trkpt lat="44.56981" lon="1.44259">
        <ele>325.9</ele>
        <time>2021-11-21T14:28:01Z</time>
      </trkpt>
      <trkpt lat="44.56981" lon="1.44266">
        <ele>326.3</ele>
        <time>2021-11-21T14:28:06Z</time>
      </trkpt>
      <trkpt lat="44.56982" lon="1.44273">
        <ele>326</ele>
        <time>2021-11-21T14:28:11Z</time>
      </trkpt>
      <trkpt lat="44.56982" lon="1.4428">
        <ele>325.7</ele>
        <time>2021-11-21T14:28:16Z</time>
      </trkpt>
      <trkpt lat="44.56982" lon="1.44286">
        <ele>325</ele>
        <time>2021-11-21T14:28:21Z</time>
      </trkpt>
      <trkpt lat="44.56981" lon="1.44293">
        <ele>324.6</ele>
        <time>2021-11-21T14:28:26Z</time>
      </trkpt>
      <trkpt lat="44.56979" lon="1.443">
        <ele>324.5</ele>
        <time>2021-11-21T14:28:32Z</time>
      </trkpt>
      <trkpt lat="44.56977" lon="1.44307">
        <ele>324.7</ele>
        <time>2021-11-21T14:28:37Z</time>
      </trkpt>
      <trkpt lat="44.56975" lon="1.44313">
        <ele>324.7</ele>
        <time>2021-11-21T14:28:42Z</time>
      </trkpt>
      <trkpt lat="44.56973" lon="1.44319">
        <ele>324.6</ele>
        <time>2021-11-21T14:28:47Z</time>
      </trkpt>
      <trkpt lat="44.56971" lon="1.44326">
        <ele>324.9</ele>
        <time>2021-11-21T14:28:52Z</time>
      </trkpt>
      <trkpt lat="44.56969" lon="1.44332">
        <ele>324.6</ele>
        <time>2021-11-21T14:28:57Z</time>
      </trkpt>
      <trkpt lat="44.56966" lon="1.44339">
        <ele>324.1</ele>
        <time>2021-11-21T14:29:02Z</time>
      </trkpt>
      <trkpt lat="44.56964" lon="1.44344">
        <ele>323.7</ele>
        <time>2021-11-21T14:29:07Z</time>
      </trkpt>
      <trkpt lat="44.56961" lon="1.4435">
        <ele>322.9</ele>
        <time>2021-11-21T14:29:12Z</time>
      </trkpt>
      <trkpt lat="44.56958" lon="1.44356">
        <ele>322.7</ele>
        <time>2021-11-21T14:29:17Z</time>
      </trkpt>
      <trkpt lat="44.56955" lon="1.44362">
        <ele>321.8</ele>
        <time>2021-11-21T14:29:22Z</time>
      </trkpt>
      <trkpt lat="44.56953" lon="1.44368">
        <ele>321.2</ele>
        <time>2021-11-21T14:29:27Z</time>
      </trkpt>
      <trkpt lat="44.5695" lon="1.44373">
        <ele>320.5</ele>
        <time>2021-11-21T14:29:32Z</time>
      </trkpt>
      <trkpt lat="44.56947" lon="1.44379">
        <ele>320.9</ele>
        <time>2021-11-21T14:29:37Z</time>
      </trkpt>
      <trkpt lat="44.56944" lon="1.44385">
        <ele>321.3</ele>
        <time>2021-11-21T14:29:42Z</time>
      </trkpt>
      <trkpt lat="44.56941" lon="1.4439">
        <ele>321.7</ele>
        <time>2021-11-21T14:29:46Z</time>
      </trkpt>
      <trkpt lat="44.56938" lon="1.44396">
        <ele>322</ele>
        <time>2021-11-21T14:29:51Z</time>
      </trkpt>
      <trkpt lat="44.56935" lon="1.44402">
        <ele>322.5</ele>
        <time>2021-11-21T14:29:57Z</time>
      </trkpt>
      <trkpt lat="44.56932" lon="1.44407">
        <ele>323</ele>
        <time>2021-11-21T14:30:02Z</time>
      </trkpt>
      <trkpt lat="44.5693" lon="1.44413">
        <ele>324.1</ele>
        <time>2021-11-21T14:30:07Z</time>
      </trkpt>
      <trkpt lat="44.56927" lon="1.44419">
        <ele>325.1</ele>
        <time>2021-11-21T14:30:13Z</time>
      </trkpt>
      <trkpt lat="44.56925" lon="1.44426">
        <ele>326.8</ele>
        <time>2021-11-21T14:30:19Z</time>
      </trkpt>
      <trkpt lat="44.56923" lon="1.44431">
        <ele>328.3</ele>
        <time>2021-11-21T14:30:24Z</time>
      </trkpt>
      <trkpt lat="44.5692" lon="1.44437">
        <ele>329.3</ele>
        <time>2021-11-21T14:30:29Z</time>
      </trkpt>
      <trkpt lat="44.56917" lon="1.44442">
        <ele>329.5</ele>
        <time>2021-11-21T14:30:34Z</time>
      </trkpt>
      <trkpt lat="44.56915" lon="1.44448">
        <ele>329.7</ele>
        <time>2021-11-21T14:30:39Z</time>
      </trkpt>
      <trkpt lat="44.56912" lon="1.44454">
        <ele>330.3</ele>
        <time>2021-11-21T14:30:44Z</time>
      </trkpt>
      <trkpt lat="44.5691" lon="1.4446">
        <ele>330.4</ele>
        <time>2021-11-21T14:30:49Z</time>
      </trkpt>
      <trkpt lat="44.56907" lon="1.44466">
        <ele>330.5</ele>
        <time>2021-11-21T14:30:54Z</time>
      </trkpt>
      <trkpt lat="44.56905" lon="1.44473">
        <ele>330.7</ele>
        <time>2021-11-21T14:30:59Z</time>
      </trkpt>
      <trkpt lat="44.56902" lon="1.44479">
        <ele>330.5</ele>
        <time>2021-11-21T14:31:04Z</time>
      </trkpt>
      <trkpt lat="44.56899" lon="1.44485">
        <ele>329.9</ele>
        <time>2021-11-21T14:31:09Z</time>
      </trkpt>
      <trkpt lat="44.56898" lon="1.44492">
        <ele>329.8</ele>
        <time>2021-11-21T14:31:15Z</time>
      </trkpt>
      <trkpt lat="44.56896" lon="1.44498">
        <ele>329.7</ele>
        <time>2021-11-21T14:31:21Z</time>
      </trkpt>
      <trkpt lat="44.56892" lon="1.44502">
        <ele>329.3</ele>
        <time>2021-11-21T14:31:26Z</time>
      </trkpt>
      <trkpt lat="44.56889" lon="1.44506">
        <ele>328.7</ele>
        <time>2021-11-21T14:31:31Z</time>
      </trkpt>
      <trkpt lat="44.56885" lon="1.44511">
        <ele>328</ele>
        <time>2021-11-21T14:31:36Z</time>
      </trkpt>
      <trkpt lat="44.5688" lon="1.44515">
        <ele>327.3</ele>
        <time>2021-11-21T14:31:41Z</time>
      </trkpt>
      <trkpt lat="44.56876" lon="1.44518">
        <ele>326.9</ele>
        <time>2021-11-21T14:31:46Z</time>
      </trkpt>
      <trkpt lat="44.56871" lon="1.44522">
        <ele>326.9</ele>
        <time>2021-11-21T14:31:51Z</time>
      </trkpt>
      <trkpt lat="44.56867" lon="1.44524">
        <ele>327.1</ele>
        <time>2021-11-21T14:31:55Z</time>
      </trkpt>
      <trkpt lat="44.56862" lon="1.44527">
        <ele>327.1</ele>
        <time>2021-11-21T14:32:00Z</time>
      </trkpt>
      <trkpt lat="44.56857" lon="1.4453">
        <ele>327.1</ele>
        <time>2021-11-21T14:32:04Z</time>
      </trkpt>
      <trkpt lat="44.56852" lon="1.44532">
        <ele>326.9</ele>
        <time>2021-11-21T14:32:09Z</time>
      </trkpt>
      <trkpt lat="44.56847" lon="1.44535">
        <ele>326.7</ele>
        <time>2021-11-21T14:32:14Z</time>
      </trkpt>
      <trkpt lat="44.56842" lon="1.44537">
        <ele>326.3</ele>
        <time>2021-11-21T14:32:19Z</time>
      </trkpt>
      <trkpt lat="44.56837" lon="1.44539">
        <ele>325.9</ele>
        <time>2021-11-21T14:32:25Z</time>
      </trkpt>
      <trkpt lat="44.56832" lon="1.44541">
        <ele>325.9</ele>
        <time>2021-11-21T14:32:28Z</time>
      </trkpt>
      <trkpt lat="44.56828" lon="1.44544">
        <ele>326.2</ele>
        <time>2021-11-21T14:32:32Z</time>
      </trkpt>
      <trkpt lat="44.56823" lon="1.44547">
        <ele>326.5</ele>
        <time>2021-11-21T14:32:36Z</time>
      </trkpt>
      <trkpt lat="44.56818" lon="1.44549">
        <ele>326.5</ele>
        <time>2021-11-21T14:32:41Z</time>
      </trkpt>
      <trkpt lat="44.56813" lon="1.44552">
        <ele>327.3</ele>
        <time>2021-11-21T14:32:46Z</time>
      </trkpt>
      <trkpt lat="44.56809" lon="1.44557">
        <ele>328.3</ele>
        <time>2021-11-21T14:32:51Z</time>
      </trkpt>
      <trkpt lat="44.56805" lon="1.44561">
        <ele>329.1</ele>
        <time>2021-11-21T14:32:56Z</time>
      </trkpt>
      <trkpt lat="44.56801" lon="1.44565">
        <ele>329.7</ele>
        <time>2021-11-21T14:33:01Z</time>
      </trkpt>
      <trkpt lat="44.56796" lon="1.44568">
        <ele>330.2</ele>
        <time>2021-11-21T14:33:06Z</time>
      </trkpt>
      <trkpt lat="44.56791" lon="1.44571">
        <ele>330</ele>
        <time>2021-11-21T14:33:11Z</time>
      </trkpt>
      <trkpt lat="44.56787" lon="1.44575">
        <ele>330.2</ele>
        <time>2021-11-21T14:33:16Z</time>
      </trkpt>
      <trkpt lat="44.56782" lon="1.44579">
        <ele>330.3</ele>
        <time>2021-11-21T14:33:21Z</time>
      </trkpt>
      <trkpt lat="44.56778" lon="1.44584">
        <ele>330.6</ele>
        <time>2021-11-21T14:33:26Z</time>
      </trkpt>
      <trkpt lat="44.56774" lon="1.44588">
        <ele>330.4</ele>
        <time>2021-11-21T14:33:31Z</time>
      </trkpt>
      <trkpt lat="44.56771" lon="1.44593">
        <ele>330.7</ele>
        <time>2021-11-21T14:33:36Z</time>
      </trkpt>
      <trkpt lat="44.56768" lon="1.44598">
        <ele>330.9</ele>
        <time>2021-11-21T14:33:41Z</time>
      </trkpt>
      <trkpt lat="44.56765" lon="1.44604">
        <ele>331.3</ele>
        <time>2021-11-21T14:33:47Z</time>
      </trkpt>
      <trkpt lat="44.56762" lon="1.44609">
        <ele>331.1</ele>
        <time>2021-11-21T14:33:52Z</time>
      </trkpt>
      <trkpt lat="44.56758" lon="1.44614">
        <ele>331.2</ele>
        <time>2021-11-21T14:33:57Z</time>
      </trkpt>
      <trkpt lat="44.56755" lon="1.4462">
        <ele>331.3</ele>
        <time>2021-11-21T14:34:02Z</time>
      </trkpt>
      <trkpt lat="44.56752" lon="1.44624">
        <ele>331.4</ele>
        <time>2021-11-21T14:34:06Z</time>
      </trkpt>
      <trkpt lat="44.56748" lon="1.44631">
        <ele>331</ele>
        <time>2021-11-21T14:34:11Z</time>
      </trkpt>
      <trkpt lat="44.56745" lon="1.44637">
        <ele>330.6</ele>
        <time>2021-11-21T14:34:16Z</time>
      </trkpt>
      <trkpt lat="44.56743" lon="1.44643">
        <ele>330.6</ele>
        <time>2021-11-21T14:34:20Z</time>
      </trkpt>
      <trkpt lat="44.56741" lon="1.4465">
        <ele>331.3</ele>
        <time>2021-11-21T14:34:25Z</time>
      </trkpt>
      <trkpt lat="44.56738" lon="1.44657">
        <ele>331.6</ele>
        <time>2021-11-21T14:34:30Z</time>
      </trkpt>
      <trkpt lat="44.56736" lon="1.44664">
        <ele>331.6</ele>
        <time>2021-11-21T14:34:35Z</time>
      </trkpt>
      <trkpt lat="44.56734" lon="1.4467">
        <ele>331.7</ele>
        <time>2021-11-21T14:34:40Z</time>
      </trkpt>
      <trkpt lat="44.56732" lon="1.44677">
        <ele>331.9</ele>
        <time>2021-11-21T14:34:45Z</time>
      </trkpt>
      <trkpt lat="44.5673" lon="1.44684">
        <ele>332.3</ele>
        <time>2021-11-21T14:34:50Z</time>
      </trkpt>
      <trkpt lat="44.56729" lon="1.44691">
        <ele>332.8</ele>
        <time>2021-11-21T14:34:55Z</time>
      </trkpt>
      <trkpt lat="44.56727" lon="1.44698">
        <ele>332.6</ele>
        <time>2021-11-21T14:34:59Z</time>
      </trkpt>
      <trkpt lat="44.56727" lon="1.44704">
        <ele>332.2</ele>
        <time>2021-11-21T14:35:03Z</time>
      </trkpt>
      <trkpt lat="44.56725" lon="1.44711">
        <ele>331.5</ele>
        <time>2021-11-21T14:35:08Z</time>
      </trkpt>
      <trkpt lat="44.56724" lon="1.44718">
        <ele>330.6</ele>
        <time>2021-11-21T14:35:13Z</time>
      </trkpt>
      <trkpt lat="44.56722" lon="1.44724">
        <ele>330.1</ele>
        <time>2021-11-21T14:35:18Z</time>
      </trkpt>
      <trkpt lat="44.56721" lon="1.44731">
        <ele>329.8</ele>
        <time>2021-11-21T14:35:23Z</time>
      </trkpt>
      <trkpt lat="44.56719" lon="1.44738">
        <ele>328.6</ele>
        <time>2021-11-21T14:35:28Z</time>
      </trkpt>
      <trkpt lat="44.56719" lon="1.44744">
        <ele>328.8</ele>
        <time>2021-11-21T14:35:32Z</time>
      </trkpt>
      <trkpt lat="44.56718" lon="1.44751">
        <ele>327.7</ele>
        <time>2021-11-21T14:35:36Z</time>
      </trkpt>
      <trkpt lat="44.56717" lon="1.44759">
        <ele>327.2</ele>
        <time>2021-11-21T14:35:41Z</time>
      </trkpt>
      <trkpt lat="44.56715" lon="1.44766">
        <ele>327.6</ele>
        <time>2021-11-21T14:35:46Z</time>
      </trkpt>
      <trkpt lat="44.56714" lon="1.44773">
        <ele>327.7</ele>
        <time>2021-11-21T14:35:51Z</time>
      </trkpt>
      <trkpt lat="44.56713" lon="1.4478">
        <ele>326.9</ele>
        <time>2021-11-21T14:35:56Z</time>
      </trkpt>
      <trkpt lat="44.56711" lon="1.44787">
        <ele>326.2</ele>
        <time>2021-11-21T14:36:01Z</time>
      </trkpt>
      <trkpt lat="44.5671" lon="1.44794">
        <ele>325.2</ele>
        <time>2021-11-21T14:36:06Z</time>
      </trkpt>
      <trkpt lat="44.56708" lon="1.448">
        <ele>323.8</ele>
        <time>2021-11-21T14:36:11Z</time>
      </trkpt>
      <trkpt lat="44.56707" lon="1.44807">
        <ele>323</ele>
        <time>2021-11-21T14:36:16Z</time>
      </trkpt>
      <trkpt lat="44.56706" lon="1.44814">
        <ele>322.9</ele>
        <time>2021-11-21T14:36:21Z</time>
      </trkpt>
      <trkpt lat="44.56705" lon="1.44821">
        <ele>322.3</ele>
        <time>2021-11-21T14:36:26Z</time>
      </trkpt>
      <trkpt lat="44.56704" lon="1.44828">
        <ele>322</ele>
        <time>2021-11-21T14:36:30Z</time>
      </trkpt>
      <trkpt lat="44.56704" lon="1.44835">
        <ele>322.3</ele>
        <time>2021-11-21T14:36:34Z</time>
      </trkpt>
      <trkpt lat="44.56704" lon="1.44841">
        <ele>322.9</ele>
        <time>2021-11-21T14:36:38Z</time>
      </trkpt>
      <trkpt lat="44.56702" lon="1.44848">
        <ele>324.2</ele>
        <time>2021-11-21T14:36:42Z</time>
      </trkpt>
      <trkpt lat="44.56701" lon="1.44855">
        <ele>325.2</ele>
        <time>2021-11-21T14:36:46Z</time>
      </trkpt>
      <trkpt lat="44.56699" lon="1.44862">
        <ele>324.7</ele>
        <time>2021-11-21T14:36:51Z</time>
      </trkpt>
      <trkpt lat="44.56697" lon="1.44869">
        <ele>323.8</ele>
        <time>2021-11-21T14:36:56Z</time>
      </trkpt>
      <trkpt lat="44.56695" lon="1.44876">
        <ele>323.4</ele>
        <time>2021-11-21T14:37:01Z</time>
      </trkpt>
      <trkpt lat="44.56693" lon="1.44882">
        <ele>323.1</ele>
        <time>2021-11-21T14:37:06Z</time>
      </trkpt>
      <trkpt lat="44.56691" lon="1.44889">
        <ele>323</ele>
        <time>2021-11-21T14:37:11Z</time>
      </trkpt>
      <trkpt lat="44.56689" lon="1.44895">
        <ele>322.7</ele>
        <time>2021-11-21T14:37:16Z</time>
      </trkpt>
      <trkpt lat="44.56687" lon="1.44901">
        <ele>322.7</ele>
        <time>2021-11-21T14:37:21Z</time>
      </trkpt>
      <trkpt lat="44.56684" lon="1.44908">
        <ele>323.7</ele>
        <time>2021-11-21T14:37:26Z</time>
      </trkpt>
      <trkpt lat="44.56681" lon="1.44914">
        <ele>324.4</ele>
        <time>2021-11-21T14:37:31Z</time>
      </trkpt>
      <trkpt lat="44.56678" lon="1.44919">
        <ele>324.8</ele>
        <time>2021-11-21T14:37:36Z</time>
      </trkpt>
      <trkpt lat="44.56675" lon="1.44924">
        <ele>324.7</ele>
        <time>2021-11-21T14:37:41Z</time>
      </trkpt>
      <trkpt lat="44.56671" lon="1.4493">
        <ele>324.8</ele>
        <time>2021-11-21T14:37:46Z</time>
      </trkpt>
      <trkpt lat="44.56669" lon="1.44936">
        <ele>325.6</ele>
        <time>2021-11-21T14:37:50Z</time>
      </trkpt>
      <trkpt lat="44.56667" lon="1.44942">
        <ele>326.8</ele>
        <time>2021-11-21T14:37:54Z</time>
      </trkpt>
      <trkpt lat="44.56665" lon="1.44949">
        <ele>327</ele>
        <time>2021-11-21T14:37:59Z</time>
      </trkpt>
      <trkpt lat="44.56663" lon="1.44955">
        <ele>326.8</ele>
        <time>2021-11-21T14:38:04Z</time>
      </trkpt>
      <trkpt lat="44.56662" lon="1.44961">
        <ele>327.2</ele>
        <time>2021-11-21T14:38:09Z</time>
      </trkpt>
      <trkpt lat="44.5666" lon="1.44968">
        <ele>327.6</ele>
        <time>2021-11-21T14:38:14Z</time>
      </trkpt>
      <trkpt lat="44.56659" lon="1.44975">
        <ele>327.8</ele>
        <time>2021-11-21T14:38:18Z</time>
      </trkpt>
      <trkpt lat="44.56657" lon="1.44981">
        <ele>327.4</ele>
        <time>2021-11-21T14:38:22Z</time>
      </trkpt>
      <trkpt lat="44.56654" lon="1.44988">
        <ele>326.6</ele>
        <time>2021-11-21T14:38:27Z</time>
      </trkpt>
      <trkpt lat="44.56652" lon="1.44994">
        <ele>325.4</ele>
        <time>2021-11-21T14:38:32Z</time>
      </trkpt>
      <trkpt lat="44.56649" lon="1.45">
        <ele>324.7</ele>
        <time>2021-11-21T14:38:37Z</time>
      </trkpt>
      <trkpt lat="44.56645" lon="1.45006">
        <ele>324.5</ele>
        <time>2021-11-21T14:38:42Z</time>
      </trkpt>
      <trkpt lat="44.56642" lon="1.45012">
        <ele>324.9</ele>
        <time>2021-11-21T14:38:47Z</time>
      </trkpt>
      <trkpt lat="44.56639" lon="1.45019">
        <ele>325.2</ele>
        <time>2021-11-21T14:38:52Z</time>
      </trkpt>
      <trkpt lat="44.56635" lon="1.45022">
        <ele>325.9</ele>
        <time>2021-11-21T14:38:57Z</time>
      </trkpt>
      <trkpt lat="44.56639" lon="1.45024">
        <ele>325.3</ele>
        <time>2021-11-21T14:39:37Z</time>
      </trkpt>
      <trkpt lat="44.56637" lon="1.45031">
        <ele>326.1</ele>
        <time>2021-11-21T14:40:10Z</time>
      </trkpt>
      <trkpt lat="44.56635" lon="1.45037">
        <ele>326.4</ele>
        <time>2021-11-21T14:40:14Z</time>
      </trkpt>
      <trkpt lat="44.56633" lon="1.45043">
        <ele>325.8</ele>
        <time>2021-11-21T14:40:19Z</time>
      </trkpt>
      <trkpt lat="44.56631" lon="1.45049">
        <ele>325.2</ele>
        <time>2021-11-21T14:40:24Z</time>
      </trkpt>
      <trkpt lat="44.56629" lon="1.45055">
        <ele>324.4</ele>
        <time>2021-11-21T14:40:29Z</time>
      </trkpt>
      <trkpt lat="44.56627" lon="1.45061">
        <ele>325.5</ele>
        <time>2021-11-21T14:40:35Z</time>
      </trkpt>
      <trkpt lat="44.56626" lon="1.45067">
        <ele>325.9</ele>
        <time>2021-11-21T14:40:40Z</time>
      </trkpt>
      <trkpt lat="44.56624" lon="1.45073">
        <ele>325.8</ele>
        <time>2021-11-21T14:40:45Z</time>
      </trkpt>
      <trkpt lat="44.56621" lon="1.45078">
        <ele>325.8</ele>
        <time>2021-11-21T14:40:50Z</time>
      </trkpt>
      <trkpt lat="44.56617" lon="1.45083">
        <ele>325.8</ele>
        <time>2021-11-21T14:40:55Z</time>
      </trkpt>
      <trkpt lat="44.56614" lon="1.45089">
        <ele>325.4</ele>
        <time>2021-11-21T14:41:00Z</time>
      </trkpt>
      <trkpt lat="44.5661" lon="1.45094">
        <ele>325.4</ele>
        <time>2021-11-21T14:41:05Z</time>
      </trkpt>
      <trkpt lat="44.56607" lon="1.45098">
        <ele>325.4</ele>
        <time>2021-11-21T14:41:10Z</time>
      </trkpt>
      <trkpt lat="44.56603" lon="1.45103">
        <ele>325.7</ele>
        <time>2021-11-21T14:41:16Z</time>
      </trkpt>
      <trkpt lat="44.56599" lon="1.45108">
        <ele>325.9</ele>
        <time>2021-11-21T14:41:22Z</time>
      </trkpt>
      <trkpt lat="44.56596" lon="1.45113">
        <ele>326.2</ele>
        <time>2021-11-21T14:41:28Z</time>
      </trkpt>
      <trkpt lat="44.56592" lon="1.45118">
        <ele>326.7</ele>
        <time>2021-11-21T14:41:34Z</time>
      </trkpt>
      <trkpt lat="44.56588" lon="1.45122">
        <ele>327.7</ele>
        <time>2021-11-21T14:41:40Z</time>
      </trkpt>
      <trkpt lat="44.56586" lon="1.45128">
        <ele>328.2</ele>
        <time>2021-11-21T14:41:46Z</time>
      </trkpt>
      <trkpt lat="44.56587" lon="1.45135">
        <ele>329.7</ele>
        <time>2021-11-21T14:44:50Z</time>
      </trkpt>
      <trkpt lat="44.56588" lon="1.45141">
        <ele>328.8</ele>
        <time>2021-11-21T14:44:55Z</time>
      </trkpt>
      <trkpt lat="44.56588" lon="1.45148">
        <ele>328</ele>
        <time>2021-11-21T14:45:00Z</time>
      </trkpt>
      <trkpt lat="44.56589" lon="1.45155">
        <ele>327.6</ele>
        <time>2021-11-21T14:45:05Z</time>
      </trkpt>
      <trkpt lat="44.5659" lon="1.45162">
        <ele>327.5</ele>
        <time>2021-11-21T14:45:10Z</time>
      </trkpt>
      <trkpt lat="44.5659" lon="1.45169">
        <ele>327.3</ele>
        <time>2021-11-21T14:45:15Z</time>
      </trkpt>
      <trkpt lat="44.56591" lon="1.45176">
        <ele>327.5</ele>
        <time>2021-11-21T14:45:20Z</time>
      </trkpt>
      <trkpt lat="44.56592" lon="1.45182">
        <ele>327.7</ele>
        <time>2021-11-21T14:45:25Z</time>
      </trkpt>
      <trkpt lat="44.56594" lon="1.45188">
        <ele>327.3</ele>
        <time>2021-11-21T14:45:30Z</time>
      </trkpt>
      <trkpt lat="44.56596" lon="1.45195">
        <ele>326.9</ele>
        <time>2021-11-21T14:45:35Z</time>
      </trkpt>
      <trkpt lat="44.56598" lon="1.45201">
        <ele>327.2</ele>
        <time>2021-11-21T14:45:39Z</time>
      </trkpt>
      <trkpt lat="44.566" lon="1.45209">
        <ele>326.9</ele>
        <time>2021-11-21T14:45:44Z</time>
      </trkpt>
      <trkpt lat="44.56602" lon="1.45215">
        <ele>326.3</ele>
        <time>2021-11-21T14:45:49Z</time>
      </trkpt>
      <trkpt lat="44.56604" lon="1.45222">
        <ele>325.9</ele>
        <time>2021-11-21T14:45:54Z</time>
      </trkpt>
      <trkpt lat="44.56605" lon="1.4523">
        <ele>325.9</ele>
        <time>2021-11-21T14:45:59Z</time>
      </trkpt>
      <trkpt lat="44.56606" lon="1.45237">
        <ele>325.5</ele>
        <time>2021-11-21T14:46:04Z</time>
      </trkpt>
      <trkpt lat="44.56607" lon="1.45244">
        <ele>325</ele>
        <time>2021-11-21T14:46:09Z</time>
      </trkpt>
      <trkpt lat="44.56606" lon="1.45251">
        <ele>324.5</ele>
        <time>2021-11-21T14:46:14Z</time>
      </trkpt>
      <trkpt lat="44.56606" lon="1.45258">
        <ele>324.5</ele>
        <time>2021-11-21T14:46:19Z</time>
      </trkpt>
      <trkpt lat="44.56605" lon="1.45266">
        <ele>324.5</ele>
        <time>2021-11-21T14:46:24Z</time>
      </trkpt>
      <trkpt lat="44.56604" lon="1.45273">
        <ele>324.7</ele>
        <time>2021-11-21T14:46:29Z</time>
      </trkpt>
      <trkpt lat="44.56603" lon="1.4528">
        <ele>324.5</ele>
        <time>2021-11-21T14:46:34Z</time>
      </trkpt>
      <trkpt lat="44.56602" lon="1.45287">
        <ele>324.9</ele>
        <time>2021-11-21T14:46:39Z</time>
      </trkpt>
      <trkpt lat="44.566" lon="1.45294">
        <ele>324.7</ele>
        <time>2021-11-21T14:46:44Z</time>
      </trkpt>
      <trkpt lat="44.56599" lon="1.45302">
        <ele>324.4</ele>
        <time>2021-11-21T14:46:49Z</time>
      </trkpt>
      <trkpt lat="44.56598" lon="1.45309">
        <ele>324.1</ele>
        <time>2021-11-21T14:46:54Z</time>
      </trkpt>
      <trkpt lat="44.56596" lon="1.45316">
        <ele>323.8</ele>
        <time>2021-11-21T14:46:59Z</time>
      </trkpt>
      <trkpt lat="44.56595" lon="1.45323">
        <ele>323.5</ele>
        <time>2021-11-21T14:47:04Z</time>
      </trkpt>
      <trkpt lat="44.56594" lon="1.4533">
        <ele>323.3</ele>
        <time>2021-11-21T14:47:09Z</time>
      </trkpt>
      <trkpt lat="44.56592" lon="1.45337">
        <ele>322.7</ele>
        <time>2021-11-21T14:47:14Z</time>
      </trkpt>
      <trkpt lat="44.56591" lon="1.45344">
        <ele>322.3</ele>
        <time>2021-11-21T14:47:19Z</time>
      </trkpt>
      <trkpt lat="44.5659" lon="1.45351">
        <ele>321.7</ele>
        <time>2021-11-21T14:47:24Z</time>
      </trkpt>
      <trkpt lat="44.56589" lon="1.45358">
        <ele>321.6</ele>
        <time>2021-11-21T14:47:28Z</time>
      </trkpt>
      <trkpt lat="44.56587" lon="1.45365">
        <ele>321.3</ele>
        <time>2021-11-21T14:47:33Z</time>
      </trkpt>
      <trkpt lat="44.56586" lon="1.45371">
        <ele>321.4</ele>
        <time>2021-11-21T14:47:37Z</time>
      </trkpt>
      <trkpt lat="44.56585" lon="1.45378">
        <ele>321.7</ele>
        <time>2021-11-21T14:47:41Z</time>
      </trkpt>
      <trkpt lat="44.56584" lon="1.45385">
        <ele>321.8</ele>
        <time>2021-11-21T14:47:46Z</time>
      </trkpt>
      <trkpt lat="44.56583" lon="1.45391">
        <ele>322.3</ele>
        <time>2021-11-21T14:47:50Z</time>
      </trkpt>
      <trkpt lat="44.56582" lon="1.45399">
        <ele>322.9</ele>
        <time>2021-11-21T14:47:55Z</time>
      </trkpt>
      <trkpt lat="44.5658" lon="1.45406">
        <ele>323.8</ele>
        <time>2021-11-21T14:48:00Z</time>
      </trkpt>
      <trkpt lat="44.56579" lon="1.45413">
        <ele>324.3</ele>
        <time>2021-11-21T14:48:05Z</time>
      </trkpt>
      <trkpt lat="44.56578" lon="1.45421">
        <ele>324.3</ele>
        <time>2021-11-21T14:48:10Z</time>
      </trkpt>
      <trkpt lat="44.56577" lon="1.45428">
        <ele>324</ele>
        <time>2021-11-21T14:48:14Z</time>
      </trkpt>
      <trkpt lat="44.56577" lon="1.45435">
        <ele>323.6</ele>
        <time>2021-11-21T14:48:19Z</time>
      </trkpt>
      <trkpt lat="44.56577" lon="1.45442">
        <ele>323.7</ele>
        <time>2021-11-21T14:48:23Z</time>
      </trkpt>
      <trkpt lat="44.56576" lon="1.45448">
        <ele>323.3</ele>
        <time>2021-11-21T14:48:27Z</time>
      </trkpt>
      <trkpt lat="44.56577" lon="1.45455">
        <ele>323</ele>
        <time>2021-11-21T14:48:32Z</time>
      </trkpt>
      <trkpt lat="44.56577" lon="1.45462">
        <ele>322.8</ele>
        <time>2021-11-21T14:48:37Z</time>
      </trkpt>
      <trkpt lat="44.56577" lon="1.45469">
        <ele>322.7</ele>
        <time>2021-11-21T14:48:41Z</time>
      </trkpt>
      <trkpt lat="44.56578" lon="1.45475">
        <ele>322.8</ele>
        <time>2021-11-21T14:48:45Z</time>
      </trkpt>
      <trkpt lat="44.5658" lon="1.45481">
        <ele>323.3</ele>
        <time>2021-11-21T14:48:49Z</time>
      </trkpt>
      <trkpt lat="44.56581" lon="1.45487">
        <ele>324.1</ele>
        <time>2021-11-21T14:48:53Z</time>
      </trkpt>
      <trkpt lat="44.56584" lon="1.45494">
        <ele>324.7</ele>
        <time>2021-11-21T14:48:58Z</time>
      </trkpt>
      <trkpt lat="44.56586" lon="1.45501">
        <ele>325.2</ele>
        <time>2021-11-21T14:49:03Z</time>
      </trkpt>
      <trkpt lat="44.56589" lon="1.45506">
        <ele>325.5</ele>
        <time>2021-11-21T14:49:07Z</time>
      </trkpt>
      <trkpt lat="44.56592" lon="1.45512">
        <ele>325.6</ele>
        <time>2021-11-21T14:49:12Z</time>
      </trkpt>
      <trkpt lat="44.56595" lon="1.45519">
        <ele>325.6</ele>
        <time>2021-11-21T14:49:17Z</time>
      </trkpt>
      <trkpt lat="44.56597" lon="1.45524">
        <ele>326</ele>
        <time>2021-11-21T14:49:21Z</time>
      </trkpt>
      <trkpt lat="44.566" lon="1.45531">
        <ele>326.1</ele>
        <time>2021-11-21T14:49:26Z</time>
      </trkpt>
      <trkpt lat="44.56603" lon="1.45537">
        <ele>326.2</ele>
        <time>2021-11-21T14:49:31Z</time>
      </trkpt>
      <trkpt lat="44.56606" lon="1.45543">
        <ele>326.4</ele>
        <time>2021-11-21T14:49:36Z</time>
      </trkpt>
      <trkpt lat="44.5661" lon="1.45549">
        <ele>327.1</ele>
        <time>2021-11-21T14:49:41Z</time>
      </trkpt>
      <trkpt lat="44.56614" lon="1.45555">
        <ele>327.6</ele>
        <time>2021-11-21T14:49:46Z</time>
      </trkpt>
      <trkpt lat="44.56617" lon="1.45561">
        <ele>327.8</ele>
        <time>2021-11-21T14:49:51Z</time>
      </trkpt>
      <trkpt lat="44.5662" lon="1.45567">
        <ele>327.6</ele>
        <time>2021-11-21T14:49:56Z</time>
      </trkpt>
      <trkpt lat="44.56622" lon="1.45574">
        <ele>327.4</ele>
        <time>2021-11-21T14:50:01Z</time>
      </trkpt>
      <trkpt lat="44.56625" lon="1.4558">
        <ele>327.2</ele>
        <time>2021-11-21T14:50:06Z</time>
      </trkpt>
      <trkpt lat="44.56627" lon="1.45587">
        <ele>326.8</ele>
        <time>2021-11-21T14:50:11Z</time>
      </trkpt>
      <trkpt lat="44.5663" lon="1.45593">
        <ele>326.6</ele>
        <time>2021-11-21T14:50:16Z</time>
      </trkpt>
      <trkpt lat="44.56632" lon="1.456">
        <ele>327.1</ele>
        <time>2021-11-21T14:50:21Z</time>
      </trkpt>
      <trkpt lat="44.56634" lon="1.45606">
        <ele>328</ele>
        <time>2021-11-21T14:50:27Z</time>
      </trkpt>
      <trkpt lat="44.56636" lon="1.45612">
        <ele>329.8</ele>
        <time>2021-11-21T14:50:38Z</time>
      </trkpt>
      <trkpt lat="44.56641" lon="1.45614">
        <ele>330</ele>
        <time>2021-11-21T14:50:42Z</time>
      </trkpt>
      <trkpt lat="44.56645" lon="1.45618">
        <ele>329.8</ele>
        <time>2021-11-21T14:50:46Z</time>
      </trkpt>
      <trkpt lat="44.56648" lon="1.45624">
        <ele>329.6</ele>
        <time>2021-11-21T14:50:51Z</time>
      </trkpt>
      <trkpt lat="44.56652" lon="1.45629">
        <ele>329.7</ele>
        <time>2021-11-21T14:50:56Z</time>
      </trkpt>
      <trkpt lat="44.56657" lon="1.45633">
        <ele>330.4</ele>
        <time>2021-11-21T14:51:01Z</time>
      </trkpt>
      <trkpt lat="44.56661" lon="1.45634">
        <ele>331.3</ele>
        <time>2021-11-21T14:51:05Z</time>
      </trkpt>
      <trkpt lat="44.56666" lon="1.45632">
        <ele>332.3</ele>
        <time>2021-11-21T14:51:09Z</time>
      </trkpt>
      <trkpt lat="44.5667" lon="1.45631">
        <ele>333.4</ele>
        <time>2021-11-21T14:51:13Z</time>
      </trkpt>
      <trkpt lat="44.56675" lon="1.45628">
        <ele>334.4</ele>
        <time>2021-11-21T14:51:18Z</time>
      </trkpt>
      <trkpt lat="44.56679" lon="1.45624">
        <ele>334.9</ele>
        <time>2021-11-21T14:51:23Z</time>
      </trkpt>
      <trkpt lat="44.56684" lon="1.45621">
        <ele>335</ele>
        <time>2021-11-21T14:51:27Z</time>
      </trkpt>
      <trkpt lat="44.56688" lon="1.45618">
        <ele>335.2</ele>
        <time>2021-11-21T14:51:31Z</time>
      </trkpt>
      <trkpt lat="44.56692" lon="1.45616">
        <ele>335.5</ele>
        <time>2021-11-21T14:51:35Z</time>
      </trkpt>
      <trkpt lat="44.56697" lon="1.45613">
        <ele>335.8</ele>
        <time>2021-11-21T14:51:39Z</time>
      </trkpt>
      <trkpt lat="44.56701" lon="1.4561">
        <ele>336.1</ele>
        <time>2021-11-21T14:51:43Z</time>
      </trkpt>
      <trkpt lat="44.56705" lon="1.45607">
        <ele>336.4</ele>
        <time>2021-11-21T14:51:47Z</time>
      </trkpt>
      <trkpt lat="44.56709" lon="1.45604">
        <ele>336.8</ele>
        <time>2021-11-21T14:51:51Z</time>
      </trkpt>
      <trkpt lat="44.56713" lon="1.45601">
        <ele>337.7</ele>
        <time>2021-11-21T14:51:55Z</time>
      </trkpt>
      <trkpt lat="44.56718" lon="1.45598">
        <ele>338.9</ele>
        <time>2021-11-21T14:51:59Z</time>
      </trkpt>
      <trkpt lat="44.56722" lon="1.45594">
        <ele>340</ele>
        <time>2021-11-21T14:52:03Z</time>
      </trkpt>
      <trkpt lat="44.56726" lon="1.45591">
        <ele>340.8</ele>
        <time>2021-11-21T14:52:07Z</time>
      </trkpt>
      <trkpt lat="44.5673" lon="1.45588">
        <ele>341.6</ele>
        <time>2021-11-21T14:52:11Z</time>
      </trkpt>
      <trkpt lat="44.56734" lon="1.45585">
        <ele>342.1</ele>
        <time>2021-11-21T14:52:15Z</time>
      </trkpt>
      <trkpt lat="44.56739" lon="1.45582">
        <ele>342.6</ele>
        <time>2021-11-21T14:52:19Z</time>
      </trkpt>
      <trkpt lat="44.56743" lon="1.45579">
        <ele>342.9</ele>
        <time>2021-11-21T14:52:23Z</time>
      </trkpt>
      <trkpt lat="44.56747" lon="1.45576">
        <ele>343</ele>
        <time>2021-11-21T14:52:27Z</time>
      </trkpt>
      <trkpt lat="44.56751" lon="1.45572">
        <ele>343.2</ele>
        <time>2021-11-21T14:52:31Z</time>
      </trkpt>
      <trkpt lat="44.56755" lon="1.45569">
        <ele>343.3</ele>
        <time>2021-11-21T14:52:35Z</time>
      </trkpt>
      <trkpt lat="44.56759" lon="1.45565">
        <ele>343.4</ele>
        <time>2021-11-21T14:52:40Z</time>
      </trkpt>
      <trkpt lat="44.56764" lon="1.45561">
        <ele>343.4</ele>
        <time>2021-11-21T14:52:44Z</time>
      </trkpt>
      <trkpt lat="44.56767" lon="1.45558">
        <ele>343.3</ele>
        <time>2021-11-21T14:52:48Z</time>
      </trkpt>
      <trkpt lat="44.56772" lon="1.45554">
        <ele>343.4</ele>
        <time>2021-11-21T14:52:53Z</time>
      </trkpt>
      <trkpt lat="44.56777" lon="1.4555">
        <ele>343.6</ele>
        <time>2021-11-21T14:52:58Z</time>
      </trkpt>
      <trkpt lat="44.56782" lon="1.45547">
        <ele>343.9</ele>
        <time>2021-11-21T14:53:03Z</time>
      </trkpt>
      <trkpt lat="44.56786" lon="1.45545">
        <ele>344</ele>
        <time>2021-11-21T14:53:08Z</time>
      </trkpt>
      <trkpt lat="44.56791" lon="1.45543">
        <ele>344</ele>
        <time>2021-11-21T14:53:13Z</time>
      </trkpt>
      <trkpt lat="44.56796" lon="1.45541">
        <ele>343.9</ele>
        <time>2021-11-21T14:53:18Z</time>
      </trkpt>
      <trkpt lat="44.56801" lon="1.45539">
        <ele>343.8</ele>
        <time>2021-11-21T14:53:22Z</time>
      </trkpt>
      <trkpt lat="44.56805" lon="1.45537">
        <ele>343.6</ele>
        <time>2021-11-21T14:53:26Z</time>
      </trkpt>
      <trkpt lat="44.5681" lon="1.45535">
        <ele>343.1</ele>
        <time>2021-11-21T14:53:31Z</time>
      </trkpt>
      <trkpt lat="44.56815" lon="1.45533">
        <ele>342.9</ele>
        <time>2021-11-21T14:53:36Z</time>
      </trkpt>
      <trkpt lat="44.5682" lon="1.45529">
        <ele>342.5</ele>
        <time>2021-11-21T14:53:41Z</time>
      </trkpt>
      <trkpt lat="44.56824" lon="1.45526">
        <ele>342.2</ele>
        <time>2021-11-21T14:53:46Z</time>
      </trkpt>
      <trkpt lat="44.56828" lon="1.45522">
        <ele>341.8</ele>
        <time>2021-11-21T14:53:50Z</time>
      </trkpt>
      <trkpt lat="44.56833" lon="1.45519">
        <ele>341.1</ele>
        <time>2021-11-21T14:53:55Z</time>
      </trkpt>
      <trkpt lat="44.56838" lon="1.45516">
        <ele>340.8</ele>
        <time>2021-11-21T14:54:00Z</time>
      </trkpt>
      <trkpt lat="44.56843" lon="1.45515">
        <ele>340.7</ele>
        <time>2021-11-21T14:54:05Z</time>
      </trkpt>
      <trkpt lat="44.56848" lon="1.45515">
        <ele>340.4</ele>
        <time>2021-11-21T14:54:10Z</time>
      </trkpt>
      <trkpt lat="44.56853" lon="1.45516">
        <ele>340.6</ele>
        <time>2021-11-21T14:54:15Z</time>
      </trkpt>
      <trkpt lat="44.56858" lon="1.45518">
        <ele>340.7</ele>
        <time>2021-11-21T14:54:20Z</time>
      </trkpt>
      <trkpt lat="44.56863" lon="1.45521">
        <ele>341.1</ele>
        <time>2021-11-21T14:54:25Z</time>
      </trkpt>
      <trkpt lat="44.56867" lon="1.45524">
        <ele>341.5</ele>
        <time>2021-11-21T14:54:30Z</time>
      </trkpt>
      <trkpt lat="44.56872" lon="1.45526">
        <ele>341.7</ele>
        <time>2021-11-21T14:54:35Z</time>
      </trkpt>
      <trkpt lat="44.56877" lon="1.45526">
        <ele>341.7</ele>
        <time>2021-11-21T14:54:40Z</time>
      </trkpt>
      <trkpt lat="44.56881" lon="1.45523">
        <ele>342.1</ele>
        <time>2021-11-21T14:54:45Z</time>
      </trkpt>
      <trkpt lat="44.56885" lon="1.4552">
        <ele>342.7</ele>
        <time>2021-11-21T14:54:50Z</time>
      </trkpt>
      <trkpt lat="44.56889" lon="1.45516">
        <ele>342.8</ele>
        <time>2021-11-21T14:54:55Z</time>
      </trkpt>
      <trkpt lat="44.56893" lon="1.4551">
        <ele>343.2</ele>
        <time>2021-11-21T14:55:00Z</time>
      </trkpt>
      <trkpt lat="44.56896" lon="1.45505">
        <ele>343.5</ele>
        <time>2021-11-21T14:55:05Z</time>
      </trkpt>
      <trkpt lat="44.569" lon="1.45499">
        <ele>344.3</ele>
        <time>2021-11-21T14:55:10Z</time>
      </trkpt>
      <trkpt lat="44.56903" lon="1.45494">
        <ele>344.7</ele>
        <time>2021-11-21T14:55:15Z</time>
      </trkpt>
      <trkpt lat="44.56906" lon="1.45488">
        <ele>344.9</ele>
        <time>2021-11-21T14:55:20Z</time>
      </trkpt>
      <trkpt lat="44.56909" lon="1.45482">
        <ele>345.2</ele>
        <time>2021-11-21T14:55:25Z</time>
      </trkpt>
      <trkpt lat="44.56912" lon="1.45476">
        <ele>345</ele>
        <time>2021-11-21T14:55:30Z</time>
      </trkpt>
      <trkpt lat="44.56914" lon="1.4547">
        <ele>344.8</ele>
        <time>2021-11-21T14:55:35Z</time>
      </trkpt>
      <trkpt lat="44.56917" lon="1.45465">
        <ele>344.9</ele>
        <time>2021-11-21T14:55:40Z</time>
      </trkpt>
      <trkpt lat="44.5692" lon="1.45459">
        <ele>345.2</ele>
        <time>2021-11-21T14:55:45Z</time>
      </trkpt>
      <trkpt lat="44.56924" lon="1.45453">
        <ele>345.3</ele>
        <time>2021-11-21T14:55:50Z</time>
      </trkpt>
      <trkpt lat="44.56927" lon="1.45449">
        <ele>345.6</ele>
        <time>2021-11-21T14:55:54Z</time>
      </trkpt>
      <trkpt lat="44.5693" lon="1.45444">
        <ele>345.9</ele>
        <time>2021-11-21T14:55:59Z</time>
      </trkpt>
      <trkpt lat="44.56934" lon="1.45439">
        <ele>346.6</ele>
        <time>2021-11-21T14:56:04Z</time>
      </trkpt>
      <trkpt lat="44.56939" lon="1.45436">
        <ele>346.7</ele>
        <time>2021-11-21T14:56:09Z</time>
      </trkpt>
      <trkpt lat="44.56943" lon="1.45433">
        <ele>346.8</ele>
        <time>2021-11-21T14:56:14Z</time>
      </trkpt>
      <trkpt lat="44.56948" lon="1.45429">
        <ele>347.1</ele>
        <time>2021-11-21T14:56:19Z</time>
      </trkpt>
      <trkpt lat="44.56953" lon="1.45426">
        <ele>347.4</ele>
        <time>2021-11-21T14:56:24Z</time>
      </trkpt>
      <trkpt lat="44.56957" lon="1.45423">
        <ele>348</ele>
        <time>2021-11-21T14:56:29Z</time>
      </trkpt>
      <trkpt lat="44.56962" lon="1.45419">
        <ele>348.9</ele>
        <time>2021-11-21T14:56:34Z</time>
      </trkpt>
      <trkpt lat="44.56967" lon="1.45417">
        <ele>348.9</ele>
        <time>2021-11-21T14:56:39Z</time>
      </trkpt>
      <trkpt lat="44.56972" lon="1.45414">
        <ele>348.7</ele>
        <time>2021-11-21T14:56:44Z</time>
      </trkpt>
      <trkpt lat="44.56976" lon="1.45411">
        <ele>348.1</ele>
        <time>2021-11-21T14:56:49Z</time>
      </trkpt>
      <trkpt lat="44.5698" lon="1.45406">
        <ele>347.8</ele>
        <time>2021-11-21T14:56:54Z</time>
      </trkpt>
      <trkpt lat="44.56982" lon="1.45401">
        <ele>347.5</ele>
        <time>2021-11-21T14:56:59Z</time>
      </trkpt>
      <trkpt lat="44.56985" lon="1.45395">
        <ele>347.3</ele>
        <time>2021-11-21T14:57:04Z</time>
      </trkpt>
      <trkpt lat="44.56989" lon="1.4539">
        <ele>347.1</ele>
        <time>2021-11-21T14:57:10Z</time>
      </trkpt>
      <trkpt lat="44.56993" lon="1.45391">
        <ele>346.8</ele>
        <time>2021-11-21T14:57:16Z</time>
      </trkpt>
      <trkpt lat="44.56998" lon="1.45391">
        <ele>348.1</ele>
        <time>2021-11-21T14:57:21Z</time>
      </trkpt>
      <trkpt lat="44.56995" lon="1.45386">
        <ele>347.7</ele>
        <time>2021-11-21T14:59:25Z</time>
      </trkpt>
      <trkpt lat="44.57" lon="1.45383">
        <ele>345.9</ele>
        <time>2021-11-21T15:02:10Z</time>
      </trkpt>
      <trkpt lat="44.57004" lon="1.45382">
        <ele>345.6</ele>
        <time>2021-11-21T15:02:15Z</time>
      </trkpt>
      <trkpt lat="44.57009" lon="1.45382">
        <ele>344.9</ele>
        <time>2021-11-21T15:02:20Z</time>
      </trkpt>
      <trkpt lat="44.57014" lon="1.45382">
        <ele>343.8</ele>
        <time>2021-11-21T15:02:25Z</time>
      </trkpt>
      <trkpt lat="44.57019" lon="1.45382">
        <ele>342.5</ele>
        <time>2021-11-21T15:02:30Z</time>
      </trkpt>
      <trkpt lat="44.57024" lon="1.45382">
        <ele>341.5</ele>
        <time>2021-11-21T15:02:34Z</time>
      </trkpt>
      <trkpt lat="44.57029" lon="1.45382">
        <ele>340.8</ele>
        <time>2021-11-21T15:02:39Z</time>
      </trkpt>
      <trkpt lat="44.57034" lon="1.45381">
        <ele>340.4</ele>
        <time>2021-11-21T15:02:43Z</time>
      </trkpt>
      <trkpt lat="44.57039" lon="1.4538">
        <ele>340.3</ele>
        <time>2021-11-21T15:02:47Z</time>
      </trkpt>
      <trkpt lat="44.57043" lon="1.4538">
        <ele>340.3</ele>
        <time>2021-11-21T15:02:51Z</time>
      </trkpt>
      <trkpt lat="44.57049" lon="1.4538">
        <ele>340</ele>
        <time>2021-11-21T15:02:56Z</time>
      </trkpt>
      <trkpt lat="44.57054" lon="1.45381">
        <ele>339.4</ele>
        <time>2021-11-21T15:03:00Z</time>
      </trkpt>
      <trkpt lat="44.57058" lon="1.45381">
        <ele>339</ele>
        <time>2021-11-21T15:03:04Z</time>
      </trkpt>
      <trkpt lat="44.57063" lon="1.45382">
        <ele>338.3</ele>
        <time>2021-11-21T15:03:08Z</time>
      </trkpt>
      <trkpt lat="44.57068" lon="1.45383">
        <ele>337.9</ele>
        <time>2021-11-21T15:03:12Z</time>
      </trkpt>
      <trkpt lat="44.57072" lon="1.45384">
        <ele>337.5</ele>
        <time>2021-11-21T15:03:16Z</time>
      </trkpt>
      <trkpt lat="44.57077" lon="1.45387">
        <ele>337.3</ele>
        <time>2021-11-21T15:03:20Z</time>
      </trkpt>
      <trkpt lat="44.57081" lon="1.45389">
        <ele>337</ele>
        <time>2021-11-21T15:03:24Z</time>
      </trkpt>
      <trkpt lat="44.57085" lon="1.45392">
        <ele>336.8</ele>
        <time>2021-11-21T15:03:28Z</time>
      </trkpt>
      <trkpt lat="44.5709" lon="1.45396">
        <ele>336.8</ele>
        <time>2021-11-21T15:03:33Z</time>
      </trkpt>
      <trkpt lat="44.57094" lon="1.454">
        <ele>336.8</ele>
        <time>2021-11-21T15:03:37Z</time>
      </trkpt>
      <trkpt lat="44.57097" lon="1.45404">
        <ele>336.6</ele>
        <time>2021-11-21T15:03:41Z</time>
      </trkpt>
      <trkpt lat="44.57101" lon="1.45409">
        <ele>336.6</ele>
        <time>2021-11-21T15:03:46Z</time>
      </trkpt>
      <trkpt lat="44.57105" lon="1.45413">
        <ele>336.4</ele>
        <time>2021-11-21T15:03:50Z</time>
      </trkpt>
      <trkpt lat="44.57109" lon="1.45419">
        <ele>336.5</ele>
        <time>2021-11-21T15:03:55Z</time>
      </trkpt>
      <trkpt lat="44.57113" lon="1.45424">
        <ele>336.8</ele>
        <time>2021-11-21T15:04:00Z</time>
      </trkpt>
      <trkpt lat="44.57117" lon="1.45428">
        <ele>336.9</ele>
        <time>2021-11-21T15:04:05Z</time>
      </trkpt>
      <trkpt lat="44.57122" lon="1.45433">
        <ele>336.7</ele>
        <time>2021-11-21T15:04:10Z</time>
      </trkpt>
      <trkpt lat="44.57126" lon="1.45436">
        <ele>336.6</ele>
        <time>2021-11-21T15:04:15Z</time>
      </trkpt>
      <trkpt lat="44.57131" lon="1.45438">
        <ele>336.7</ele>
        <time>2021-11-21T15:04:19Z</time>
      </trkpt>
      <trkpt lat="44.57136" lon="1.45439">
        <ele>337.2</ele>
        <time>2021-11-21T15:04:23Z</time>
      </trkpt>
      <trkpt lat="44.57142" lon="1.45439">
        <ele>337.9</ele>
        <time>2021-11-21T15:04:28Z</time>
      </trkpt>
      <trkpt lat="44.57146" lon="1.45438">
        <ele>337.9</ele>
        <time>2021-11-21T15:04:32Z</time>
      </trkpt>
      <trkpt lat="44.57151" lon="1.45436">
        <ele>337.9</ele>
        <time>2021-11-21T15:04:37Z</time>
      </trkpt>
      <trkpt lat="44.57156" lon="1.45434">
        <ele>337.7</ele>
        <time>2021-11-21T15:04:42Z</time>
      </trkpt>
      <trkpt lat="44.57161" lon="1.45432">
        <ele>337.5</ele>
        <time>2021-11-21T15:04:47Z</time>
      </trkpt>
      <trkpt lat="44.57166" lon="1.4543">
        <ele>337.7</ele>
        <time>2021-11-21T15:04:51Z</time>
      </trkpt>
      <trkpt lat="44.57171" lon="1.45428">
        <ele>337.9</ele>
        <time>2021-11-21T15:04:56Z</time>
      </trkpt>
      <trkpt lat="44.57176" lon="1.45426">
        <ele>337.9</ele>
        <time>2021-11-21T15:05:00Z</time>
      </trkpt>
      <trkpt lat="44.5718" lon="1.45422">
        <ele>337.5</ele>
        <time>2021-11-21T15:05:05Z</time>
      </trkpt>
      <trkpt lat="44.57185" lon="1.45418">
        <ele>337.3</ele>
        <time>2021-11-21T15:05:10Z</time>
      </trkpt>
      <trkpt lat="44.57189" lon="1.45413">
        <ele>336.9</ele>
        <time>2021-11-21T15:05:15Z</time>
      </trkpt>
      <trkpt lat="44.57193" lon="1.45407">
        <ele>337</ele>
        <time>2021-11-21T15:05:20Z</time>
      </trkpt>
      <trkpt lat="44.57195" lon="1.45402">
        <ele>337.1</ele>
        <time>2021-11-21T15:05:24Z</time>
      </trkpt>
      <trkpt lat="44.57198" lon="1.45397">
        <ele>336.6</ele>
        <time>2021-11-21T15:05:28Z</time>
      </trkpt>
      <trkpt lat="44.57201" lon="1.45391">
        <ele>335.8</ele>
        <time>2021-11-21T15:05:33Z</time>
      </trkpt>
      <trkpt lat="44.57203" lon="1.45385">
        <ele>335.7</ele>
        <time>2021-11-21T15:05:37Z</time>
      </trkpt>
      <trkpt lat="44.57205" lon="1.45379">
        <ele>335.6</ele>
        <time>2021-11-21T15:05:41Z</time>
      </trkpt>
      <trkpt lat="44.57207" lon="1.45373">
        <ele>335.6</ele>
        <time>2021-11-21T15:05:46Z</time>
      </trkpt>
      <trkpt lat="44.5721" lon="1.45367">
        <ele>335.3</ele>
        <time>2021-11-21T15:05:51Z</time>
      </trkpt>
      <trkpt lat="44.57213" lon="1.45361">
        <ele>335</ele>
        <time>2021-11-21T15:05:56Z</time>
      </trkpt>
      <trkpt lat="44.57216" lon="1.45354">
        <ele>334.5</ele>
        <time>2021-11-21T15:06:01Z</time>
      </trkpt>
      <trkpt lat="44.57219" lon="1.45348">
        <ele>334.4</ele>
        <time>2021-11-21T15:06:06Z</time>
      </trkpt>
      <trkpt lat="44.57222" lon="1.45342">
        <ele>334.5</ele>
        <time>2021-11-21T15:06:11Z</time>
      </trkpt>
      <trkpt lat="44.57224" lon="1.45336">
        <ele>333</ele>
        <time>2021-11-21T15:06:16Z</time>
      </trkpt>
      <trkpt lat="44.57226" lon="1.45329">
        <ele>332.5</ele>
        <time>2021-11-21T15:06:22Z</time>
      </trkpt>
      <trkpt lat="44.57231" lon="1.45325">
        <ele>332.7</ele>
        <time>2021-11-21T15:06:27Z</time>
      </trkpt>
      <trkpt lat="44.57235" lon="1.45321">
        <ele>332.9</ele>
        <time>2021-11-21T15:06:32Z</time>
      </trkpt>
      <trkpt lat="44.57238" lon="1.45316">
        <ele>332.3</ele>
        <time>2021-11-21T15:06:37Z</time>
      </trkpt>
      <trkpt lat="44.57242" lon="1.45312">
        <ele>331.2</ele>
        <time>2021-11-21T15:06:42Z</time>
      </trkpt>
      <trkpt lat="44.57246" lon="1.45315">
        <ele>330.6</ele>
        <time>2021-11-21T15:06:47Z</time>
      </trkpt>
      <trkpt lat="44.5725" lon="1.4531">
        <ele>330.5</ele>
        <time>2021-11-21T15:06:53Z</time>
      </trkpt>
      <trkpt lat="44.57253" lon="1.45305">
        <ele>330.6</ele>
        <time>2021-11-21T15:06:58Z</time>
      </trkpt>
      <trkpt lat="44.57256" lon="1.453">
        <ele>330.6</ele>
        <time>2021-11-21T15:07:03Z</time>
      </trkpt>
      <trkpt lat="44.57261" lon="1.45295">
        <ele>330.3</ele>
        <time>2021-11-21T15:07:08Z</time>
      </trkpt>
      <trkpt lat="44.57264" lon="1.4529">
        <ele>330.4</ele>
        <time>2021-11-21T15:07:13Z</time>
      </trkpt>
      <trkpt lat="44.57268" lon="1.45286">
        <ele>330.3</ele>
        <time>2021-11-21T15:07:18Z</time>
      </trkpt>
      <trkpt lat="44.57272" lon="1.45282">
        <ele>330</ele>
        <time>2021-11-21T15:07:23Z</time>
      </trkpt>
      <trkpt lat="44.57276" lon="1.45278">
        <ele>329.9</ele>
        <time>2021-11-21T15:07:28Z</time>
      </trkpt>
      <trkpt lat="44.5728" lon="1.45274">
        <ele>329.5</ele>
        <time>2021-11-21T15:07:33Z</time>
      </trkpt>
      <trkpt lat="44.57284" lon="1.4527">
        <ele>329.4</ele>
        <time>2021-11-21T15:07:38Z</time>
      </trkpt>
      <trkpt lat="44.57288" lon="1.45265">
        <ele>329.2</ele>
        <time>2021-11-21T15:07:43Z</time>
      </trkpt>
      <trkpt lat="44.57292" lon="1.45261">
        <ele>329</ele>
        <time>2021-11-21T15:07:48Z</time>
      </trkpt>
      <trkpt lat="44.57296" lon="1.45257">
        <ele>328.4</ele>
        <time>2021-11-21T15:07:53Z</time>
      </trkpt>
      <trkpt lat="44.573" lon="1.45253">
        <ele>327.8</ele>
        <time>2021-11-21T15:07:58Z</time>
      </trkpt>
      <trkpt lat="44.57304" lon="1.45249">
        <ele>327.5</ele>
        <time>2021-11-21T15:08:03Z</time>
      </trkpt>
      <trkpt lat="44.57308" lon="1.45246">
        <ele>326.9</ele>
        <time>2021-11-21T15:08:08Z</time>
      </trkpt>
      <trkpt lat="44.57312" lon="1.45242">
        <ele>326.3</ele>
        <time>2021-11-21T15:08:13Z</time>
      </trkpt>
      <trkpt lat="44.57315" lon="1.45237">
        <ele>325.9</ele>
        <time>2021-11-21T15:08:18Z</time>
      </trkpt>
      <trkpt lat="44.57319" lon="1.45233">
        <ele>325.8</ele>
        <time>2021-11-21T15:08:23Z</time>
      </trkpt>
      <trkpt lat="44.57323" lon="1.45229">
        <ele>325.1</ele>
        <time>2021-11-21T15:08:28Z</time>
      </trkpt>
      <trkpt lat="44.57327" lon="1.45225">
        <ele>324.3</ele>
        <time>2021-11-21T15:08:33Z</time>
      </trkpt>
      <trkpt lat="44.5733" lon="1.4522">
        <ele>323.2</ele>
        <time>2021-11-21T15:08:38Z</time>
      </trkpt>
      <trkpt lat="44.57334" lon="1.45216">
        <ele>322.5</ele>
        <time>2021-11-21T15:08:43Z</time>
      </trkpt>
      <trkpt lat="44.57338" lon="1.45211">
        <ele>322.1</ele>
        <time>2021-11-21T15:08:48Z</time>
      </trkpt>
      <trkpt lat="44.57343" lon="1.45208">
        <ele>321.6</ele>
        <time>2021-11-21T15:08:53Z</time>
      </trkpt>
      <trkpt lat="44.57347" lon="1.45204">
        <ele>321.2</ele>
        <time>2021-11-21T15:08:58Z</time>
      </trkpt>
      <trkpt lat="44.57351" lon="1.45199">
        <ele>320.9</ele>
        <time>2021-11-21T15:09:03Z</time>
      </trkpt>
      <trkpt lat="44.57355" lon="1.45195">
        <ele>320.4</ele>
        <time>2021-11-21T15:09:08Z</time>
      </trkpt>
      <trkpt lat="44.57359" lon="1.45191">
        <ele>319.8</ele>
        <time>2021-11-21T15:09:13Z</time>
      </trkpt>
      <trkpt lat="44.57363" lon="1.45186">
        <ele>319.4</ele>
        <time>2021-11-21T15:09:18Z</time>
      </trkpt>
      <trkpt lat="44.57367" lon="1.45182">
        <ele>318.8</ele>
        <time>2021-11-21T15:09:23Z</time>
      </trkpt>
      <trkpt lat="44.57371" lon="1.45177">
        <ele>318.1</ele>
        <time>2021-11-21T15:09:28Z</time>
      </trkpt>
      <trkpt lat="44.57375" lon="1.45173">
        <ele>317.6</ele>
        <time>2021-11-21T15:09:33Z</time>
      </trkpt>
      <trkpt lat="44.57379" lon="1.45169">
        <ele>317.3</ele>
        <time>2021-11-21T15:09:38Z</time>
      </trkpt>
      <trkpt lat="44.57383" lon="1.45165">
        <ele>316.6</ele>
        <time>2021-11-21T15:09:43Z</time>
      </trkpt>
      <trkpt lat="44.57387" lon="1.45161">
        <ele>316.3</ele>
        <time>2021-11-21T15:09:47Z</time>
      </trkpt>
      <trkpt lat="44.57392" lon="1.45157">
        <ele>315.5</ele>
        <time>2021-11-21T15:09:52Z</time>
      </trkpt>
      <trkpt lat="44.57396" lon="1.45152">
        <ele>315.1</ele>
        <time>2021-11-21T15:09:57Z</time>
      </trkpt>
      <trkpt lat="44.57401" lon="1.45148">
        <ele>314.4</ele>
        <time>2021-11-21T15:10:02Z</time>
      </trkpt>
      <trkpt lat="44.57404" lon="1.45144">
        <ele>314.2</ele>
        <time>2021-11-21T15:10:06Z</time>
      </trkpt>
      <trkpt lat="44.57409" lon="1.4514">
        <ele>314</ele>
        <time>2021-11-21T15:10:11Z</time>
      </trkpt>
      <trkpt lat="44.57414" lon="1.45136">
        <ele>313.3</ele>
        <time>2021-11-21T15:10:16Z</time>
      </trkpt>
      <trkpt lat="44.57418" lon="1.45133">
        <ele>312.8</ele>
        <time>2021-11-21T15:10:21Z</time>
      </trkpt>
      <trkpt lat="44.57423" lon="1.45129">
        <ele>312.1</ele>
        <time>2021-11-21T15:10:26Z</time>
      </trkpt>
      <trkpt lat="44.57428" lon="1.45126">
        <ele>310.8</ele>
        <time>2021-11-21T15:10:31Z</time>
      </trkpt>
      <trkpt lat="44.57432" lon="1.45123">
        <ele>309.8</ele>
        <time>2021-11-21T15:10:35Z</time>
      </trkpt>
      <trkpt lat="44.57437" lon="1.45118">
        <ele>309.2</ele>
        <time>2021-11-21T15:10:40Z</time>
      </trkpt>
      <trkpt lat="44.57442" lon="1.45115">
        <ele>308.6</ele>
        <time>2021-11-21T15:10:45Z</time>
      </trkpt>
      <trkpt lat="44.57445" lon="1.4511">
        <ele>307.7</ele>
        <time>2021-11-21T15:10:51Z</time>
      </trkpt>
      <trkpt lat="44.5745" lon="1.45107">
        <ele>307</ele>
        <time>2021-11-21T15:11:02Z</time>
      </trkpt>
      <trkpt lat="44.57455" lon="1.45105">
        <ele>306.6</ele>
        <time>2021-11-21T15:11:07Z</time>
      </trkpt>
      <trkpt lat="44.57459" lon="1.45103">
        <ele>305.9</ele>
        <time>2021-11-21T15:11:12Z</time>
      </trkpt>
      <trkpt lat="44.57464" lon="1.45101">
        <ele>305.4</ele>
        <time>2021-11-21T15:11:17Z</time>
      </trkpt>
      <trkpt lat="44.57469" lon="1.45099">
        <ele>305.2</ele>
        <time>2021-11-21T15:11:21Z</time>
      </trkpt>
      <trkpt lat="44.57473" lon="1.45098">
        <ele>305.1</ele>
        <time>2021-11-21T15:11:25Z</time>
      </trkpt>
      <trkpt lat="44.57478" lon="1.45097">
        <ele>305.1</ele>
        <time>2021-11-21T15:11:29Z</time>
      </trkpt>
      <trkpt lat="44.57483" lon="1.45096">
        <ele>305.2</ele>
        <time>2021-11-21T15:11:33Z</time>
      </trkpt>
      <trkpt lat="44.57488" lon="1.45094">
        <ele>305.6</ele>
        <time>2021-11-21T15:11:37Z</time>
      </trkpt>
      <trkpt lat="44.57493" lon="1.45093">
        <ele>306.7</ele>
        <time>2021-11-21T15:11:41Z</time>
      </trkpt>
      <trkpt lat="44.57498" lon="1.45091">
        <ele>307.4</ele>
        <time>2021-11-21T15:11:45Z</time>
      </trkpt>
      <trkpt lat="44.57503" lon="1.45091">
        <ele>309.3</ele>
        <time>2021-11-21T15:11:58Z</time>
      </trkpt>
      <trkpt lat="44.57507" lon="1.45089">
        <ele>309</ele>
        <time>2021-11-21T15:12:03Z</time>
      </trkpt>
      <trkpt lat="44.57512" lon="1.45086">
        <ele>308.1</ele>
        <time>2021-11-21T15:12:08Z</time>
      </trkpt>
      <trkpt lat="44.57516" lon="1.45084">
        <ele>307.4</ele>
        <time>2021-11-21T15:12:13Z</time>
      </trkpt>
      <trkpt lat="44.5752" lon="1.4508">
        <ele>307.1</ele>
        <time>2021-11-21T15:12:18Z</time>
      </trkpt>
      <trkpt lat="44.57524" lon="1.45077">
        <ele>306.7</ele>
        <time>2021-11-21T15:12:23Z</time>
      </trkpt>
      <trkpt lat="44.57529" lon="1.45072">
        <ele>307</ele>
        <time>2021-11-21T15:12:28Z</time>
      </trkpt>
      <trkpt lat="44.57533" lon="1.45068">
        <ele>307.6</ele>
        <time>2021-11-21T15:12:32Z</time>
      </trkpt>
      <trkpt lat="44.57537" lon="1.45064">
        <ele>308.6</ele>
        <time>2021-11-21T15:12:37Z</time>
      </trkpt>
      <trkpt lat="44.57542" lon="1.45064">
        <ele>309</ele>
        <time>2021-11-21T15:12:44Z</time>
      </trkpt>
      <trkpt lat="44.57545" lon="1.45058">
        <ele>308.4</ele>
        <time>2021-11-21T15:13:02Z</time>
      </trkpt>
      <trkpt lat="44.57549" lon="1.45054">
        <ele>308.7</ele>
        <time>2021-11-21T15:13:07Z</time>
      </trkpt>
      <trkpt lat="44.57553" lon="1.4505">
        <ele>308.7</ele>
        <time>2021-11-21T15:13:12Z</time>
      </trkpt>
      <trkpt lat="44.57557" lon="1.45047">
        <ele>308.6</ele>
        <time>2021-11-21T15:13:17Z</time>
      </trkpt>
      <trkpt lat="44.57562" lon="1.45047">
        <ele>308.7</ele>
        <time>2021-11-21T15:13:23Z</time>
      </trkpt>
      <trkpt lat="44.57566" lon="1.45044">
        <ele>309.2</ele>
        <time>2021-11-21T15:13:28Z</time>
      </trkpt>
      <trkpt lat="44.5757" lon="1.4504">
        <ele>309.4</ele>
        <time>2021-11-21T15:13:33Z</time>
      </trkpt>
      <trkpt lat="44.57575" lon="1.45037">
        <ele>309.8</ele>
        <time>2021-11-21T15:13:59Z</time>
      </trkpt>
      <trkpt lat="44.57579" lon="1.45034">
        <ele>309.3</ele>
        <time>2021-11-21T15:14:04Z</time>
      </trkpt>
      <trkpt lat="44.57583" lon="1.45031">
        <ele>308</ele>
        <time>2021-11-21T15:14:09Z</time>
      </trkpt>
      <trkpt lat="44.57587" lon="1.45025">
        <ele>307.3</ele>
        <time>2021-11-21T15:14:14Z</time>
      </trkpt>
      <trkpt lat="44.57589" lon="1.4502">
        <ele>307.1</ele>
        <time>2021-11-21T15:14:18Z</time>
      </trkpt>
      <trkpt lat="44.57593" lon="1.45014">
        <ele>307</ele>
        <time>2021-11-21T15:14:23Z</time>
      </trkpt>
      <trkpt lat="44.57596" lon="1.45009">
        <ele>307.2</ele>
        <time>2021-11-21T15:14:27Z</time>
      </trkpt>
      <trkpt lat="44.576" lon="1.45005">
        <ele>307.2</ele>
        <time>2021-11-21T15:14:31Z</time>
      </trkpt>
      <trkpt lat="44.57603" lon="1.45">
        <ele>307.1</ele>
        <time>2021-11-21T15:14:35Z</time>
      </trkpt>
      <trkpt lat="44.57606" lon="1.44996">
        <ele>307.5</ele>
        <time>2021-11-21T15:14:39Z</time>
      </trkpt>
      <trkpt lat="44.5761" lon="1.4499">
        <ele>307.7</ele>
        <time>2021-11-21T15:14:44Z</time>
      </trkpt>
      <trkpt lat="44.57613" lon="1.44985">
        <ele>306.9</ele>
        <time>2021-11-21T15:14:49Z</time>
      </trkpt>
      <trkpt lat="44.57617" lon="1.4498">
        <ele>306.9</ele>
        <time>2021-11-21T15:14:54Z</time>
      </trkpt>
      <trkpt lat="44.57621" lon="1.44977">
        <ele>305.4</ele>
        <time>2021-11-21T15:15:40Z</time>
      </trkpt>
      <trkpt lat="44.57622" lon="1.4497">
        <ele>305.9</ele>
        <time>2021-11-21T15:15:46Z</time>
      </trkpt>
      <trkpt lat="44.57625" lon="1.44965">
        <ele>305.9</ele>
        <time>2021-11-21T15:15:52Z</time>
      </trkpt>
      <trkpt lat="44.57627" lon="1.44958">
        <ele>306.5</ele>
        <time>2021-11-21T15:15:58Z</time>
      </trkpt>
      <trkpt lat="44.57631" lon="1.44954">
        <ele>306.3</ele>
        <time>2021-11-21T15:16:04Z</time>
      </trkpt>
      <trkpt lat="44.57634" lon="1.44948">
        <ele>306.8</ele>
        <time>2021-11-21T15:16:10Z</time>
      </trkpt>
      <trkpt lat="44.57635" lon="1.44941">
        <ele>307.3</ele>
        <time>2021-11-21T15:16:16Z</time>
      </trkpt>
      <trkpt lat="44.57637" lon="1.44935">
        <ele>307.7</ele>
        <time>2021-11-21T15:16:21Z</time>
      </trkpt>
      <trkpt lat="44.5764" lon="1.44928">
        <ele>308.5</ele>
        <time>2021-11-21T15:16:26Z</time>
      </trkpt>
      <trkpt lat="44.57638" lon="1.44922">
        <ele>309.4</ele>
        <time>2021-11-21T15:16:32Z</time>
      </trkpt>
      <trkpt lat="44.5764" lon="1.44915">
        <ele>308.8</ele>
        <time>2021-11-21T15:16:37Z</time>
      </trkpt>
      <trkpt lat="44.57644" lon="1.44909">
        <ele>308.7</ele>
        <time>2021-11-21T15:16:42Z</time>
      </trkpt>
      <trkpt lat="44.57647" lon="1.44903">
        <ele>308.6</ele>
        <time>2021-11-21T15:16:47Z</time>
      </trkpt>
      <trkpt lat="44.57649" lon="1.44897">
        <ele>309</ele>
        <time>2021-11-21T15:16:51Z</time>
      </trkpt>
      <trkpt lat="44.57651" lon="1.44891">
        <ele>308.8</ele>
        <time>2021-11-21T15:16:55Z</time>
      </trkpt>
      <trkpt lat="44.57653" lon="1.44884">
        <ele>309.7</ele>
        <time>2021-11-21T15:16:59Z</time>
      </trkpt>
      <trkpt lat="44.57655" lon="1.44878">
        <ele>310</ele>
        <time>2021-11-21T15:17:03Z</time>
      </trkpt>
      <trkpt lat="44.57657" lon="1.44873">
        <ele>310.2</ele>
        <time>2021-11-21T15:17:07Z</time>
      </trkpt>
      <trkpt lat="44.57659" lon="1.44867">
        <ele>310</ele>
        <time>2021-11-21T15:17:11Z</time>
      </trkpt>
      <trkpt lat="44.57661" lon="1.44861">
        <ele>310.5</ele>
        <time>2021-11-21T15:17:15Z</time>
      </trkpt>
      <trkpt lat="44.57663" lon="1.44855">
        <ele>310.9</ele>
        <time>2021-11-21T15:17:19Z</time>
      </trkpt>
      <trkpt lat="44.57665" lon="1.44849">
        <ele>310.9</ele>
        <time>2021-11-21T15:17:23Z</time>
      </trkpt>
      <trkpt lat="44.57667" lon="1.44844">
        <ele>309.9</ele>
        <time>2021-11-21T15:17:27Z</time>
      </trkpt>
      <trkpt lat="44.57669" lon="1.44838">
        <ele>308.7</ele>
        <time>2021-11-21T15:17:31Z</time>
      </trkpt>
      <trkpt lat="44.57672" lon="1.44832">
        <ele>307.5</ele>
        <time>2021-11-21T15:17:36Z</time>
      </trkpt>
      <trkpt lat="44.57674" lon="1.44825">
        <ele>306.6</ele>
        <time>2021-11-21T15:17:41Z</time>
      </trkpt>
      <trkpt lat="44.57676" lon="1.44818">
        <ele>305.9</ele>
        <time>2021-11-21T15:17:46Z</time>
      </trkpt>
      <trkpt lat="44.57677" lon="1.4481">
        <ele>305.8</ele>
        <time>2021-11-21T15:17:51Z</time>
      </trkpt>
      <trkpt lat="44.57677" lon="1.44803">
        <ele>307</ele>
        <time>2021-11-21T15:17:56Z</time>
      </trkpt>
      <trkpt lat="44.57678" lon="1.44796">
        <ele>308</ele>
        <time>2021-11-21T15:18:01Z</time>
      </trkpt>
      <trkpt lat="44.57679" lon="1.44789">
        <ele>308.3</ele>
        <time>2021-11-21T15:18:05Z</time>
      </trkpt>
      <trkpt lat="44.57681" lon="1.44782">
        <ele>308.5</ele>
        <time>2021-11-21T15:18:10Z</time>
      </trkpt>
      <trkpt lat="44.57682" lon="1.44774">
        <ele>308.8</ele>
        <time>2021-11-21T15:18:15Z</time>
      </trkpt>
      <trkpt lat="44.57683" lon="1.44767">
        <ele>309.2</ele>
        <time>2021-11-21T15:18:20Z</time>
      </trkpt>
      <trkpt lat="44.57684" lon="1.4476">
        <ele>310.5</ele>
        <time>2021-11-21T15:18:25Z</time>
      </trkpt>
      <trkpt lat="44.57685" lon="1.44753">
        <ele>311.8</ele>
        <time>2021-11-21T15:18:30Z</time>
      </trkpt>
      <trkpt lat="44.57686" lon="1.44747">
        <ele>313.1</ele>
        <time>2021-11-21T15:18:35Z</time>
      </trkpt>
      <trkpt lat="44.57689" lon="1.44741">
        <ele>313.7</ele>
        <time>2021-11-21T15:18:40Z</time>
      </trkpt>
      <trkpt lat="44.57692" lon="1.44736">
        <ele>314.1</ele>
        <time>2021-11-21T15:18:45Z</time>
      </trkpt>
      <trkpt lat="44.57696" lon="1.44731">
        <ele>313.8</ele>
        <time>2021-11-21T15:18:50Z</time>
      </trkpt>
      <trkpt lat="44.57699" lon="1.44725">
        <ele>314</ele>
        <time>2021-11-21T15:18:55Z</time>
      </trkpt>
      <trkpt lat="44.57701" lon="1.44719">
        <ele>313.7</ele>
        <time>2021-11-21T15:19:00Z</time>
      </trkpt>
      <trkpt lat="44.57703" lon="1.44712">
        <ele>314.2</ele>
        <time>2021-11-21T15:19:05Z</time>
      </trkpt>
      <trkpt lat="44.57705" lon="1.44706">
        <ele>314.6</ele>
        <time>2021-11-21T15:19:10Z</time>
      </trkpt>
      <trkpt lat="44.57707" lon="1.447">
        <ele>314.3</ele>
        <time>2021-11-21T15:19:15Z</time>
      </trkpt>
      <trkpt lat="44.57708" lon="1.44694">
        <ele>310.5</ele>
        <time>2021-11-21T15:19:26Z</time>
      </trkpt>
      <trkpt lat="44.57711" lon="1.44688">
        <ele>309.7</ele>
        <time>2021-11-21T15:20:13Z</time>
      </trkpt>
      <trkpt lat="44.57713" lon="1.44683">
        <ele>310.2</ele>
        <time>2021-11-21T15:20:19Z</time>
      </trkpt>
      <trkpt lat="44.57716" lon="1.44677">
        <ele>310.7</ele>
        <time>2021-11-21T15:20:25Z</time>
      </trkpt>
      <trkpt lat="44.57718" lon="1.44671">
        <ele>311.5</ele>
        <time>2021-11-21T15:20:30Z</time>
      </trkpt>
      <trkpt lat="44.5772" lon="1.44664">
        <ele>312.3</ele>
        <time>2021-11-21T15:20:35Z</time>
      </trkpt>
      <trkpt lat="44.57723" lon="1.44658">
        <ele>312.2</ele>
        <time>2021-11-21T15:20:40Z</time>
      </trkpt>
      <trkpt lat="44.57725" lon="1.44652">
        <ele>312</ele>
        <time>2021-11-21T15:20:45Z</time>
      </trkpt>
      <trkpt lat="44.57727" lon="1.44646">
        <ele>312.4</ele>
        <time>2021-11-21T15:20:49Z</time>
      </trkpt>
      <trkpt lat="44.57729" lon="1.44639">
        <ele>313.1</ele>
        <time>2021-11-21T15:20:53Z</time>
      </trkpt>
      <trkpt lat="44.5773" lon="1.44633">
        <ele>313.9</ele>
        <time>2021-11-21T15:20:57Z</time>
      </trkpt>
      <trkpt lat="44.57732" lon="1.44627">
        <ele>314.5</ele>
        <time>2021-11-21T15:21:08Z</time>
      </trkpt>
      <trkpt lat="44.57735" lon="1.44621">
        <ele>314</ele>
        <time>2021-11-21T15:21:13Z</time>
      </trkpt>
      <trkpt lat="44.57738" lon="1.44616">
        <ele>313.3</ele>
        <time>2021-11-21T15:21:18Z</time>
      </trkpt>
      <trkpt lat="44.57741" lon="1.44611">
        <ele>313.2</ele>
        <time>2021-11-21T15:21:23Z</time>
      </trkpt>
      <trkpt lat="44.57744" lon="1.44606">
        <ele>312.5</ele>
        <time>2021-11-21T15:21:28Z</time>
      </trkpt>
      <trkpt lat="44.57747" lon="1.446">
        <ele>310.5</ele>
        <time>2021-11-21T15:21:34Z</time>
      </trkpt>
      <trkpt lat="44.57749" lon="1.44594">
        <ele>310.8</ele>
        <time>2021-11-21T15:21:38Z</time>
      </trkpt>
      <trkpt lat="44.57752" lon="1.44588">
        <ele>311.3</ele>
        <time>2021-11-21T15:21:43Z</time>
      </trkpt>
      <trkpt lat="44.57755" lon="1.44582">
        <ele>311.5</ele>
        <time>2021-11-21T15:21:47Z</time>
      </trkpt>
      <trkpt lat="44.57758" lon="1.44576">
        <ele>312.6</ele>
        <time>2021-11-21T15:21:51Z</time>
      </trkpt>
      <trkpt lat="44.57762" lon="1.4457">
        <ele>313.7</ele>
        <time>2021-11-21T15:21:55Z</time>
      </trkpt>
      <trkpt lat="44.57764" lon="1.44565">
        <ele>314.3</ele>
        <time>2021-11-21T15:21:59Z</time>
      </trkpt>
      <trkpt lat="44.57767" lon="1.44559">
        <ele>314.5</ele>
        <time>2021-11-21T15:22:03Z</time>
      </trkpt>
      <trkpt lat="44.5777" lon="1.44554">
        <ele>313.9</ele>
        <time>2021-11-21T15:22:08Z</time>
      </trkpt>
      <trkpt lat="44.57774" lon="1.44548">
        <ele>313.6</ele>
        <time>2021-11-21T15:22:13Z</time>
      </trkpt>
      <trkpt lat="44.57777" lon="1.44542">
        <ele>314.1</ele>
        <time>2021-11-21T15:22:18Z</time>
      </trkpt>
      <trkpt lat="44.5778" lon="1.44536">
        <ele>315.3</ele>
        <time>2021-11-21T15:22:22Z</time>
      </trkpt>
      <trkpt lat="44.57783" lon="1.4453">
        <ele>315.9</ele>
        <time>2021-11-21T15:22:26Z</time>
      </trkpt>
      <trkpt lat="44.57786" lon="1.44525">
        <ele>315.9</ele>
        <time>2021-11-21T15:22:31Z</time>
      </trkpt>
      <trkpt lat="44.5779" lon="1.44519">
        <ele>315.9</ele>
        <time>2021-11-21T15:22:36Z</time>
      </trkpt>
      <trkpt lat="44.57793" lon="1.44513">
        <ele>316.4</ele>
        <time>2021-11-21T15:22:41Z</time>
      </trkpt>
      <trkpt lat="44.57796" lon="1.44507">
        <ele>316.3</ele>
        <time>2021-11-21T15:22:46Z</time>
      </trkpt>
      <trkpt lat="44.57799" lon="1.44501">
        <ele>316.9</ele>
        <time>2021-11-21T15:22:51Z</time>
      </trkpt>
      <trkpt lat="44.57802" lon="1.44495">
        <ele>317.5</ele>
        <time>2021-11-21T15:22:56Z</time>
      </trkpt>
      <trkpt lat="44.57805" lon="1.44489">
        <ele>317.4</ele>
        <time>2021-11-21T15:23:01Z</time>
      </trkpt>
      <trkpt lat="44.57808" lon="1.44483">
        <ele>317.9</ele>
        <time>2021-11-21T15:23:06Z</time>
      </trkpt>
      <trkpt lat="44.5781" lon="1.44476">
        <ele>318.2</ele>
        <time>2021-11-21T15:23:10Z</time>
      </trkpt>
      <trkpt lat="44.57813" lon="1.4447">
        <ele>318.8</ele>
        <time>2021-11-21T15:23:14Z</time>
      </trkpt>
      <trkpt lat="44.57815" lon="1.44463">
        <ele>319.1</ele>
        <time>2021-11-21T15:23:18Z</time>
      </trkpt>
      <trkpt lat="44.57817" lon="1.44457">
        <ele>318.9</ele>
        <time>2021-11-21T15:23:23Z</time>
      </trkpt>
      <trkpt lat="44.57819" lon="1.44451">
        <ele>316.3</ele>
        <time>2021-11-21T15:23:28Z</time>
      </trkpt>
      <trkpt lat="44.5782" lon="1.44445">
        <ele>315.3</ele>
        <time>2021-11-21T15:23:33Z</time>
      </trkpt>
      <trkpt lat="44.57821" lon="1.44438">
        <ele>315.3</ele>
        <time>2021-11-21T15:23:38Z</time>
      </trkpt>
      <trkpt lat="44.57822" lon="1.44431">
        <ele>315.2</ele>
        <time>2021-11-21T15:23:44Z</time>
      </trkpt>
      <trkpt lat="44.57822" lon="1.44425">
        <ele>313</ele>
        <time>2021-11-21T15:23:51Z</time>
      </trkpt>
      <trkpt lat="44.57825" lon="1.44419">
        <ele>312.4</ele>
        <time>2021-11-21T15:23:57Z</time>
      </trkpt>
      <trkpt lat="44.57826" lon="1.44413">
        <ele>312.5</ele>
        <time>2021-11-21T15:24:03Z</time>
      </trkpt>
      <trkpt lat="44.57827" lon="1.44406">
        <ele>311.7</ele>
        <time>2021-11-21T15:24:16Z</time>
      </trkpt>
      <trkpt lat="44.57828" lon="1.44399">
        <ele>310.6</ele>
        <time>2021-11-21T15:24:30Z</time>
      </trkpt>
      <trkpt lat="44.57827" lon="1.44392">
        <ele>309.3</ele>
        <time>2021-11-21T15:24:38Z</time>
      </trkpt>
      <trkpt lat="44.57828" lon="1.44386">
        <ele>307.9</ele>
        <time>2021-11-21T15:24:44Z</time>
      </trkpt>
      <trkpt lat="44.5783" lon="1.44379">
        <ele>306.9</ele>
        <time>2021-11-21T15:24:52Z</time>
      </trkpt>
      <trkpt lat="44.5783" lon="1.44372">
        <ele>305.9</ele>
        <time>2021-11-21T15:24:58Z</time>
      </trkpt>
      <trkpt lat="44.57831" lon="1.44365">
        <ele>304.7</ele>
        <time>2021-11-21T15:25:03Z</time>
      </trkpt>
      <trkpt lat="44.57831" lon="1.44358">
        <ele>303.3</ele>
        <time>2021-11-21T15:25:09Z</time>
      </trkpt>
      <trkpt lat="44.57832" lon="1.44351">
        <ele>302.4</ele>
        <time>2021-11-21T15:25:14Z</time>
      </trkpt>
      <trkpt lat="44.57833" lon="1.44344">
        <ele>301.7</ele>
        <time>2021-11-21T15:25:19Z</time>
      </trkpt>
      <trkpt lat="44.57834" lon="1.44337">
        <ele>300.8</ele>
        <time>2021-11-21T15:25:25Z</time>
      </trkpt>
      <trkpt lat="44.57835" lon="1.44331">
        <ele>300.1</ele>
        <time>2021-11-21T15:25:30Z</time>
      </trkpt>
      <trkpt lat="44.57837" lon="1.44325">
        <ele>298.9</ele>
        <time>2021-11-21T15:25:35Z</time>
      </trkpt>
      <trkpt lat="44.57839" lon="1.44318">
        <ele>298</ele>
        <time>2021-11-21T15:25:41Z</time>
      </trkpt>
      <trkpt lat="44.57841" lon="1.44313">
        <ele>297.5</ele>
        <time>2021-11-21T15:25:47Z</time>
      </trkpt>
      <trkpt lat="44.57843" lon="1.44307">
        <ele>297.6</ele>
        <time>2021-11-21T15:25:52Z</time>
      </trkpt>
      <trkpt lat="44.57845" lon="1.44299">
        <ele>297.8</ele>
        <time>2021-11-21T15:25:56Z</time>
      </trkpt>
      <trkpt lat="44.57847" lon="1.44294">
        <ele>297.3</ele>
        <time>2021-11-21T15:26:00Z</time>
      </trkpt>
      <trkpt lat="44.57849" lon="1.44287">
        <ele>296.5</ele>
        <time>2021-11-21T15:26:06Z</time>
      </trkpt>
      <trkpt lat="44.5785" lon="1.44279">
        <ele>295.6</ele>
        <time>2021-11-21T15:26:12Z</time>
      </trkpt>
      <trkpt lat="44.57851" lon="1.44272">
        <ele>294.5</ele>
        <time>2021-11-21T15:26:17Z</time>
      </trkpt>
      <trkpt lat="44.57852" lon="1.44265">
        <ele>293.5</ele>
        <time>2021-11-21T15:26:22Z</time>
      </trkpt>
      <trkpt lat="44.57853" lon="1.44258">
        <ele>292.6</ele>
        <time>2021-11-21T15:26:27Z</time>
      </trkpt>
      <trkpt lat="44.57853" lon="1.44251">
        <ele>291.9</ele>
        <time>2021-11-21T15:26:32Z</time>
      </trkpt>
      <trkpt lat="44.57854" lon="1.44245">
        <ele>291.4</ele>
        <time>2021-11-21T15:26:37Z</time>
      </trkpt>
      <trkpt lat="44.57854" lon="1.44238">
        <ele>291.1</ele>
        <time>2021-11-21T15:26:42Z</time>
      </trkpt>
      <trkpt lat="44.57853" lon="1.44231">
        <ele>291.1</ele>
        <time>2021-11-21T15:26:47Z</time>
      </trkpt>
      <trkpt lat="44.57852" lon="1.44224">
        <ele>290.5</ele>
        <time>2021-11-21T15:26:52Z</time>
      </trkpt>
      <trkpt lat="44.57852" lon="1.44217">
        <ele>289.9</ele>
        <time>2021-11-21T15:26:57Z</time>
      </trkpt>
      <trkpt lat="44.57853" lon="1.44211">
        <ele>288.9</ele>
        <time>2021-11-21T15:27:02Z</time>
      </trkpt>
      <trkpt lat="44.57853" lon="1.44204">
        <ele>288.3</ele>
        <time>2021-11-21T15:27:07Z</time>
      </trkpt>
      <trkpt lat="44.57855" lon="1.44197">
        <ele>287.9</ele>
        <time>2021-11-21T15:27:12Z</time>
      </trkpt>
      <trkpt lat="44.57857" lon="1.44191">
        <ele>286.9</ele>
        <time>2021-11-21T15:27:17Z</time>
      </trkpt>
      <trkpt lat="44.5786" lon="1.44186">
        <ele>285.8</ele>
        <time>2021-11-21T15:27:22Z</time>
      </trkpt>
      <trkpt lat="44.57862" lon="1.4418">
        <ele>284.5</ele>
        <time>2021-11-21T15:27:27Z</time>
      </trkpt>
      <trkpt lat="44.57865" lon="1.44175">
        <ele>283.5</ele>
        <time>2021-11-21T15:27:32Z</time>
      </trkpt>
      <trkpt lat="44.57868" lon="1.4417">
        <ele>282.6</ele>
        <time>2021-11-21T15:27:37Z</time>
      </trkpt>
      <trkpt lat="44.57872" lon="1.44165">
        <ele>281.8</ele>
        <time>2021-11-21T15:27:42Z</time>
      </trkpt>
      <trkpt lat="44.57876" lon="1.44161">
        <ele>281.4</ele>
        <time>2021-11-21T15:27:47Z</time>
      </trkpt>
      <trkpt lat="44.5788" lon="1.44158">
        <ele>280.4</ele>
        <time>2021-11-21T15:27:52Z</time>
      </trkpt>
      <trkpt lat="44.57885" lon="1.44155">
        <ele>279.5</ele>
        <time>2021-11-21T15:27:57Z</time>
      </trkpt>
      <trkpt lat="44.5789" lon="1.44155">
        <ele>278.5</ele>
        <time>2021-11-21T15:28:02Z</time>
      </trkpt>
      <trkpt lat="44.57895" lon="1.44156">
        <ele>277.3</ele>
        <time>2021-11-21T15:28:07Z</time>
      </trkpt>
      <trkpt lat="44.579" lon="1.44158">
        <ele>276.2</ele>
        <time>2021-11-21T15:28:12Z</time>
      </trkpt>
      <trkpt lat="44.57904" lon="1.44156">
        <ele>275.5</ele>
        <time>2021-11-21T15:28:17Z</time>
      </trkpt>
      <trkpt lat="44.57905" lon="1.44149">
        <ele>276.9</ele>
        <time>2021-11-21T15:28:32Z</time>
      </trkpt>
      <trkpt lat="44.57906" lon="1.44143">
        <ele>276.9</ele>
        <time>2021-11-21T15:28:38Z</time>
      </trkpt>
      <trkpt lat="44.57906" lon="1.44136">
        <ele>276</ele>
        <time>2021-11-21T15:28:45Z</time>
      </trkpt>
      <trkpt lat="44.57905" lon="1.44128">
        <ele>275</ele>
        <time>2021-11-21T15:28:51Z</time>
      </trkpt>
      <trkpt lat="44.57904" lon="1.44122">
        <ele>274.4</ele>
        <time>2021-11-21T15:28:56Z</time>
      </trkpt>
      <trkpt lat="44.57902" lon="1.44115">
        <ele>274.4</ele>
        <time>2021-11-21T15:29:01Z</time>
      </trkpt>
      <trkpt lat="44.57899" lon="1.4411">
        <ele>273.7</ele>
        <time>2021-11-21T15:29:07Z</time>
      </trkpt>
      <trkpt lat="44.57894" lon="1.44107">
        <ele>272.9</ele>
        <time>2021-11-21T15:29:13Z</time>
      </trkpt>
      <trkpt lat="44.57889" lon="1.44106">
        <ele>271.9</ele>
        <time>2021-11-21T15:29:19Z</time>
      </trkpt>
      <trkpt lat="44.57883" lon="1.44106">
        <ele>271.6</ele>
        <time>2021-11-21T15:29:24Z</time>
      </trkpt>
      <trkpt lat="44.57879" lon="1.44107">
        <ele>271.7</ele>
        <time>2021-11-21T15:29:28Z</time>
      </trkpt>
      <trkpt lat="44.57874" lon="1.44108">
        <ele>271.7</ele>
        <time>2021-11-21T15:29:32Z</time>
      </trkpt>
      <trkpt lat="44.5787" lon="1.4411">
        <ele>271.9</ele>
        <time>2021-11-21T15:29:36Z</time>
      </trkpt>
      <trkpt lat="44.57865" lon="1.44113">
        <ele>271.9</ele>
        <time>2021-11-21T15:29:41Z</time>
      </trkpt>
      <trkpt lat="44.5786" lon="1.44112">
        <ele>272.8</ele>
        <time>2021-11-21T15:29:46Z</time>
      </trkpt>
      <trkpt lat="44.57855" lon="1.44111">
        <ele>274</ele>
        <time>2021-11-21T15:29:51Z</time>
      </trkpt>
      <trkpt lat="44.5785" lon="1.44114">
        <ele>273.9</ele>
        <time>2021-11-21T15:29:56Z</time>
      </trkpt>
      <trkpt lat="44.57846" lon="1.44117">
        <ele>274.1</ele>
        <time>2021-11-21T15:30:01Z</time>
      </trkpt>
      <trkpt lat="44.57842" lon="1.44116">
        <ele>274</ele>
        <time>2021-11-21T15:30:08Z</time>
      </trkpt>
      <trkpt lat="44.57838" lon="1.44119">
        <ele>273</ele>
        <time>2021-11-21T15:30:14Z</time>
      </trkpt>
      <trkpt lat="44.57834" lon="1.44123">
        <ele>272.2</ele>
        <time>2021-11-21T15:30:19Z</time>
      </trkpt>
      <trkpt lat="44.5783" lon="1.44129">
        <ele>272.2</ele>
        <time>2021-11-21T15:30:24Z</time>
      </trkpt>
      <trkpt lat="44.57827" lon="1.44135">
        <ele>272.9</ele>
        <time>2021-11-21T15:30:29Z</time>
      </trkpt>
      <trkpt lat="44.57823" lon="1.4414">
        <ele>273.9</ele>
        <time>2021-11-21T15:30:33Z</time>
      </trkpt>
      <trkpt lat="44.57819" lon="1.44144">
        <ele>275</ele>
        <time>2021-11-21T15:30:37Z</time>
      </trkpt>
      <trkpt lat="44.57816" lon="1.44138">
        <ele>274.9</ele>
        <time>2021-11-21T15:30:44Z</time>
      </trkpt>
      <trkpt lat="44.57819" lon="1.44132">
        <ele>273.6</ele>
        <time>2021-11-21T15:30:49Z</time>
      </trkpt>
      <trkpt lat="44.57823" lon="1.44127">
        <ele>272.7</ele>
        <time>2021-11-21T15:30:54Z</time>
      </trkpt>
      <trkpt lat="44.57827" lon="1.44122">
        <ele>271.9</ele>
        <time>2021-11-21T15:30:59Z</time>
      </trkpt>
      <trkpt lat="44.57831" lon="1.44117">
        <ele>270.8</ele>
        <time>2021-11-21T15:31:04Z</time>
      </trkpt>
      <trkpt lat="44.57835" lon="1.44112">
        <ele>270</ele>
        <time>2021-11-21T15:31:09Z</time>
      </trkpt>
      <trkpt lat="44.57839" lon="1.44106">
        <ele>269.7</ele>
        <time>2021-11-21T15:31:14Z</time>
      </trkpt>
      <trkpt lat="44.57842" lon="1.441">
        <ele>269.1</ele>
        <time>2021-11-21T15:31:19Z</time>
      </trkpt>
      <trkpt lat="44.57846" lon="1.44095">
        <ele>268.7</ele>
        <time>2021-11-21T15:31:23Z</time>
      </trkpt>
      <trkpt lat="44.57849" lon="1.4409">
        <ele>267</ele>
        <time>2021-11-21T15:31:28Z</time>
      </trkpt>
      <trkpt lat="44.57853" lon="1.44086">
        <ele>265.8</ele>
        <time>2021-11-21T15:31:32Z</time>
      </trkpt>
      <trkpt lat="44.57857" lon="1.44081">
        <ele>264.3</ele>
        <time>2021-11-21T15:31:37Z</time>
      </trkpt>
      <trkpt lat="44.57861" lon="1.44075">
        <ele>263.1</ele>
        <time>2021-11-21T15:31:42Z</time>
      </trkpt>
      <trkpt lat="44.57865" lon="1.44071">
        <ele>262.2</ele>
        <time>2021-11-21T15:31:46Z</time>
      </trkpt>
      <trkpt lat="44.57869" lon="1.44067">
        <ele>260.7</ele>
        <time>2021-11-21T15:31:51Z</time>
      </trkpt>
      <trkpt lat="44.57874" lon="1.44064">
        <ele>259.5</ele>
        <time>2021-11-21T15:31:56Z</time>
      </trkpt>
      <trkpt lat="44.57879" lon="1.44062">
        <ele>258.9</ele>
        <time>2021-11-21T15:32:01Z</time>
      </trkpt>
      <trkpt lat="44.57884" lon="1.44059">
        <ele>257.5</ele>
        <time>2021-11-21T15:32:06Z</time>
      </trkpt>
      <trkpt lat="44.57888" lon="1.44055">
        <ele>256.8</ele>
        <time>2021-11-21T15:32:11Z</time>
      </trkpt>
      <trkpt lat="44.57893" lon="1.44053">
        <ele>255.7</ele>
        <time>2021-11-21T15:32:16Z</time>
      </trkpt>
      <trkpt lat="44.57897" lon="1.44049">
        <ele>255.3</ele>
        <time>2021-11-21T15:32:21Z</time>
      </trkpt>
      <trkpt lat="44.57902" lon="1.44047">
        <ele>254.9</ele>
        <time>2021-11-21T15:32:26Z</time>
      </trkpt>
      <trkpt lat="44.57907" lon="1.44043">
        <ele>254.2</ele>
        <time>2021-11-21T15:32:31Z</time>
      </trkpt>
      <trkpt lat="44.57912" lon="1.44041">
        <ele>254</ele>
        <time>2021-11-21T15:32:36Z</time>
      </trkpt>
      <trkpt lat="44.57917" lon="1.44038">
        <ele>253.8</ele>
        <time>2021-11-21T15:32:41Z</time>
      </trkpt>
      <trkpt lat="44.57921" lon="1.44037">
        <ele>253.6</ele>
        <time>2021-11-21T15:32:46Z</time>
      </trkpt>
      <trkpt lat="44.57926" lon="1.44035">
        <ele>252.9</ele>
        <time>2021-11-21T15:32:51Z</time>
      </trkpt>
      <trkpt lat="44.57931" lon="1.44033">
        <ele>252.1</ele>
        <time>2021-11-21T15:32:56Z</time>
      </trkpt>
      <trkpt lat="44.57936" lon="1.44033">
        <ele>252.2</ele>
        <time>2021-11-21T15:33:01Z</time>
      </trkpt>
      <trkpt lat="44.57941" lon="1.44037">
        <ele>252.7</ele>
        <time>2021-11-21T15:33:06Z</time>
      </trkpt>
      <trkpt lat="44.57945" lon="1.4404">
        <ele>252.6</ele>
        <time>2021-11-21T15:33:11Z</time>
      </trkpt>
      <trkpt lat="44.57949" lon="1.44041">
        <ele>253</ele>
        <time>2021-11-21T15:33:15Z</time>
      </trkpt>
      <trkpt lat="44.57954" lon="1.4404">
        <ele>253.8</ele>
        <time>2021-11-21T15:33:19Z</time>
      </trkpt>
      <trkpt lat="44.57956" lon="1.44035">
        <ele>254.6</ele>
        <time>2021-11-21T15:33:24Z</time>
      </trkpt>
      <trkpt lat="44.57955" lon="1.44028">
        <ele>256.1</ele>
        <time>2021-11-21T15:34:34Z</time>
      </trkpt>
      <trkpt lat="44.57953" lon="1.44021">
        <ele>256.8</ele>
        <time>2021-11-21T15:34:39Z</time>
      </trkpt>
      <trkpt lat="44.57952" lon="1.44014">
        <ele>256.7</ele>
        <time>2021-11-21T15:34:44Z</time>
      </trkpt>
      <trkpt lat="44.57951" lon="1.44007">
        <ele>256.5</ele>
        <time>2021-11-21T15:34:49Z</time>
      </trkpt>
      <trkpt lat="44.5795" lon="1.44001">
        <ele>256.1</ele>
        <time>2021-11-21T15:34:55Z</time>
      </trkpt>
      <trkpt lat="44.57949" lon="1.43994">
        <ele>255.6</ele>
        <time>2021-11-21T15:35:02Z</time>
      </trkpt>
      <trkpt lat="44.57947" lon="1.43988">
        <ele>255.1</ele>
        <time>2021-11-21T15:35:08Z</time>
      </trkpt>
      <trkpt lat="44.57945" lon="1.43983">
        <ele>254.6</ele>
        <time>2021-11-21T15:35:13Z</time>
      </trkpt>
      <trkpt lat="44.57943" lon="1.43977">
        <ele>254.1</ele>
        <time>2021-11-21T15:35:18Z</time>
      </trkpt>
      <trkpt lat="44.57941" lon="1.4397">
        <ele>253.1</ele>
        <time>2021-11-21T15:35:23Z</time>
      </trkpt>
      <trkpt lat="44.57939" lon="1.43964">
        <ele>251.8</ele>
        <time>2021-11-21T15:35:28Z</time>
      </trkpt>
      <trkpt lat="44.57938" lon="1.43957">
        <ele>250.6</ele>
        <time>2021-11-21T15:35:33Z</time>
      </trkpt>
      <trkpt lat="44.57936" lon="1.43951">
        <ele>250.3</ele>
        <time>2021-11-21T15:35:38Z</time>
      </trkpt>
      <trkpt lat="44.57935" lon="1.43944">
        <ele>249.7</ele>
        <time>2021-11-21T15:35:44Z</time>
      </trkpt>
      <trkpt lat="44.57934" lon="1.43937">
        <ele>249.5</ele>
        <time>2021-11-21T15:35:49Z</time>
      </trkpt>
      <trkpt lat="44.57933" lon="1.4393">
        <ele>249.7</ele>
        <time>2021-11-21T15:35:54Z</time>
      </trkpt>
      <trkpt lat="44.57932" lon="1.43923">
        <ele>249.7</ele>
        <time>2021-11-21T15:35:59Z</time>
      </trkpt>
      <trkpt lat="44.57931" lon="1.43916">
        <ele>249.9</ele>
        <time>2021-11-21T15:36:04Z</time>
      </trkpt>
      <trkpt lat="44.5793" lon="1.43909">
        <ele>249.5</ele>
        <time>2021-11-21T15:36:09Z</time>
      </trkpt>
      <trkpt lat="44.57929" lon="1.43902">
        <ele>248.9</ele>
        <time>2021-11-21T15:36:14Z</time>
      </trkpt>
      <trkpt lat="44.57927" lon="1.43895">
        <ele>248.9</ele>
        <time>2021-11-21T15:36:19Z</time>
      </trkpt>
      <trkpt lat="44.57926" lon="1.43888">
        <ele>249.4</ele>
        <time>2021-11-21T15:36:24Z</time>
      </trkpt>
      <trkpt lat="44.57925" lon="1.43881">
        <ele>249.3</ele>
        <time>2021-11-21T15:36:29Z</time>
      </trkpt>
      <trkpt lat="44.57925" lon="1.43873">
        <ele>249.1</ele>
        <time>2021-11-21T15:36:34Z</time>
      </trkpt>
      <trkpt lat="44.57926" lon="1.43866">
        <ele>248.8</ele>
        <time>2021-11-21T15:36:39Z</time>
      </trkpt>
      <trkpt lat="44.57926" lon="1.43859">
        <ele>249.1</ele>
        <time>2021-11-21T15:36:44Z</time>
      </trkpt>
      <trkpt lat="44.57927" lon="1.43851">
        <ele>248.8</ele>
        <time>2021-11-21T15:36:49Z</time>
      </trkpt>
      <trkpt lat="44.57928" lon="1.43844">
        <ele>248.9</ele>
        <time>2021-11-21T15:36:54Z</time>
      </trkpt>
      <trkpt lat="44.57928" lon="1.43837">
        <ele>248.5</ele>
        <time>2021-11-21T15:36:59Z</time>
      </trkpt>
      <trkpt lat="44.57928" lon="1.43829">
        <ele>248.3</ele>
        <time>2021-11-21T15:37:04Z</time>
      </trkpt>
      <trkpt lat="44.57928" lon="1.43822">
        <ele>247.8</ele>
        <time>2021-11-21T15:37:09Z</time>
      </trkpt>
      <trkpt lat="44.57928" lon="1.43815">
        <ele>247.8</ele>
        <time>2021-11-21T15:37:14Z</time>
      </trkpt>
      <trkpt lat="44.57927" lon="1.43808">
        <ele>248.3</ele>
        <time>2021-11-21T15:37:19Z</time>
      </trkpt>
      <trkpt lat="44.57927" lon="1.438">
        <ele>248</ele>
        <time>2021-11-21T15:37:24Z</time>
      </trkpt>
      <trkpt lat="44.57926" lon="1.43793">
        <ele>248</ele>
        <time>2021-11-21T15:37:29Z</time>
      </trkpt>
      <trkpt lat="44.57925" lon="1.43786">
        <ele>248.6</ele>
        <time>2021-11-21T15:37:34Z</time>
      </trkpt>
      <trkpt lat="44.57924" lon="1.43779">
        <ele>249.5</ele>
        <time>2021-11-21T15:37:39Z</time>
      </trkpt>
      <trkpt lat="44.57923" lon="1.43771">
        <ele>251.1</ele>
        <time>2021-11-21T15:37:44Z</time>
      </trkpt>
      <trkpt lat="44.57922" lon="1.43765">
        <ele>251.2</ele>
        <time>2021-11-21T15:37:49Z</time>
      </trkpt>
      <trkpt lat="44.57921" lon="1.43757">
        <ele>251.6</ele>
        <time>2021-11-21T15:37:54Z</time>
      </trkpt>
      <trkpt lat="44.5792" lon="1.4375">
        <ele>251.6</ele>
        <time>2021-11-21T15:37:59Z</time>
      </trkpt>
      <trkpt lat="44.5792" lon="1.43743">
        <ele>251.8</ele>
        <time>2021-11-21T15:38:04Z</time>
      </trkpt>
      <trkpt lat="44.57919" lon="1.43736">
        <ele>251.9</ele>
        <time>2021-11-21T15:38:09Z</time>
      </trkpt>
      <trkpt lat="44.57918" lon="1.43729">
        <ele>251.9</ele>
        <time>2021-11-21T15:38:14Z</time>
      </trkpt>
      <trkpt lat="44.57918" lon="1.43721">
        <ele>251.8</ele>
        <time>2021-11-21T15:38:19Z</time>
      </trkpt>
      <trkpt lat="44.57918" lon="1.43714">
        <ele>251.9</ele>
        <time>2021-11-21T15:38:24Z</time>
      </trkpt>
      <trkpt lat="44.57919" lon="1.43708">
        <ele>252</ele>
        <time>2021-11-21T15:38:29Z</time>
      </trkpt>
      <trkpt lat="44.57916" lon="1.43703">
        <ele>250</ele>
        <time>2021-11-21T15:38:35Z</time>
      </trkpt>
      <trkpt lat="44.57915" lon="1.43697">
        <ele>247.2</ele>
        <time>2021-11-21T15:38:42Z</time>
      </trkpt>
      <trkpt lat="44.57916" lon="1.4369">
        <ele>246</ele>
        <time>2021-11-21T15:38:47Z</time>
      </trkpt>
      <trkpt lat="44.57917" lon="1.43683">
        <ele>245.3</ele>
        <time>2021-11-21T15:38:52Z</time>
      </trkpt>
      <trkpt lat="44.57918" lon="1.43676">
        <ele>245.4</ele>
        <time>2021-11-21T15:38:57Z</time>
      </trkpt>
      <trkpt lat="44.5792" lon="1.43669">
        <ele>245.4</ele>
        <time>2021-11-21T15:39:02Z</time>
      </trkpt>
      <trkpt lat="44.57921" lon="1.43662">
        <ele>245.2</ele>
        <time>2021-11-21T15:39:07Z</time>
      </trkpt>
      <trkpt lat="44.57923" lon="1.43656">
        <ele>245.9</ele>
        <time>2021-11-21T15:39:12Z</time>
      </trkpt>
      <trkpt lat="44.57925" lon="1.43649">
        <ele>246.7</ele>
        <time>2021-11-21T15:39:16Z</time>
      </trkpt>
      <trkpt lat="44.57926" lon="1.43642">
        <ele>247.3</ele>
        <time>2021-11-21T15:39:21Z</time>
      </trkpt>
      <trkpt lat="44.57926" lon="1.43634">
        <ele>247</ele>
        <time>2021-11-21T15:39:26Z</time>
      </trkpt>
      <trkpt lat="44.57927" lon="1.43628">
        <ele>246.9</ele>
        <time>2021-11-21T15:39:30Z</time>
      </trkpt>
      <trkpt lat="44.57928" lon="1.4362">
        <ele>246.4</ele>
        <time>2021-11-21T15:39:35Z</time>
      </trkpt>
      <trkpt lat="44.5793" lon="1.43613">
        <ele>246.2</ele>
        <time>2021-11-21T15:39:40Z</time>
      </trkpt>
      <trkpt lat="44.57932" lon="1.43606">
        <ele>246.4</ele>
        <time>2021-11-21T15:39:44Z</time>
      </trkpt>
      <trkpt lat="44.57934" lon="1.436">
        <ele>245.9</ele>
        <time>2021-11-21T15:39:49Z</time>
      </trkpt>
      <trkpt lat="44.57935" lon="1.43593">
        <ele>244.9</ele>
        <time>2021-11-21T15:39:54Z</time>
      </trkpt>
      <trkpt lat="44.57937" lon="1.43586">
        <ele>244.3</ele>
        <time>2021-11-21T15:39:59Z</time>
      </trkpt>
      <trkpt lat="44.57938" lon="1.43579">
        <ele>244.2</ele>
        <time>2021-11-21T15:40:04Z</time>
      </trkpt>
      <trkpt lat="44.57941" lon="1.43574">
        <ele>243.8</ele>
        <time>2021-11-21T15:40:09Z</time>
      </trkpt>
      <trkpt lat="44.57944" lon="1.43568">
        <ele>243.2</ele>
        <time>2021-11-21T15:40:14Z</time>
      </trkpt>
      <trkpt lat="44.57947" lon="1.43563">
        <ele>243.3</ele>
        <time>2021-11-21T15:40:19Z</time>
      </trkpt>
      <trkpt lat="44.5795" lon="1.43559">
        <ele>243.2</ele>
        <time>2021-11-21T15:40:25Z</time>
      </trkpt>
      <trkpt lat="44.57953" lon="1.43554">
        <ele>243.5</ele>
        <time>2021-11-21T15:40:30Z</time>
      </trkpt>
      <trkpt lat="44.57957" lon="1.43549">
        <ele>244</ele>
        <time>2021-11-21T15:40:35Z</time>
      </trkpt>
      <trkpt lat="44.5796" lon="1.43544">
        <ele>243.7</ele>
        <time>2021-11-21T15:40:40Z</time>
      </trkpt>
      <trkpt lat="44.57964" lon="1.43539">
        <ele>242.8</ele>
        <time>2021-11-21T15:40:45Z</time>
      </trkpt>
      <trkpt lat="44.57967" lon="1.43534">
        <ele>241.9</ele>
        <time>2021-11-21T15:40:50Z</time>
      </trkpt>
      <trkpt lat="44.57971" lon="1.4353">
        <ele>240.4</ele>
        <time>2021-11-21T15:40:55Z</time>
      </trkpt>
      <trkpt lat="44.57975" lon="1.43526">
        <ele>239.2</ele>
        <time>2021-11-21T15:41:00Z</time>
      </trkpt>
      <trkpt lat="44.57978" lon="1.43521">
        <ele>237.3</ele>
        <time>2021-11-21T15:41:05Z</time>
      </trkpt>
      <trkpt lat="44.57982" lon="1.43517">
        <ele>235.7</ele>
        <time>2021-11-21T15:41:10Z</time>
      </trkpt>
      <trkpt lat="44.57986" lon="1.43512">
        <ele>235</ele>
        <time>2021-11-21T15:41:15Z</time>
      </trkpt>
      <trkpt lat="44.5799" lon="1.43507">
        <ele>235.2</ele>
        <time>2021-11-21T15:41:20Z</time>
      </trkpt>
      <trkpt lat="44.57993" lon="1.43502">
        <ele>235.5</ele>
        <time>2021-11-21T15:41:25Z</time>
      </trkpt>
      <trkpt lat="44.57997" lon="1.43497">
        <ele>235.5</ele>
        <time>2021-11-21T15:41:30Z</time>
      </trkpt>
      <trkpt lat="44.57999" lon="1.43491">
        <ele>235.3</ele>
        <time>2021-11-21T15:41:35Z</time>
      </trkpt>
      <trkpt lat="44.58003" lon="1.43486">
        <ele>235.6</ele>
        <time>2021-11-21T15:41:39Z</time>
      </trkpt>
      <trkpt lat="44.58006" lon="1.43482">
        <ele>235.9</ele>
        <time>2021-11-21T15:41:43Z</time>
      </trkpt>
      <trkpt lat="44.58009" lon="1.43476">
        <ele>236.6</ele>
        <time>2021-11-21T15:41:48Z</time>
      </trkpt>
      <trkpt lat="44.58012" lon="1.4347">
        <ele>236.6</ele>
        <time>2021-11-21T15:41:53Z</time>
      </trkpt>
      <trkpt lat="44.58014" lon="1.43465">
        <ele>236.6</ele>
        <time>2021-11-21T15:41:57Z</time>
      </trkpt>
      <trkpt lat="44.58017" lon="1.43459">
        <ele>236.3</ele>
        <time>2021-11-21T15:42:01Z</time>
      </trkpt>
      <trkpt lat="44.5802" lon="1.43454">
        <ele>236.1</ele>
        <time>2021-11-21T15:42:05Z</time>
      </trkpt>
      <trkpt lat="44.58023" lon="1.43449">
        <ele>235.5</ele>
        <time>2021-11-21T15:42:09Z</time>
      </trkpt>
      <trkpt lat="44.58026" lon="1.43443">
        <ele>235.6</ele>
        <time>2021-11-21T15:42:13Z</time>
      </trkpt>
      <trkpt lat="44.58028" lon="1.43438">
        <ele>235.5</ele>
        <time>2021-11-21T15:42:17Z</time>
      </trkpt>
      <trkpt lat="44.58033" lon="1.43436">
        <ele>236</ele>
        <time>2021-11-21T15:42:22Z</time>
      </trkpt>
      <trkpt lat="44.58036" lon="1.4343">
        <ele>235.6</ele>
        <time>2021-11-21T15:42:27Z</time>
      </trkpt>
      <trkpt lat="44.58039" lon="1.43424">
        <ele>235.1</ele>
        <time>2021-11-21T15:42:32Z</time>
      </trkpt>
      <trkpt lat="44.58042" lon="1.43418">
        <ele>234.9</ele>
        <time>2021-11-21T15:42:37Z</time>
      </trkpt>
      <trkpt lat="44.58045" lon="1.43413">
        <ele>234.3</ele>
        <time>2021-11-21T15:42:42Z</time>
      </trkpt>
      <trkpt lat="44.58049" lon="1.43408">
        <ele>233.9</ele>
        <time>2021-11-21T15:42:47Z</time>
      </trkpt>
      <trkpt lat="44.58052" lon="1.43403">
        <ele>233.9</ele>
        <time>2021-11-21T15:42:52Z</time>
      </trkpt>
      <trkpt lat="44.58055" lon="1.43398">
        <ele>233.7</ele>
        <time>2021-11-21T15:42:57Z</time>
      </trkpt>
      <trkpt lat="44.58059" lon="1.43393">
        <ele>233.8</ele>
        <time>2021-11-21T15:43:02Z</time>
      </trkpt>
      <trkpt lat="44.58062" lon="1.43388">
        <ele>233.1</ele>
        <time>2021-11-21T15:43:07Z</time>
      </trkpt>
      <trkpt lat="44.58066" lon="1.43383">
        <ele>232.5</ele>
        <time>2021-11-21T15:43:12Z</time>
      </trkpt>
      <trkpt lat="44.5807" lon="1.43378">
        <ele>232.5</ele>
        <time>2021-11-21T15:43:17Z</time>
      </trkpt>
      <trkpt lat="44.58074" lon="1.43375">
        <ele>231.8</ele>
        <time>2021-11-21T15:43:22Z</time>
      </trkpt>
      <trkpt lat="44.58079" lon="1.43371">
        <ele>231.7</ele>
        <time>2021-11-21T15:43:27Z</time>
      </trkpt>
      <trkpt lat="44.58083" lon="1.43369">
        <ele>231.8</ele>
        <time>2021-11-21T15:43:32Z</time>
      </trkpt>
      <trkpt lat="44.58088" lon="1.43367">
        <ele>231.3</ele>
        <time>2021-11-21T15:43:37Z</time>
      </trkpt>
      <trkpt lat="44.58093" lon="1.43365">
        <ele>231.1</ele>
        <time>2021-11-21T15:43:42Z</time>
      </trkpt>
      <trkpt lat="44.58098" lon="1.43364">
        <ele>230.8</ele>
        <time>2021-11-21T15:43:47Z</time>
      </trkpt>
      <trkpt lat="44.58102" lon="1.43362">
        <ele>230.1</ele>
        <time>2021-11-21T15:43:52Z</time>
      </trkpt>
      <trkpt lat="44.58107" lon="1.4336">
        <ele>229.4</ele>
        <time>2021-11-21T15:43:57Z</time>
      </trkpt>
      <trkpt lat="44.58112" lon="1.43358">
        <ele>229.5</ele>
        <time>2021-11-21T15:44:02Z</time>
      </trkpt>
      <trkpt lat="44.58116" lon="1.43357">
        <ele>229.7</ele>
        <time>2021-11-21T15:44:07Z</time>
      </trkpt>
      <trkpt lat="44.58121" lon="1.43355">
        <ele>229.7</ele>
        <time>2021-11-21T15:44:12Z</time>
      </trkpt>
      <trkpt lat="44.58125" lon="1.43353">
        <ele>230</ele>
        <time>2021-11-21T15:44:17Z</time>
      </trkpt>
      <trkpt lat="44.5813" lon="1.43352">
        <ele>230.6</ele>
        <time>2021-11-21T15:44:22Z</time>
      </trkpt>
      <trkpt lat="44.58134" lon="1.4335">
        <ele>230.6</ele>
        <time>2021-11-21T15:44:27Z</time>
      </trkpt>
      <trkpt lat="44.58139" lon="1.43354">
        <ele>230.6</ele>
        <time>2021-11-21T15:44:33Z</time>
      </trkpt>
      <trkpt lat="44.58144" lon="1.43355">
        <ele>230.7</ele>
        <time>2021-11-21T15:44:37Z</time>
      </trkpt>
      <trkpt lat="44.58149" lon="1.43356">
        <ele>230.3</ele>
        <time>2021-11-21T15:44:42Z</time>
      </trkpt>
      <trkpt lat="44.58154" lon="1.43354">
        <ele>230</ele>
        <time>2021-11-21T15:44:47Z</time>
      </trkpt>
      <trkpt lat="44.58158" lon="1.43352">
        <ele>229.5</ele>
        <time>2021-11-21T15:44:52Z</time>
      </trkpt>
      <trkpt lat="44.58163" lon="1.43351">
        <ele>230.7</ele>
        <time>2021-11-21T15:44:57Z</time>
      </trkpt>
      <trkpt lat="44.58168" lon="1.43351">
        <ele>231.3</ele>
        <time>2021-11-21T15:45:02Z</time>
      </trkpt>
      <trkpt lat="44.58173" lon="1.43351">
        <ele>231.3</ele>
        <time>2021-11-21T15:45:07Z</time>
      </trkpt>
      <trkpt lat="44.58178" lon="1.43351">
        <ele>231.8</ele>
        <time>2021-11-21T15:45:12Z</time>
      </trkpt>
    </trkseg>
  </trk>
</gpx>